[[{"header":{"parameterUnit":"m.s-1","parameterCategory":1,"la1":30.6,"la2":29.2853,"lo1":-89.7004,"lo2":-87.6739,"dy":0.0162,"dx":0.0183,"nx":112,"ny":82,"refTime":"2026-05-21T12:00:00:Z","depth":0,"parameterNumber":2,"parameterNumberName":"U-component_of_WINDS"},"data":[0.0,0.0,0.0,0.0,0.0,0.0,0.0,0.0,0.0,0.0,0.0,0.0,0.0,0.0,0.0,0.0,0.0,0.0,0.0,0.0,0.0,0.0,0.0,0.0,0.0,0.0,0.0,0.0,0.0,0.0,0.0,0.0,0.0,0.0,0.0,0.0,0.0,0.0,0.0,0.0,0.0,0.0,0.0,0.0,0.0,0.0,0.0,0.0,0.0,0.0,0.0,0.0,0.0,0.0,0.0,0.0,0.0,0.0,0.0,0.0,0.0,0.0,0.0,0.0,0.0,0.0,0.0,0.0,0.0,0.0,0.0,0.0,0.0,0.0,0.0,0.0,0.0,0.0,0.0,0.0,0.0,0.0,0.0,0.0,0.0,0.0,0.0,0.0,0.0,0.0,-4.0557,-4.3821,-4.6881,-4.8377,-4.7625,-4.7903,-4.5407,-3.9073,0.0,0.0,0.0,0.0,0.0,0.0,0.0,0.0,0.0,0.0,0.0,0.0,0.0,0.0,0.0,0.0,0.0,0.0,0.0,0.0,0.0,0.0,0.0,0.0,0.0,0.0,0.0,0.0,0.0,0.0,0.0,0.0,0.0,0.0,0.0,0.0,0.0,0.0,0.0,0.0,0.0,0.0,0.0,0.0,0.0,0.0,0.0,0.0,0.0,0.0,0.0,0.0,0.0,0.0,0.0,0.0,0.0,0.0,0.0,0.0,0.0,0.0,0.0,0.0,0.0,0.0,0.0,0.0,0.0,0.0,0.0,0.0,0.0,0.0,0.0,0.0,0.0,0.0,0.0,0.0,0.0,0.0,0.0,0.0,0.0,0.0,0.0,0.0,0.0,0.0,0.0,0.0,0.0,0.0,0.0,0.0,0.0,0.0,0.0,0.0,0.0,0.0,0.0,0.0,-4.1674,-4.7878,-4.9087,-4.9382,-4.9247,-4.7427,-4.4621,-4.066,0.0,0.0,0.0,0.0,0.0,0.0,0.0,0.0,0.0,0.0,0.0,0.0,0.0,0.0,0.0,0.0,0.0,0.0,0.0,0.0,0.0,0.0,0.0,0.0,0.0,0.0,0.0,0.0,0.0,0.0,0.0,0.0,0.0,0.0,0.0,0.0,0.0,0.0,0.0,0.0,0.0,0.0,0.0,0.0,0.0,0.0,0.0,0.0,0.0,0.0,0.0,0.0,0.0,0.0,0.0,0.0,0.0,0.0,0.0,0.0,0.0,0.0,0.0,0.0,0.0,0.0,0.0,0.0,0.0,0.0,0.0,0.0,0.0,0.0,0.0,0.0,0.0,0.0,0.0,0.0,0.0,0.0,0.0,0.0,0.0,0.0,0.0,0.0,0.0,0.0,0.0,0.0,0.0,0.0,0.0,0.0,0.0,0.0,0.0,0.0,0.0,0.0,0.0,-3.9299,-4.2075,-4.7514,-4.7736,-4.7689,-4.8207,-4.6336,-4.3497,-3.963,-3.8181,0.0,0.0,0.0,0.0,0.0,0.0,0.0,0.0,0.0,0.0,0.0,0.0,0.0,0.0,0.0,0.0,0.0,0.0,0.0,0.0,0.0,0.0,0.0,0.0,0.0,0.0,0.0,0.0,0.0,0.0,0.0,0.0,0.0,0.0,0.0,0.0,0.0,0.0,0.0,0.0,0.0,0.0,0.0,0.0,0.0,0.0,0.0,0.0,0.0,0.0,0.0,0.0,0.0,0.0,0.0,0.0,0.0,0.0,0.0,0.0,0.0,0.0,0.0,0.0,0.0,0.0,0.0,0.0,0.0,0.0,0.0,0.0,0.0,0.0,0.0,0.0,0.0,0.0,0.0,0.0,0.0,0.0,0.0,0.0,0.0,0.0,0.0,0.0,0.0,0.0,0.0,0.0,0.0,0.0,0.0,0.0,0.0,0.0,0.0,0.0,0.0,0.0,-4.1366,-4.2949,-4.6765,-4.6469,-4.6278,-4.6997,-4.5121,-4.2239,-3.8413,-3.5847,0.0,0.0,0.0,0.0,0.0,0.0,0.0,0.0,0.0,0.0,0.0,0.0,0.0,0.0,0.0,0.0,0.0,0.0,0.0,0.0,0.0,0.0,0.0,0.0,0.0,0.0,0.0,0.0,0.0,0.0,0.0,0.0,0.0,0.0,0.0,0.0,0.0,0.0,0.0,0.0,0.0,0.0,0.0,0.0,0.0,0.0,0.0,0.0,0.0,0.0,0.0,0.0,0.0,0.0,0.0,0.0,0.0,0.0,0.0,0.0,0.0,0.0,0.0,0.0,0.0,0.0,0.0,0.0,0.0,0.0,0.0,0.0,0.0,0.0,0.0,0.0,0.0,0.0,0.0,0.0,0.0,0.0,0.0,0.0,0.0,0.0,0.0,0.0,0.0,0.0,0.0,0.0,0.0,0.0,0.0,0.0,0.0,0.0,0.0,0.0,0.0,0.0,-4.2151,-4.5056,-4.7721,-4.7293,-4.6838,-4.6906,-4.3941,-4.0956,-3.8273,-3.3548,0.0,0.0,0.0,0.0,0.0,0.0,0.0,0.0,0.0,0.0,0.0,0.0,0.0,0.0,0.0,0.0,0.0,0.0,0.0,0.0,0.0,0.0,0.0,0.0,0.0,0.0,0.0,0.0,0.0,0.0,0.0,0.0,0.0,0.0,0.0,0.0,0.0,0.0,0.0,0.0,0.0,0.0,0.0,0.0,0.0,0.0,0.0,0.0,0.0,0.0,0.0,0.0,0.0,0.0,0.0,0.0,0.0,0.0,0.0,0.0,0.0,0.0,0.0,0.0,0.0,0.0,0.0,0.0,0.0,0.0,0.0,0.0,0.0,0.0,0.0,0.0,0.0,0.0,0.0,0.0,0.0,0.0,0.0,0.0,0.0,0.0,0.0,0.0,0.0,0.0,0.0,0.0,0.0,0.0,0.0,0.0,0.0,0.0,0.0,0.0,0.0,0.0,-4.0489,-4.3316,-4.6971,-4.6584,-4.611,-4.6155,-4.3532,-4.0374,-3.6761,0.0,0.0,0.0,0.0,0.0,0.0,0.0,0.0,0.0,0.0,0.0,0.0,0.0,0.0,0.0,0.0,0.0,0.0,0.0,0.0,0.0,0.0,0.0,0.0,0.0,0.0,0.0,0.0,0.0,0.0,0.0,0.0,0.0,0.0,0.0,0.0,0.0,0.0,0.0,0.0,0.0,0.0,0.0,0.0,0.0,0.0,0.0,0.0,0.0,0.0,0.0,0.0,0.0,0.0,0.0,0.0,0.0,0.0,0.0,0.0,0.0,0.0,0.0,0.0,0.0,0.0,0.0,0.0,0.0,0.0,0.0,0.0,0.0,0.0,0.0,0.0,0.0,0.0,0.0,0.0,0.0,0.0,0.0,0.0,0.0,0.0,0.0,0.0,0.0,0.0,0.0,0.0,0.0,0.0,0.0,0.0,0.0,0.0,0.0,0.0,0.0,0.0,-3.7411,-3.995,-4.2643,-4.6124,-4.5701,-4.5103,-4.4886,-4.2287,-3.9085,-3.538,0.0,0.0,0.0,0.0,0.0,0.0,0.0,0.0,0.0,0.0,0.0,0.0,0.0,0.0,0.0,0.0,0.0,0.0,0.0,0.0,0.0,0.0,0.0,0.0,0.0,0.0,0.0,0.0,0.0,0.0,0.0,0.0,0.0,0.0,0.0,0.0,0.0,0.0,0.0,0.0,0.0,0.0,0.0,0.0,0.0,0.0,0.0,0.0,0.0,0.0,0.0,0.0,0.0,0.0,0.0,0.0,0.0,0.0,0.0,0.0,0.0,0.0,0.0,0.0,0.0,0.0,0.0,0.0,0.0,0.0,0.0,0.0,0.0,0.0,0.0,0.0,0.0,0.0,0.0,0.0,0.0,0.0,0.0,0.0,0.0,0.0,0.0,0.0,0.0,0.0,0.0,0.0,0.0,0.0,0.0,0.0,0.0,0.0,0.0,0.0,0.0,0.0,-3.7526,-4.095,-4.3682,-4.5364,-4.4759,-4.3932,-4.3124,-3.995,-3.6899,0.0,0.0,0.0,0.0,0.0,0.0,0.0,0.0,0.0,0.0,0.0,0.0,0.0,0.0,0.0,0.0,0.0,0.0,0.0,0.0,0.0,0.0,0.0,0.0,0.0,0.0,0.0,0.0,0.0,0.0,0.0,0.0,0.0,0.0,0.0,0.0,0.0,0.0,0.0,0.0,0.0,0.0,0.0,0.0,0.0,0.0,0.0,0.0,0.0,0.0,0.0,0.0,0.0,0.0,0.0,0.0,0.0,0.0,0.0,0.0,0.0,0.0,0.0,0.0,0.0,0.0,0.0,0.0,0.0,0.0,0.0,0.0,0.0,0.0,0.0,0.0,0.0,0.0,0.0,0.0,0.0,0.0,0.0,0.0,0.0,0.0,0.0,0.0,0.0,0.0,0.0,0.0,0.0,0.0,0.0,0.0,0.0,0.0,0.0,0.0,0.0,0.0,0.0,-3.5851,-3.855,-4.0663,-4.1893,-4.1766,-4.1285,-4.0489,-3.8799,-3.6263,-3.2666,0.0,0.0,0.0,0.0,0.0,0.0,0.0,0.0,0.0,0.0,0.0,0.0,0.0,0.0,0.0,0.0,0.0,0.0,0.0,0.0,0.0,0.0,0.0,0.0,0.0,0.0,0.0,0.0,0.0,0.0,0.0,0.0,0.0,0.0,0.0,0.0,0.0,0.0,0.0,0.0,0.0,0.0,0.0,0.0,0.0,0.0,0.0,0.0,0.0,0.0,0.0,0.0,0.0,0.0,0.0,0.0,0.0,0.0,0.0,0.0,0.0,0.0,0.0,0.0,0.0,0.0,0.0,0.0,0.0,0.0,0.0,0.0,0.0,0.0,0.0,0.0,0.0,0.0,0.0,0.0,0.0,0.0,0.0,0.0,0.0,0.0,0.0,0.0,0.0,0.0,0.0,0.0,0.0,0.0,0.0,0.0,0.0,0.0,0.0,0.0,0.0,0.0,-3.4913,-3.737,-3.9232,-4.0163,-3.998,-3.9444,-3.8612,-3.7637,-3.5465,-3.1692,0.0,0.0,0.0,0.0,0.0,0.0,0.0,0.0,0.0,0.0,0.0,0.0,0.0,0.0,0.0,0.0,0.0,0.0,0.0,0.0,0.0,0.0,0.0,0.0,0.0,0.0,0.0,0.0,0.0,0.0,0.0,0.0,0.0,0.0,0.0,0.0,0.0,0.0,0.0,0.0,0.0,0.0,0.0,0.0,0.0,0.0,0.0,0.0,0.0,0.0,0.0,0.0,0.0,0.0,0.0,0.0,0.0,0.0,0.0,0.0,0.0,0.0,0.0,0.0,0.0,0.0,0.0,0.0,0.0,0.0,0.0,0.0,0.0,0.0,0.0,0.0,0.0,0.0,0.0,0.0,0.0,0.0,0.0,0.0,0.0,0.0,0.0,0.0,0.0,0.0,0.0,0.0,0.0,0.0,0.0,0.0,0.0,0.0,0.0,0.0,0.0,0.0,-3.4357,-3.6814,-3.8607,-3.9359,-3.8779,-3.8029,-3.7251,-3.6434,-3.4576,-3.1318,0.0,0.0,0.0,0.0,0.0,0.0,0.0,0.0,0.0,0.0,0.0,0.0,0.0,0.0,0.0,0.0,0.0,0.0,0.0,0.0,0.0,0.0,0.0,0.0,0.0,0.0,0.0,0.0,0.0,0.0,0.0,0.0,0.0,0.0,0.0,0.0,0.0,0.0,0.0,0.0,0.0,0.0,0.0,0.0,0.0,0.0,0.0,0.0,0.0,0.0,0.0,0.0,0.0,0.0,0.0,0.0,0.0,0.0,0.0,0.0,-3.3954,-3.2871,0.0,0.0,0.0,0.0,0.0,0.0,0.0,0.0,0.0,0.0,0.0,0.0,0.0,0.0,0.0,0.0,0.0,0.0,0.0,0.0,0.0,0.0,0.0,0.0,0.0,0.0,0.0,0.0,0.0,0.0,0.0,0.0,0.0,0.0,0.0,0.0,0.0,0.0,0.0,0.0,-3.2673,-3.4412,-3.5589,-3.5931,-3.5818,-3.5638,-3.5448,-3.5129,-3.3825,-3.1271,-2.9377,0.0,0.0,0.0,0.0,0.0,0.0,0.0,0.0,0.0,0.0,0.0,0.0,0.0,0.0,0.0,0.0,0.0,0.0,0.0,0.0,0.0,0.0,0.0,0.0,0.0,0.0,0.0,0.0,0.0,0.0,0.0,0.0,0.0,0.0,0.0,0.0,0.0,0.0,0.0,0.0,0.0,0.0,0.0,0.0,0.0,0.0,0.0,0.0,0.0,0.0,0.0,0.0,0.0,0.0,0.0,0.0,0.0,0.0,0.0,-3.6229,-3.5422,0.0,0.0,0.0,0.0,0.0,0.0,0.0,0.0,0.0,0.0,0.0,0.0,0.0,0.0,0.0,0.0,0.0,0.0,0.0,0.0,0.0,0.0,0.0,0.0,0.0,0.0,0.0,0.0,0.0,0.0,0.0,0.0,0.0,0.0,0.0,0.0,0.0,0.0,0.0,0.0,-3.1898,-3.3465,-3.4443,-3.4545,-3.4556,-3.4556,-3.4556,-3.4465,-3.3563,-3.156,-3.0167,0.0,0.0,0.0,0.0,0.0,0.0,0.0,0.0,0.0,0.0,0.0,0.0,0.0,0.0,0.0,0.0,0.0,0.0,0.0,0.0,0.0,0.0,0.0,0.0,0.0,0.0,0.0,0.0,0.0,0.0,0.0,0.0,0.0,0.0,0.0,0.0,0.0,0.0,0.0,0.0,0.0,0.0,0.0,0.0,0.0,0.0,0.0,0.0,0.0,0.0,0.0,0.0,0.0,-4.1071,-4.1722,-4.0836,-4.1574,-4.1669,-4.1132,-3.8467,-3.8186,-3.9399,-3.6951,0.0,0.0,0.0,0.0,0.0,0.0,0.0,0.0,0.0,0.0,0.0,0.0,0.0,0.0,0.0,0.0,0.0,0.0,0.0,0.0,0.0,0.0,-3.3243,0.0,-3.3133,-3.2682,-3.1464,0.0,0.0,0.0,0.0,0.0,0.0,0.0,0.0,0.0,0.0,0.0,-3.1556,-3.317,-3.4173,-3.4173,-3.4173,-3.4117,-3.3981,-3.3962,-3.3294,-3.1701,-3.0846,-2.9396,0.0,0.0,0.0,0.0,0.0,0.0,0.0,0.0,0.0,0.0,0.0,0.0,0.0,0.0,0.0,0.0,0.0,0.0,0.0,0.0,0.0,0.0,0.0,0.0,0.0,0.0,0.0,0.0,0.0,0.0,0.0,0.0,-2.9639,-3.1115,0.0,0.0,0.0,0.0,0.0,0.0,0.0,0.0,0.0,0.0,0.0,0.0,0.0,-3.6789,-3.9462,-4.1085,-4.1796,-4.1571,-4.3719,-4.3946,-4.2498,-4.2877,-4.2665,-4.1924,-4.1531,0.0,-3.8404,-3.9312,0.0,0.0,0.0,0.0,0.0,0.0,0.0,0.0,0.0,0.0,0.0,0.0,0.0,0.0,0.0,0.0,0.0,0.0,0.0,0.0,0.0,0.0,-3.5807,-3.5807,-3.5224,-3.4637,0.0,-3.2113,-2.9804,-2.896,-2.8224,0.0,0.0,0.0,0.0,0.0,0.0,0.0,-3.1418,-3.3025,-3.4023,-3.4023,-3.4023,-3.3771,-3.3129,-3.3074,-3.2412,-3.0864,-2.9991,-2.9062,-2.7984,-2.5838,0.0,0.0,0.0,0.0,0.0,0.0,0.0,0.0,0.0,0.0,0.0,0.0,0.0,0.0,0.0,0.0,0.0,0.0,0.0,0.0,0.0,0.0,0.0,0.0,0.0,0.0,0.0,0.0,0.0,-2.9811,-3.1096,-3.2197,-3.2827,-3.2561,0.0,0.0,0.0,0.0,0.0,0.0,0.0,0.0,0.0,-3.8784,-3.8535,-3.957,-4.2154,-4.2953,-4.3387,-4.3472,-4.4835,-4.5103,-4.4425,-4.4589,-4.413,-4.3212,-4.3212,-4.1682,-3.9197,-3.9331,-3.8151,-3.6215,0.0,0.0,0.0,0.0,-3.5266,-3.4497,-3.5918,-3.5669,-3.4654,-3.421,0.0,0.0,0.0,0.0,0.0,0.0,0.0,-3.3617,0.0,0.0,-3.5573,-3.5573,-3.4931,-3.4325,-3.4325,-3.322,-3.1856,0.0,-2.9731,-2.8658,-2.6982,0.0,0.0,0.0,0.0,-2.9614,-3.0778,-3.1942,-3.2644,-3.2644,-3.2644,-3.2526,-3.2211,-3.2174,-3.1686,-3.0561,-3.0165,-2.9579,-2.8746,-2.7273,-2.6032,0.0,0.0,0.0,0.0,0.0,0.0,0.0,0.0,0.0,0.0,0.0,0.0,0.0,0.0,0.0,0.0,0.0,0.0,0.0,0.0,0.0,0.0,0.0,0.0,0.0,0.0,0.0,0.0,-3.1306,-3.2683,-3.3404,-3.4807,-3.4683,0.0,0.0,0.0,0.0,0.0,0.0,-3.5337,-3.6681,-3.8494,-4.0809,-4.0833,-4.1911,-4.4235,-4.4283,-4.4533,-4.4955,-4.5463,-4.5699,-4.5699,-4.5372,-4.4689,-4.3723,-4.353,-4.2189,-4.0082,-3.9479,-3.8892,-3.8199,-3.6853,-3.6023,-3.5723,-3.682,-3.6482,-3.5668,-3.7167,-3.6917,-3.5858,-3.5451,-3.4747,-3.3827,-3.2672,0.0,0.0,0.0,0.0,-3.4048,-3.4651,-3.4907,-3.5004,-3.5004,-3.438,-3.3807,-3.3807,-3.3642,-3.3146,0.0,-3.1054,-2.9879,-2.7901,0.0,0.0,-2.7369,-2.8349,-2.944,-3.0252,-3.1045,-3.1555,-3.1555,-3.1555,-3.1463,-3.1283,-3.1265,-3.0932,-3.0142,-3.0087,-2.9828,-2.9207,-2.8429,-2.7403,-2.6158,0.0,0.0,0.0,0.0,0.0,0.0,0.0,0.0,0.0,0.0,0.0,0.0,0.0,0.0,0.0,0.0,0.0,0.0,0.0,0.0,0.0,0.0,0.0,0.0,0.0,0.0,0.0,0.0,0.0,-3.5042,-3.7546,0.0,0.0,0.0,0.0,-3.3473,-3.5367,-3.6943,-3.7706,-3.8468,-3.9909,-4.2129,-4.2197,-4.3157,-4.5208,-4.5364,-4.5688,-4.6209,-4.5858,-4.5699,-4.5656,-4.45,-4.3527,-4.2732,-4.2038,-4.1243,-4.0497,-4.0839,-3.9655,-3.7783,-3.9129,-3.8527,-3.714,-3.9019,-3.8316,-3.6602,-3.775,-3.6764,-3.509,-3.5758,-3.5139,-3.4229,-3.4463,-3.4076,0.0,0.0,-3.4552,-3.5589,-3.5625,-3.5326,-3.5004,-3.5004,-3.438,-3.3807,-3.3807,-3.3201,-3.2638,0.0,-3.1898,-3.1078,-3.0268,0.0,-2.8077,-2.8857,-2.8996,-2.931,-3.0111,-3.0901,-3.1409,-3.1409,-3.1409,-3.114,-3.0427,-3.0371,-3.0056,-2.93,-2.9274,-2.9237,-2.92,-2.8429,-2.7957,-2.7883,-2.5264,0.0,0.0,0.0,0.0,0.0,0.0,0.0,0.0,0.0,0.0,0.0,0.0,0.0,0.0,0.0,0.0,0.0,0.0,0.0,0.0,0.0,0.0,0.0,0.0,0.0,0.0,0.0,0.0,-3.6207,-3.838,0.0,-3.6076,-3.7359,-3.7817,-3.64,-3.8362,-3.9749,-4.002,-4.1187,-4.2202,-4.2997,-4.3504,-4.4105,-4.4852,-4.4906,-4.5015,-4.5196,-4.5052,-4.4714,-4.4219,-4.3766,-4.2894,-4.1706,-4.146,-4.0917,-4.0246,-4.0385,-3.9778,-3.8763,-3.8786,-3.8394,-3.7862,-3.8539,-3.8287,-3.7573,-3.7524,-3.6983,-3.6198,-3.5519,-3.5004,-3.4596,-3.4283,-3.4013,-3.3965,-3.4509,-3.52,-3.5758,-3.5705,-3.5582,-3.5306,-3.4796,-3.4227,-3.3807,-3.3807,-3.3568,-3.322,-3.2693,-3.1953,-3.114,-3.0374,-2.9726,-2.9102,-2.8371,-2.8679,-2.9097,-2.939,-2.9684,-2.9849,-2.9849,-2.9849,-2.9751,-2.948,-2.8996,-2.8577,-2.8323,-2.7797,-2.7521,-2.7521,-2.7098,-2.6589,-2.6078,-2.4935,-2.3703,0.0,0.0,0.0,0.0,0.0,0.0,0.0,0.0,0.0,0.0,0.0,0.0,0.0,0.0,0.0,0.0,0.0,0.0,0.0,0.0,0.0,0.0,0.0,0.0,0.0,-3.6011,-3.7905,-3.7905,-4.0113,-4.0637,-3.8149,-3.9723,-4.0358,-3.9106,-4.0849,-4.1847,-4.1576,-4.2743,-4.3392,-4.3392,-4.4181,-4.4615,-4.4615,-4.4615,-4.4615,-4.4615,-4.4615,-4.4181,-4.3375,-4.3122,-4.2371,-4.1187,-4.0933,-4.0544,-4.0096,-4.0096,-3.9925,-3.9579,-3.9068,-3.8823,-3.8823,-3.8823,-3.867,-3.8329,-3.7325,-3.6814,-3.6423,-3.5436,-3.5151,-3.5049,-3.4601,-3.451,-3.4654,-3.5276,-3.5786,-3.6054,-3.5808,-3.5722,-3.5498,-3.4684,-3.4138,-3.3807,-3.3807,-3.3807,-3.3642,-3.3109,-3.2137,-3.114,-3.0338,-2.9971,-2.9427,-2.8374,-2.8656,-2.9005,-2.9005,-2.9005,-2.9005,-2.9005,-2.9005,-2.9005,-2.9005,-2.8264,-2.7882,-2.8059,-2.7053,-2.6553,-2.6729,-2.6331,-2.5851,-2.5305,-2.4516,-2.3401,-2.2,0.0,0.0,0.0,0.0,0.0,0.0,0.0,0.0,0.0,0.0,0.0,0.0,0.0,0.0,0.0,0.0,0.0,0.0,0.0,0.0,0.0,0.0,0.0,-3.5667,-3.827,-4.0164,-4.0164,-4.276,-4.3413,-4.0502,-4.2855,-4.3639,-4.1441,-4.2625,-4.3132,-4.2405,-4.3064,-4.3426,-4.3426,-4.4181,-4.4615,-4.4615,-4.4615,-4.4615,-4.4615,-4.4581,-4.413,-4.3325,-4.2591,-4.1863,-4.1136,-4.0417,-4.0096,-4.0096,-4.0096,-4.0096,-4.0096,-4.0096,-4.0096,-4.0096,-4.0096,-3.9622,-3.8751,-3.7337,-3.6282,-3.56,-3.56,-3.56,-3.56,-3.56,-3.5689,-3.5839,-3.5954,-3.6312,-3.6496,-3.5913,-3.5704,-3.5428,-3.4648,-3.4105,-3.3762,-3.3762,-3.3762,-3.3762,-3.3743,-3.2472,-3.1133,-3.0375,-2.9537,-2.9005,-2.9005,-2.9005,0.0,-2.8994,-2.8994,-2.8994,-2.8994,-2.8994,-2.8994,-2.8994,-2.8253,-2.7986,-2.8474,-2.7031,-2.6381,-2.6905,-2.6238,-2.5845,-2.5827,-2.4021,-2.2613,-2.1608,0.0,0.0,0.0,0.0,0.0,0.0,0.0,0.0,0.0,0.0,0.0,0.0,0.0,0.0,0.0,0.0,0.0,0.0,0.0,0.0,0.0,-3.5498,-3.7786,-3.7324,-3.9817,-4.1694,-4.1694,-4.2912,-4.3403,-4.2574,-4.325,-4.3487,-4.2834,-4.3707,-4.4164,-4.3988,-4.4175,-4.4265,-4.4265,-4.4496,-4.4615,-4.4615,-4.4615,-4.4615,-4.4598,-4.4012,-4.3335,-4.2574,-4.1847,-4.1102,-4.0375,-4.0197,-4.0096,-4.0096,-4.0096,-4.0096,-4.0096,-4.0096,-4.0096,-4.0096,-4.0096,-3.9276,-3.8142,-3.7736,-3.6721,-3.56,-3.56,-3.56,-3.5622,-3.5728,-3.5773,-3.5839,-3.5954,-3.574,-3.5425,-3.5258,-3.4628,-3.3986,-3.3756,-3.3382,-3.3075,-3.3075,-3.3075,-3.2913,-3.2385,-3.1452,-3.0807,-3.1028,-2.9922,-2.9005,-2.9005,-2.9005,-2.8929,-2.8731,-2.8718,-2.8718,-2.8718,-2.8718,-2.8718,-2.8718,-2.7979,-2.7236,-2.6618,-2.5607,-2.5106,-2.5247,-2.4883,-2.4585,-2.4369,-2.335,-2.241,0.0,0.0,0.0,0.0,0.0,0.0,0.0,0.0,0.0,0.0,0.0,0.0,0.0,0.0,0.0,0.0,0.0,0.0,0.0,0.0,0.0,0.0,-3.7414,-3.9622,-3.9581,-4.1413,-4.2895,-4.3227,-4.3639,-4.391,-4.391,-4.391,-4.391,-4.391,-4.4333,-4.4615,-4.4615,-4.4615,-4.4615,-4.4615,-4.4615,-4.4615,-4.4615,-4.4615,-4.4615,-4.4598,-4.3792,-4.3014,-4.2269,-4.1542,-4.0798,-4.0096,-4.0096,-4.0096,-4.0096,-4.0096,-4.0096,-4.0096,0.0,0.0,0.0,0.0,-3.8903,-3.7872,-3.755,-3.6637,-3.56,-3.56,-3.56,-3.5622,-3.5689,-3.5728,-3.5734,-3.5883,-3.5646,-3.5215,-3.4686,-3.4164,-3.3685,-3.3072,-3.2872,-3.2795,-3.2795,-3.2795,-3.2579,-3.1826,-3.1043,0.0,-3.0522,-2.9468,-2.862,-2.862,-2.862,-2.857,-2.8399,-2.8386,-2.8386,-2.8386,-2.8386,-2.8386,-2.8386,-2.7659,0.0,0.0,0.0,-2.4572,-2.3832,-2.3951,0.0,0.0,0.0,0.0,0.0,0.0,0.0,0.0,-2.2143,-2.2251,0.0,0.0,0.0,0.0,0.0,0.0,0.0,0.0,0.0,0.0,0.0,0.0,0.0,0.0,0.0,0.0,-3.8882,-4.1017,-4.1686,-4.2694,-4.3652,-4.4485,-4.457,-4.4604,-4.4716,-4.4801,-4.4852,-4.4852,-4.4784,-4.4733,-4.4733,-4.4649,0.0,0.0,0.0,-4.4615,-4.4615,-4.4615,-4.4615,-4.4598,-4.3707,-4.2929,-4.2252,-4.1457,-4.0713,-4.0096,-4.0096,-4.0096,-4.0096,-4.0096,-4.0096,-4.0096,-4.0096,-4.0096,-4.0011,-3.9259,-3.8531,-3.7787,-3.7066,0.0,0.0,-3.56,-3.56,-3.56,-3.56,-3.56,-3.5622,-3.5734,-3.5744,-3.5397,-3.4196,-3.4034,-3.3887,-3.2546,-3.247,-3.27,-3.27,-3.27,-3.2433,-3.1611,-3.0884,-3.0104,-2.9229,-2.8524,-2.8102,-2.8102,-2.8102,-2.8088,-2.8061,-2.8061,-2.8061,-2.8061,-2.8061,0.0,-2.8061,-2.7411,-2.715,-2.7496,-2.6107,-2.4568,-2.3022,-2.3509,-2.3181,-2.1871,-2.2406,-2.2699,-2.2699,-2.2699,-2.2699,-2.2681,-2.2026,-2.2113,0.0,0.0,0.0,0.0,0.0,0.0,0.0,0.0,0.0,0.0,0.0,0.0,0.0,0.0,0.0,-3.6869,-3.9087,-4.0725,-4.1,-4.2194,-4.3401,-4.4254,-4.4367,-4.4648,-4.5432,-4.6024,-4.6363,-4.6363,-4.5821,-4.5483,-4.5483,-4.4908,-4.4615,-4.4615,-4.4615,-4.4615,-4.4615,-4.4615,-4.4615,-4.4581,-4.3166,0.0,-4.2236,-4.0925,-4.0231,-4.0096,-4.0096,-4.0096,-4.0096,-4.0096,-4.0096,-4.0096,-4.0096,-4.0096,-4.0011,-3.9259,-3.8531,-3.7787,-3.7066,-3.6265,-3.56,-3.56,-3.56,-3.56,-3.56,-3.56,0.0,-3.5622,-3.5304,-3.4708,-3.387,-3.3374,-3.2882,-3.1954,-3.1875,-3.1984,-3.1984,-3.1984,-3.1585,-3.0195,-2.9796,-2.9258,-2.7919,-2.7935,-2.8102,-2.8102,-2.8102,-2.802,-2.7815,-2.7771,-2.7771,-2.7771,-2.7771,-2.7771,-2.7771,-2.763,-2.7219,-2.6457,-2.5562,-2.4908,-2.4574,-2.4077,-2.3681,-2.3388,-2.294,-2.2699,-2.2699,-2.2699,-2.2699,-2.2699,-2.2543,-2.2861,0.0,0.0,0.0,0.0,0.0,0.0,0.0,0.0,0.0,0.0,0.0,-3.1876,-3.3917,0.0,-3.7393,-3.8192,-3.9538,-4.0529,-4.0584,-4.1244,-4.2194,-4.3479,-4.4354,-4.5017,-4.5421,-4.6275,-4.6756,-4.665,-4.6051,-4.5703,-4.5703,-4.4993,-4.4615,-4.4615,-4.4615,-4.4615,-4.4615,-4.4615,-4.4615,-4.4581,-4.3031,-4.2286,-4.2236,-4.0773,-4.0096,-4.0096,-4.0096,-4.0096,-4.0096,-4.0096,-4.0096,-4.0062,-3.9706,-3.9554,-3.9495,-3.9123,-3.8294,-3.7297,-3.6931,-3.6265,-3.56,-3.56,-3.56,-3.56,-3.56,-3.56,-3.56,-3.56,-3.5374,-3.4914,-3.3858,-3.34,-3.2921,-3.1854,-3.1635,-3.1727,-3.18,-3.18,-3.1455,-3.0317,-2.9782,-2.9161,-2.804,-2.777,-2.7701,-2.7701,-2.7701,-2.7642,-2.7526,-2.7496,-2.7496,-2.7496,-2.7496,-2.7496,-2.7496,-2.7496,-2.7105,-2.6161,-2.5749,-2.504,-2.3902,-2.3819,-2.3457,-2.2716,-2.2699,-2.2699,-2.2699,-2.2699,-2.2685,-2.2663,-2.3024,-2.3388,0.0,0.0,0.0,0.0,0.0,0.0,0.0,-2.6966,-2.8605,-2.9749,-3.2393,-3.4741,-3.5532,-3.7561,-3.9133,-3.9282,-3.9812,-4.0194,-4.0194,-4.031,-4.0923,-4.2339,-4.4172,-4.5291,-4.5202,-4.641,-4.7119,-4.6952,-4.6444,-4.6075,-4.5923,-4.5196,-4.475,-4.4615,-4.4615,-4.4615,-4.4615,-4.4615,-4.4615,-4.4581,-4.3031,-4.2286,-4.2236,-4.0773,-4.0096,-4.0096,-4.0096,-4.0096,-4.0096,-4.0096,-4.0096,-4.0028,-3.9276,-3.8903,-3.8768,-3.8616,-3.7828,-3.6778,-3.6626,-3.6146,-3.56,-3.56,-3.56,-3.56,-3.56,-3.56,-3.56,-3.56,-3.56,-3.5284,-3.3918,-3.3569,-3.324,-3.1863,-3.1579,-3.1617,-3.1727,-3.1781,-3.1576,-3.0834,-3.0179,-2.9455,-2.8558,-2.7902,-2.7471,-2.7316,-2.7299,-2.7299,-2.7299,-2.7299,-2.7299,-2.7299,-2.7299,-2.7299,-2.7299,-2.7161,-2.6799,-2.6128,-2.5803,-2.4821,-2.2965,-2.3313,-2.2986,-2.1799,-2.2366,-2.2659,-2.2659,-2.2659,-2.2632,-2.2613,-2.3322,-2.375,-2.2808,-2.2643,-2.3107,-2.4747,-2.5719,-2.6737,0.0,-3.0083,-3.1255,-3.1997,-3.3775,-3.5557,-3.6826,-3.7771,-3.8543,-3.9199,-3.9365,-3.9431,-3.9431,-3.9995,-4.0459,-4.0652,-4.3281,-4.5083,-4.5185,-4.7244,-4.8565,-4.8548,-4.7997,-4.7378,-4.6701,-4.5974,-4.528,-4.4632,-4.4615,-4.4615,-4.4615,-4.4615,-4.4615,-4.4581,-4.3031,-4.2286,-4.2236,-4.0773,-4.0096,-4.0096,-4.0096,-4.0096,-4.0096,-4.0096,-4.0096,-4.0028,-3.9276,-3.8599,-3.7939,-3.7303,-3.6948,-3.6711,-3.5994,-3.5667,-3.56,-3.56,-3.56,-3.56,-3.56,-3.56,-3.56,-3.56,-3.56,-3.5245,-3.3795,-3.3507,-3.3237,-3.1691,-3.1485,-3.1598,-3.1617,-3.1709,-3.1576,-3.0834,-3.0645,-3.0093,-2.8644,-2.8334,-2.804,-2.7385,-2.7299,-2.7299,-2.7299,-2.7299,-2.7299,-2.7299,-2.7299,-2.7299,-2.7299,-2.6644,-2.6197,-2.6109,-2.476,-2.3858,-2.3601,-2.2983,-2.2562,-2.2409,-2.2477,-2.2528,-2.2528,-2.2528,-2.2528,-2.2532,-2.321,-2.3881,-2.4343,-2.4657,-2.5151,-2.5974,-2.726,-2.8573,-2.9412,-3.09,-3.2228,-3.2799,-3.5145,-3.7104,-3.7183,-3.8444,-3.9421,-3.9332,-3.9663,-3.9796,-3.9365,-4.0266,-4.0663,-3.9862,-4.2377,-4.4361,-4.485,-4.6871,-4.8298,-4.8593,-4.8172,-4.7784,-4.7462,-4.6346,-4.5568,-4.5246,-4.4835,-4.4615,-4.4615,-4.4615,-4.435,-4.3893,-4.2811,-4.2066,-4.1627,-4.0587,-4.0096,-4.0096,-4.0096,-4.0096,-4.0079,-3.9656,-3.9469,-3.9351,-3.8183,-3.754,-3.7263,-3.7398,-3.6874,-3.6129,-3.6248,-3.5994,-3.56,-3.56,-3.56,-3.56,-3.56,-3.56,-3.56,-3.56,-3.5301,-3.4726,-3.3677,-3.3126,-3.2595,-3.155,-3.1408,-3.154,-3.1579,-3.1709,-3.1714,-3.1386,-3.061,-2.9799,-2.9161,-2.8334,-2.7661,-2.7351,-2.7299,-2.7299,-2.7299,-2.7299,-2.7299,-2.7299,-2.7299,-2.7299,-2.7299,-2.6988,-2.6419,-2.5523,-2.4795,-2.3996,-2.309,-2.2696,-2.2501,-2.2501,-2.2501,-2.2501,-2.2501,-2.2501,-2.2487,-2.2449,-2.3184,-2.3871,-2.5128,-2.5959,-2.6632,-2.6836,-2.8502,-3.0073,-2.9879,-3.1364,-3.2813,-3.2947,-3.5414,-3.7404,-3.6943,-3.8629,-3.9995,-3.9663,-4.0393,-4.0647,-3.973,-4.063,-4.0961,-3.9763,-4.1607,-4.335,-4.4307,-4.6333,-4.7723,-4.818,-4.8147,-4.8078,-4.7906,-4.6904,-4.6126,-4.572,-4.5179,-4.4818,-4.4615,-4.4615,-4.4327,-4.3724,-4.276,-4.2016,-4.1474,-4.0536,-4.0096,-4.0096,-4.0096,-4.0096,-4.0062,-3.9512,-3.9174,-3.887,-3.7608,-3.6981,-3.6846,-3.7161,-3.6546,-3.5667,-3.6265,-3.6096,-3.56,-3.56,-3.56,-3.56,-3.56,-3.56,-3.56,-3.56,-3.5081,-3.432,-3.3592,-3.2848,-3.2127,-3.1441,-3.1368,-3.1481,-3.1559,-3.1671,-3.1763,-3.18,-3.0903,-3.0006,-2.9575,-2.861,-2.7764,-2.7351,-2.7299,-2.7299,-2.7299,-2.7299,-2.7299,-2.7299,-2.7299,-2.7299,-2.7299,-2.7092,-2.6473,-2.5355,-2.4817,-2.4022,-2.2898,-2.259,-2.2446,-2.2446,-2.2446,-2.2446,-2.2446,-2.2446,-2.2521,-2.2686,-2.343,-2.4147,-2.4455,-2.5576,-2.6761,-2.7405,-2.952,-3.1271,-3.0627,-3.2047,-3.3276,-3.2576,-3.401,-3.5566,-3.613,-3.7929,-3.9564,-4.026,-4.1524,-4.1955,-4.0575,-4.0961,-4.1143,-4.0459,-4.1011,-4.2054,-4.3482,-4.5804,-4.7289,-4.7414,-4.8286,-4.8526,-4.7922,-4.7838,-4.7192,-4.5754,-4.5686,-4.5314,-4.4615,-4.4615,-4.4598,-4.4564,-4.3041,-4.2286,-4.2202,-4.0773,-4.0096,-4.0096,-4.0096,-4.0096,-4.0096,-4.0079,-3.9656,-3.892,-3.8159,-3.7432,-3.6711,-3.596,-3.5633,-3.56,-3.5616,-3.5616,-3.56,-3.56,-3.56,-3.56,-3.56,-3.56,-3.56,-3.56,-3.5081,-3.432,-3.3592,-3.2848,-3.2107,-3.1396,-3.1271,-3.1351,-3.1462,-3.1559,-3.1635,-3.1764,-3.1765,-3.1265,-2.9765,-2.9472,-2.8954,-2.7523,-2.7299,-2.7299,-2.7299,-2.7299,-2.7299,-2.7299,-2.7299,-2.7299,-2.7299,-2.6575,-2.6096,-2.5985,-2.4489,-2.3596,-2.3476,-2.2725,-2.231,-2.231,-2.231,-2.231,-2.231,-2.231,-2.2665,-2.3376,-2.4135,-2.4863,-2.5068,-2.6572,-2.8083,-2.8768,-3.0223,-3.1451,-3.1212,-3.1675,-3.2311,-3.2827,-3.3833,-3.4915,-3.588,-3.7446,-3.8808,-3.9564,-4.1259,-4.2142,-4.121,-4.2092,-4.2406,-4.121,-4.1707,-4.2307,-4.2804,-4.4607,-4.6143,-4.7206,-4.7771,-4.8209,-4.8492,-4.8129,-4.7462,-4.6464,-4.5957,-4.5348,-4.4615,-4.4062,-4.3555,-4.3047,-4.1568,-4.084,-4.0823,-4.0333,-4.0096,-4.0096,-4.0096,-4.0096,-4.0028,-3.9039,-3.8481,-3.8142,-3.6867,-3.6208,-3.5977,-3.5701,-3.56,-3.56,-3.56,-3.56,-3.56,-3.56,-3.56,-3.56,-3.56,-3.56,-3.5498,-3.5013,-3.4336,-3.3592,-3.2848,-3.2124,-3.1495,-3.1258,-3.1252,-3.1351,-3.1462,-3.154,-3.1617,-3.1671,-3.1331,-3.0885,-3.028,-2.9386,-2.8437,-2.7437,-2.7299,-2.7299,-2.7299,-2.7299,-2.7299,-2.7299,-2.7299,-2.7299,-2.7299,-2.6976,-2.655,-2.6037,-2.4906,-2.4032,-2.3527,-2.2742,-2.2296,-2.2296,-2.2296,-2.2296,-2.2296,-2.2296,-2.2682,-2.341,-2.3646,-2.4425,-2.6004,-2.7425,-2.8801,-2.9684,-3.0731,-3.1493,-3.1438,-3.1449,-3.1753,-3.2887,-3.332,-3.3986,-3.5696,-3.6771,-3.7831,-3.91,-4.1094,-4.2324,-4.1844,-4.3052,-4.3532,-4.2324,-4.2589,-4.2886,-4.2886,-4.4099,-4.5433,-4.6695,-4.7465,-4.8171,-4.8753,-4.8425,-4.7774,-4.6819,-4.6346,-4.5466,-4.4181,-4.3673,-4.2912,-4.1897,-4.0933,-4.0367,-4.0096,-4.0096,-4.0096,-4.0096,-4.0096,-4.0096,-4.0011,-3.8785,-3.8142,-3.7787,-3.6518,-3.5836,-3.56,-3.56,-3.56,-3.56,-3.56,-3.56,-3.56,-3.56,-3.56,-3.56,-3.56,-3.5414,-3.5115,-3.4624,-3.3778,-3.2899,-3.2429,-3.1752,-3.119,-3.119,-3.1232,-3.1293,-3.1387,-3.1447,-3.1504,-3.1559,-3.1275,-3.0917,-3.057,-2.9334,-2.8144,-2.7402,-2.7299,-2.7299,-2.7299,-2.7299,-2.7299,-2.7299,-2.7299,-2.7299,-2.7299,-2.7184,-2.6776,-2.6007,-2.5115,-2.4258,-2.35,-2.2714,-2.2296,-2.2296,-2.2296,-2.2431,-2.2699,-2.2699,-2.3207,-2.4188,-2.4188,-2.4847,-2.7091,-2.8154,-2.8996,-3.0208,-3.0972,-3.1429,-3.1277,-3.1255,-3.157,-3.2682,-3.2336,-3.2657,-3.5283,-3.5876,-3.6655,-3.8834,-4.1077,-4.2555,-4.2589,-4.3843,-4.4473,-4.3731,-4.3615,-4.3598,-4.3598,-4.4307,-4.5144,-4.6029,-4.7378,-4.8322,-4.8755,-4.8736,-4.8124,-4.6836,-4.6752,-4.5669,-4.3409,-4.3325,-4.2564,-4.1136,-4.1136,-4.0781,-4.0096,-4.0096,-4.0096,-4.0096,-4.0096,-4.0079,-3.9994,-3.9242,-3.8514,-3.777,-3.7032,-3.6265,-3.56,-3.56,-3.56,-3.56,-3.56,-3.56,-3.56,-3.56,-3.56,-3.56,-3.56,-3.5081,-3.4489,-3.4438,-3.3444,-3.2344,-3.2259,-3.1752,-3.1241,-3.1207,-3.119,-3.123,-3.1293,-3.1295,-3.1351,-3.1462,-3.1557,-3.1358,-3.062,-2.9369,-2.8213,-2.7471,-2.7316,-2.7299,-2.7299,-2.7299,-2.7299,-2.7299,-2.7299,-2.7299,-2.7299,-2.7168,-2.6762,-2.5997,-2.5101,-2.4279,-2.3528,-2.2719,-2.2313,-2.2347,-2.2347,-2.2699,-2.3393,-2.3427,-2.4205,-2.5592,-2.5592,-2.5998,-2.7465,-2.8798,-3.0088,-3.0417,-3.0642,-3.0745,-3.0704,-3.0635,-3.0753,-3.1431,-3.1325,-3.143,-3.2518,-3.4071,-3.5727,-3.7384,-4.0845,-4.3499,-4.4059,-4.4937,-4.5235,-4.4506,-4.3943,-4.3598,-4.3598,-4.4771,-4.5614,-4.5844,-4.6866,-4.771,-4.8307,-4.7981,-4.7385,-4.6608,-4.6052,-4.4985,-4.3409,-4.2293,-4.1305,-4.0383,-4.0383,-4.0282,-4.0096,-4.0096,-4.0096,-4.0096,-4.0096,-3.9791,-3.9208,-3.8481,-3.7753,-3.6992,-3.6214,-3.5769,-3.56,-3.56,-3.56,-3.56,-3.56,-3.56,-3.56,-3.56,-3.56,-3.56,-3.56,-3.5081,-3.4387,-3.3846,-3.3406,-3.2865,-3.1765,-3.1752,-3.1887,-3.1326,-3.119,-3.123,-3.1293,-3.1295,-3.1315,-3.1351,-3.1445,-3.1298,-3.0619,-2.9799,-2.8972,-2.823,-2.7644,-2.7299,-2.7299,-2.7299,-2.7299,-2.7299,-2.7299,-2.7299,-2.7299,-2.7121,-2.6938,-2.6734,-2.5346,-2.4675,-2.5033,-2.3277,-2.2564,-2.3105,-2.3122,-2.3207,-2.3393,-2.3949,-2.4711,-2.5592,-2.5592,-2.5998,-2.8648,-2.9669,-3.0507,-3.0507,-3.0674,-3.0679,-3.0009,-2.9811,-2.9883,-3.0282,-2.9873,-2.9778,-3.0901,-3.2663,-3.4518,-3.6324,-3.9769,-4.2783,-4.4456,-4.5052,-4.5268,-4.5185,-4.4539,-4.3976,-4.3631,-4.4937,-4.5798,-4.5798,-4.6887,-4.7732,-4.8178,-4.7908,-4.7498,-4.6915,-4.6236,-4.4923,-4.2946,-4.1779,-4.0832,-4.0096,-4.0096,-4.0096,-4.0096,-4.0096,-4.0096,-4.0096,-4.0096,-3.969,-3.8937,-3.821,-3.7466,-3.6728,-3.5904,-3.56,-3.56,-3.56,-3.56,-3.56,-3.56,-3.56,-3.56,-3.56,-3.56,-3.56,-3.56,-3.4878,-3.3998,-3.3914,-3.3423,-3.273,-3.1904,-3.1989,-3.2107,-3.1376,-3.119,-3.121,-3.1252,-3.1271,-3.1254,-3.1295,-3.1351,-3.1223,-3.0581,-2.9848,-2.9128,-2.8423,-2.7683,-2.7233,-2.7282,-2.7299,-2.7299,-2.7299,-2.7299,-2.7282,-2.7217,-2.7072,-2.6838,-2.6465,-2.5214,-2.4541,-2.4628,-2.3139,-2.2482,-2.2919,-2.2919,-2.3241,-2.3881,-2.4305,-2.5049,-2.6082,-2.6082,-2.6302,-2.9924,-3.0563,-3.0724,-3.0633,-3.094,-3.0876,-2.9352,-2.9011,-2.908,-2.9137,-2.8436,-2.8286,-2.9914,-3.1504,-3.3309,-3.5628,-3.8477,-4.142,-4.4274,-4.4688,-4.492,-4.5566,-4.4986,-4.4307,-4.3648,-4.4854,-4.5682,-4.5781,-4.7073,-4.795,-4.8163,-4.808,-4.7743,-4.7144,-4.6424,-4.4838,-4.232,-4.1576,-4.0832,-4.0096,-4.0096,-4.0096,-4.0096,-4.0096,-4.0096,-4.0096,-3.9994,-3.9554,-3.8802,-3.8058,-3.7313,-3.6552,-3.5853,-3.56,-3.56,-3.56,-3.56,-3.56,-3.56,-3.56,-3.56,-3.56,-3.56,-3.56,-3.56,-3.4636,-3.3677,-3.432,-3.3512,-3.2446,-3.2446,-3.2378,-3.2141,-3.1515,-3.1258,-3.119,-3.119,-3.119,-3.123,-3.1274,-3.1295,-3.1128,-3.0607,-2.9791,-2.9006,-2.8408,-2.7635,-2.7135,-2.7266,-2.7282,-2.7299,-2.7299,-2.7282,-2.7233,-2.7119,-2.7023,-2.6652,-2.5908,-2.5098,-2.4406,-2.3849,-2.2936,-2.2496,-2.2584,-2.2499,-2.3071,-2.4355,-2.4558,-2.5303,-2.6556,-2.664,-2.6691,-2.9666,-3.0894,-3.191,-3.1316,-3.1156,-3.0759,-2.932,-2.8879,-2.8624,-2.8042,-2.8112,-2.8381,-2.8704,-3.0427,-3.2707,-3.5545,-3.8477,-4.142,-4.4274,-4.4688,-4.4738,-4.4901,-4.4241,-4.3731,-4.3615,-4.439,-4.5135,-4.5748,-4.6593,-4.7355,-4.8,-4.7453,-4.6666,-4.5607,-4.4397,-4.3288,-4.2303,-4.1576,-4.0832,-4.0096,-4.0096,-4.0096,-4.0096,-4.0096,-4.0096,-4.0079,-3.9469,-3.8768,-3.8041,-3.728,-3.6518,-3.5785,-3.565,-3.56,-3.56,-3.56,-3.56,-3.56,-3.56,-3.56,-3.56,-3.56,-3.56,-3.56,-3.56,-3.5013,-3.4336,-3.4455,-3.388,-3.322,-3.322,-3.2767,-3.2276,-3.2141,-3.165,-3.119,-3.119,-3.119,-3.121,-3.123,-3.1254,-3.1261,-3.1162,-3.0061,-2.916,-2.904,-2.7928,-2.7119,-2.7135,-2.7233,-2.7299,-2.7299,-2.7201,-2.7135,-2.7103,-2.6991,-2.6841,-2.6706,-2.5877,-2.5625,-2.6099,-2.4239,-2.3509,-2.4118,-2.3511,-2.3325,-2.3579,-2.4814,-2.5541,-2.5812,-2.642,-2.6691,-3.0117,-3.1207,-3.2228,-3.1524,-3.1483,-3.1072,-2.9004,-2.8638,-2.8341,-2.6811,-2.6694,-2.6972,-2.721,-2.9314,-3.173,-3.3922,-3.6423,-3.9371,-4.3048,-4.2916,-4.3028,-4.4506,-4.4059,-4.3598,-4.3598,-4.4274,-4.5017,-4.5732,-4.6477,-4.7057,-4.7404,-4.6725,-4.5789,-4.4553,-4.3975,-4.3009,-4.1623,-4.1347,-4.0832,-4.0096,-4.0096,-4.0096,-4.0096,-4.0096,-4.0096,-4.0062,-3.9334,-3.8582,-3.7838,-3.7117,-3.6315,-3.56,-3.56,-3.56,-3.56,-3.56,-3.56,-3.56,-3.56,-3.56,-3.56,-3.56,-3.56,-3.56,-3.56,-3.5081,-3.4573,-3.4962,-3.4539,-3.3964,-3.3964,-3.3423,-3.2784,-3.2395,-3.1752,-3.119,-3.119,-3.119,-3.119,-3.119,-3.123,-3.1252,-3.1252,-3.0374,-2.9544,-2.9207,-2.8254,-2.7434,-2.709,-2.7136,-2.7217,-2.7282,-2.7184,-2.7086,-2.7055,-2.6958,-2.6706,-2.6249,-2.5471,-2.5,-2.4983,-2.3951,-2.3577,-2.3915,-2.3966,-2.4169,-2.456,-2.527,-2.5812,-2.6184,-2.6539,-2.6691,-3.057,-3.1506,-3.2377,-3.1578,-3.1852,-3.1552,-2.8709,-2.8512,-2.829,-2.5959,-2.5594,-2.5807,-2.6348,-2.829,-3.0444,-3.2404,-3.4286,-3.7069,-4.1442,-4.121,-4.1558,-4.4158,-4.3959,-4.3598,-4.3598,-4.4125,-4.4771,-4.55,-4.6096,-4.656,-4.6874,-4.5897,-4.4912,-4.3931,-4.3697,-4.2763,-4.1021,-4.1083,-4.0806,-4.0096,-4.0096,-4.0096,-4.0096,-4.0096,-4.0096,-4.0062,-3.9334,-3.8582,-3.7838,-3.7117,-3.6315,-3.56,-3.56,-3.56,-3.56,-3.56,-3.56,-3.56,-3.56,-3.56,-3.56,-3.56,-3.56,-3.56,-3.56,-3.5199,-3.4861,-3.543,-3.4962,-3.4303,-3.4455,-3.3711,-3.278,-3.2209,-3.1633,-3.119,-3.119,-3.119,-3.119,-3.119,-3.119,-3.119,-3.119,-3.0598,-2.9873,-2.9184,-2.8473,-2.7743,-2.706,-2.7039,-2.712,-2.7218,-2.7136,-2.7055,-2.6975,-2.6892,-2.6503,-2.5659,-2.5066,-2.4491,-2.39,-2.3714,-2.3714,-2.3866,-2.4288,-2.4795,-2.5372,-2.5524,-2.5896,-2.6471,-2.6623,-2.6691,-3.0454,-3.1685,-3.2814,-3.1616,-3.211,-3.2064,-2.8754,-2.8704,-2.8613,-2.6032,-2.583,-2.6348,-2.7083,-2.7415,-2.8707,-3.2155,-3.3425,-3.5545,-3.9978,-4.1011,-4.1905,-4.3499,-4.3631,-4.3598,-4.3598,-4.3648,-4.4026,-4.4738,-4.4854,-4.5483,-4.6825,-4.4937,-4.3837,-4.3898,-4.261,-4.1615,-4.1021,-4.1004,-4.0712,-4.0096,-4.0096,-4.0096,-4.0096,-4.0096,-4.0096,-4.0062,-3.9334,-3.8582,-3.7838,-3.7117,-3.6315,-3.56,-3.56,-3.56,-3.56,-3.56,-3.56,-3.56,-3.56,-3.56,-3.56,-3.56,-3.56,-3.56,-3.56,-3.5549,-3.5498,-3.5583,-3.4585,-3.366,-3.432,-3.2949,-3.1376,-3.1309,-3.1241,-3.119,-3.119,-3.119,-3.119,-3.119,-3.119,-3.119,-3.119,-3.0598,-2.9854,-2.9111,-2.8438,-2.7743,-2.6994,-2.6975,-2.7007,-2.7041,-2.7024,-2.6975,-2.6909,-2.6792,-2.6403,-2.5659,-2.5541,-2.5473,-2.5406,-2.4762,-2.4695,-2.5389,-2.4812,-2.4525,-2.4609,-2.527,-2.5626,-2.5727,-2.6387,-2.6691,-3.0993,-3.2282,-3.3531,-3.2657,-3.2196,-3.1253,-2.8811,-2.8313,-2.7753,-2.5589,-2.5717,-2.6285,-2.6584,-2.7365,-2.8575,-3.041,-3.1702,-3.3557,-3.6638,-3.7698,-3.904,-4.1392,-4.2038,-4.2605,-4.3515,-4.3184,-4.3052,-4.3363,-4.3794,-4.4108,-4.4257,-4.34,-4.275,-4.2406,-4.1494,-4.0775,-4.0217,-4.0296,-4.0247,-4.0096,-4.0096,-4.0096,-4.0096,-4.0096,-4.0096,-4.0062,-3.9334,-3.8819,-3.8464,-3.7303,-3.6626,-3.6265,-3.5785,-3.56,-3.56,-3.56,-3.56,-3.56,-3.56,-3.56,-3.56,-3.56,-3.56,-3.56,-3.56,-3.56,-3.56,-3.56,-3.4878,-3.4134,-3.4421,-3.319,-3.1752,-3.1309,-3.119,-3.119,-3.119,-3.119,-3.119,-3.119,-3.119,-3.119,-3.119,-3.0954,-3.0514,-2.977,-2.9062,-2.8318,-2.7538,-2.7165,-2.6909,-2.6842,-2.6892,-2.6926,-2.6893,-2.6792,-2.6387,-2.5643,-2.5592,-2.5406,-2.4965,-2.5067,-2.5304,-2.5592,-2.5744,-2.5828,-2.5828,-2.5883,-2.6034,-2.6268,-2.6319,-2.6333,-3.1164,-3.2328,-3.3418,-3.3002,-3.2165,-3.0905,-2.8604,-2.7939,-2.7265,-2.5294,-2.5478,-2.6043,-2.6168,-2.7048,-2.8042,-2.8969,-3.0125,-3.1863,-3.4535,-3.5528,-3.7003,-3.9763,-4.068,-4.1508,-4.2568,-4.2357,-4.2158,-4.2158,-4.2655,-4.2704,-4.2191,-4.2005,-4.164,-4.1127,-4.0541,-4.0044,-3.9625,-3.9755,-3.991,-4.0037,-4.0087,-4.0096,-4.0096,-4.0096,-4.0096,-4.0079,-3.9554,-3.9191,-3.8903,-3.7895,-3.7202,-3.6745,-3.618,-3.5825,-3.56,-3.56,-3.56,-3.56,-3.56,-3.56,-3.56,-3.56,-3.56,-3.56,-3.56,-3.56,-3.56,-3.56,-3.4928,-3.4066,-3.3626,-3.275,-3.1853,-3.1309,-3.119,-3.119,-3.119,-3.119,-3.119,-3.119,-3.119,-3.119,-3.119,-3.119,-3.0954,-3.0226,-2.9465,-2.8722,-2.7908,-2.7233,-2.6792,-2.6708,-2.6792,-2.6842,-2.6842,-2.6742,-2.6387,-2.5643,-2.5592,-2.5372,-2.4846,-2.5321,-2.5694,-2.593,-2.6437,-2.6641,-2.6522,-2.6245,-2.6176,-2.6333,-2.6052,-2.5926,-3.0719,-3.155,-3.2206,-3.213,-3.2139,-3.1338,-2.8046,-2.7717,-2.749,-2.5329,-2.5218,-2.5649,-2.6097,-2.6202,-2.67,-2.8177,-2.8986,-3.0725,-3.4386,-3.5528,-3.682,-3.905,-3.9962,-4.0426,-4.0442,-4.1028,-4.1397,-4.1397,-4.1425,-4.1425,-4.1397,-4.0779,-4.0426,-4.0426,-3.9696,-3.9352,-3.9501,-3.9642,-3.9755,-3.9901,-4.0037,-4.0096,-4.0096,-4.0096,-4.0096,-4.0096,-4.0096,-3.9673,-3.8988,-3.8971,-3.8132,-3.6795,-3.6795,-3.6299,-3.56,-3.56,-3.56,-3.56,-3.56,-3.56,-3.56,-3.56,-3.56,-3.56,-3.56,-3.56,-3.56,-3.56,-3.4535,-3.3085,-3.1613,-3.1207,-3.1207,-3.119,-3.119,-3.119,-3.119,-3.119,-3.119,-3.119,-3.119,-3.119,-3.119,-3.119,-3.0954,-3.0226,-2.9465,-2.8722,-2.7908,-2.7165,-2.6691,-2.6691,-2.6691,-2.6691,-2.6691,-2.6691,-2.6387,-2.5643,-2.5592,-2.5592,-2.5592,-2.5592,-2.5947,-2.6674,-2.6691,-2.6505,-2.6122,-2.6104,-2.589,-2.5521,-2.5503,-2.5503,-2.955,-3.0151,-3.0453,-2.975,-2.9245,-2.8442,-2.6563,-2.616,-2.595,-2.508,-2.5218,-2.5556,-2.5703,-2.6403,-2.7337,-2.8478,-2.9926,-3.1504,-3.3143,-3.4899,-3.6456,-3.7649,-3.9736,-4.0895,-4.0442,-4.0608,-4.0498,-3.9984,-4.0415,-4.0481,-3.9984,-4.026,-4.0409,-4.0409,-3.968,-3.9352,-3.9501,-3.9625,-3.9755,-3.9901,-4.0037,-4.0096,-4.0096,-4.0096,-4.0096,-4.0096,-4.0096,-3.9977,-3.9723,-3.9191,-3.843,-3.7499,-3.7015,-3.6299,-3.56,-3.56,-3.56,-3.56,-3.56,-3.56,-3.56,-3.56,-3.56,-3.56,-3.56,-3.56,-3.538,-3.4366,-3.3761,-3.3068,-3.1579,-3.119,-3.119,-3.119,-3.119,-3.119,-3.119,-3.119,-3.119,-3.119,-3.119,-3.119,-3.119,-3.119,-3.1123,-3.0886,-3.0226,-2.9668,-2.9396,-2.8246,-2.7452,-2.7452,-2.6996,-2.6691,-2.6691,-2.6691,-2.659,-2.637,-2.6353,-2.6353,-2.6353,-2.6353,-2.632,-2.6298,-2.628,-2.6087,-2.5689,-2.5408,-2.5218,-2.5098,-2.5098,-2.5098,-2.8812,-2.915,-2.9204,-2.9093,-2.8233,-2.7134,-2.6145,-2.5455,-2.4967,-2.4719,-2.4863,-2.5082,-2.5237,-2.6233,-2.7243,-2.7867,-2.9547,-3.1118,-3.215,-3.3955,-3.5744,-3.7334,-3.9106,-4.015,-4.0011,-3.9995,-3.9796,-3.9332,-3.973,-3.9779,-3.9332,-3.9746,-3.9995,-3.9995,-3.9547,-3.9325,-3.9405,-3.9599,-3.9729,-3.9824,-4.0011,-4.0096,-4.0096,-4.0096,-4.0096,-4.0096,-4.0096,-4.0096,0.0,-3.9605,-3.8971,-3.8244,-3.7499,-3.6738,-3.6028,-3.5701,-3.56,-3.56,-3.56,-3.56,-3.56,-3.56,-3.56,-3.56,-3.56,-3.56,-3.5295,-3.3829,-3.3406,-3.3068,-3.1579,-3.119,-3.119,-3.119,-3.119,-3.119,-3.119,-3.119,-3.119,-3.119,-3.119,-3.119,-3.119,-3.119,-3.119,-3.119,-3.0581,-3.0108,-3.0108,-2.9025,-2.8128,-2.7841,-2.7384,-2.6996,-2.6725,-2.6691,-2.6691,-2.6691,-2.6691,-2.6641,-2.6487,-2.647,-2.628,-2.5872,-2.5872,-2.567,-2.5275,-2.4863,-2.4679,-2.4679,-2.4679,-2.4679,0.0,-2.8356,-2.817,-2.9414,-2.8459,-2.7041,-2.6356,-2.5371,0.0,-2.4336,-2.4302,-2.4441,-2.4862,-2.5842,-2.6636,-2.6762,-2.8345,-3.0075,-3.1548,-3.3077,-3.5081,-3.7947,-3.8295,-3.8543,-3.9232,-3.9299,-3.9299,-3.9299,-3.9299,-3.9299,-3.9299,-3.9299,-3.9299,-3.9299,-3.9299,-3.9299,-3.9299,-3.9547,-3.9677,-3.9677,-3.9961,-4.0087,-4.0087,-4.0113,-4.0096,-4.0096,-4.0096,-4.0096,-4.0096,-4.0096,-3.9639,-3.8853,-3.8176,-3.7415,-3.6626,-3.5893,-3.56,-3.56,-3.56,-3.56,-3.56,-3.56,-3.56,-3.56,-3.56,-3.5566,-3.5228,-3.3791,-3.3372,-3.3,-3.1562,-3.119,-3.119,-3.119,-3.119,-3.119,-3.119,-3.119,-3.119,-3.119,-3.119,-3.119,-3.119,-3.119,-3.119,-3.119,-3.0615,-3.0192,-3.0192,-2.9533,-2.8755,-2.7976,-2.7841,-2.7503,-2.6759,-2.6691,-2.6691,-2.6657,-2.6657,-2.6487,-2.607,-2.6052,-2.5905,-2.5546,-2.5492,-2.5266,-2.4859,-2.4472,-2.4302,-2.4302,-2.4302,-2.4333,-2.6794,0.0,-2.5565,-2.5234,-2.5205,-2.5078,0.0,-2.4425,-2.4544,-2.4336,-2.4302,-2.4492,-2.5091,-2.5977,-2.7042,-2.8381,-3.0006,-3.1598,-3.3077,-3.5048,-3.7003,-3.8808,-3.905,-3.9116,-3.9282,-3.9299,-3.9299,-3.9299,-3.9299,-3.9299,-3.9299,-3.9299,-3.9299,-3.9299,-3.9299,-3.9299,-3.9299,-3.9458,-3.9554,-3.9537,-3.9824,-3.9952,-3.9935,-4.0062,-4.0096,-4.0096,-4.0096,-4.0096,-4.0096,-4.0096,-3.9326,-3.8142,-3.7973,-3.7053,-3.5853,-3.5667,-3.56,-3.56,-3.56,-3.56,-3.56,-3.56,-3.56,-3.56,-3.56,-3.5216,-3.4573,-3.366,-3.2983,-3.2361,-3.1427,-3.119,-3.119,-3.119,-3.119,-3.119,-3.119,-3.119,-3.119,-3.119,-3.119,-3.119,-3.119,-3.119,-3.119,-3.119,-3.1055,-3.0937,-3.0937,-3.0294,-2.955,-2.8789,-2.818,-2.7503,-2.6759,-2.6691,-2.6573,-2.6263,-2.6245,-2.6052,-2.567,-2.5652,-2.5705,-2.5798,-2.5503,-2.5062,-2.4431,-2.4343,-2.4302,-2.4302,-2.4302,-2.4558,-2.5873,-2.5782,-2.5754,-2.5485,-2.5255,-2.5038,-2.4986,-2.4537,-2.4109,-2.4006,-2.3973,-2.4186,-2.4847,-2.5829,-2.6994,-2.8468,-3.0154,-3.212,-3.4478,-3.6125,-3.7649,-3.9133,-3.9299,-3.9299,-3.9299,-3.9299,-3.9299,-3.9299,-3.9299,-3.9299,-3.9299,-3.9299,-3.9299,-3.9299,-3.9299,-3.9299,-3.9299,-3.9432,-3.9501,-3.9501,-3.9772,-3.9901,-3.9901,-4.0037,-4.0096,-4.0096,-4.0096,-4.0096,-4.0079,-3.974,-3.9106,-3.8345,-3.7652,-3.6891,-3.6113,-3.5735,-3.56,-3.56,-3.56,-3.56,-3.56,-3.56,-3.56,-3.5532,-3.5166,-3.4542,-3.3866,-3.3503,-3.2865,-3.2141,-3.1396,-3.119,-3.119,-3.119,-3.119,-3.119,-3.119,-3.119,-3.119,-3.119,-3.119,-3.119,-3.119,-3.119,-3.119,-3.119,-3.119,-3.119,-3.119,-3.0852,-3.0234,-2.9305,-2.8779,-2.8152,-2.7181,-2.68,-2.647,-2.612,-2.6104,-2.5835,-2.5237,-2.5218,-2.5215,-2.5165,-2.558,-2.5318,-2.4302,-2.4604,-2.4758,-2.4758,-2.4758,-2.5112,-2.5556,-2.627,-2.7188,-2.7146,-2.6437,-2.5854,-2.6213,-2.4986,-2.3729,-2.3625,-2.3684,-2.3999,-2.4754,-2.5955,-2.7183,-2.8259,-3.0108,-3.2516,-3.572,-3.6804,-3.7765,-3.9133,-3.9299,-3.9299,-3.9299,-3.9299,-3.9299,-3.9299,-3.9299,-3.9299,-3.9299,-3.9299,-3.9299,-3.9299,-3.9299,-3.9299,-3.9299,-3.9405,-3.9475,-3.9475,-3.972,-3.9849,-3.9849,-3.9986,-4.0037,-4.0037,-4.0045,-3.9995,-3.9842,-3.9242,-3.8853,-3.8531,-3.7303,-3.6728,-3.6518,-3.5836,-3.56,-3.56,-3.56,-3.56,-3.56,-3.56,-3.5532,-3.5307,-3.461,-3.3859,-3.327,-3.3187,-3.2655,-3.1968,-3.136,-3.119,-3.119,-3.119,-3.119,-3.119,-3.119,-3.119,-3.119,-3.119,-3.119,-3.119,-3.119,-3.119,-3.119,-3.119,-3.119,-3.119,-3.119,-3.1151,-3.065,-2.9503,-2.9336,-2.8821,-2.7712,-2.7046,-2.6503,-2.6104,-2.6072,-2.5788,-2.5154,-2.5244,-2.5076,-2.4625,-2.5887,-2.5903,-2.4625,-2.5195,-2.5487,-2.5487,-2.5487,-2.5819,-2.6128,-2.7284,-2.8007,-2.5643,-2.5764,-2.6183,-2.5128,-2.4664,-2.4291,-2.3729,-2.4036,-2.4814,-2.6063,-2.7659,-2.9038,-2.984,-3.2006,-3.4381,-3.6613,-3.7582,-3.8361,-3.9199,-3.9299,-3.9299,-3.9299,-3.9299,-3.9299,-3.9299,-3.9299,-3.9299,-3.9299,-3.9299,-3.9299,-3.9299,-3.9299,-3.9299,-3.9299,-3.9325,-3.9325,-3.9325,-3.9501,-3.9563,-3.958,-3.9703,-3.9755,-3.9781,-3.9884,-3.9573,-3.9,-3.8989,-3.8244,-3.7134,-3.6897,-3.6366,-3.5752,-3.565,-3.56,-3.56,-3.56,-3.56,-3.56,-3.56,-3.5149,-3.456,-3.4459,-3.3816,-3.2986,-3.2408,-3.1732,-3.1207,-3.1205,-3.119,-3.119,-3.119,-3.119,-3.119,-3.119,-3.119,-3.119,-3.119,-3.119,-3.119,-3.119,-3.119,-3.119,-3.119,-3.119,-3.119,-3.119,-3.0858,-3.0294,-2.9483,-2.9038,-2.8491,-2.7671,-2.7494,-2.7001,-2.6002,-2.5934,-2.5994,-2.6158,-2.6724,-2.6709,-2.6094,-2.6842,-2.6857,-2.6094,-2.618,-2.6226,-2.6226,-2.6226,-2.658,-2.5812,-2.6725,-2.7536,-2.6397,-2.7191,-2.8053,-2.744,-2.6467,-2.56,-2.5285,-2.5181,-2.5555,-2.6896,-2.7795,-2.8987,-3.1009,-3.3809,-3.5931,-3.6492,-3.7508,-3.8329,-3.8734,-3.9094,-3.9299,-3.9299,-3.9299,-3.9299,-3.9299,-3.9299,-3.9299,-3.9299,-3.9299,-3.9299,-3.9299,-3.9299,-3.9299,-3.9299,-3.9299,-3.9299,-3.9299,-3.9448,-3.9501,-3.9501,-3.9625,-3.9703,-3.9703,-3.9849,-3.948,-3.879,-3.8492,-3.777,-3.6761,-3.6315,-3.5943,-3.56,-3.56,-3.56,-3.56,-3.56,-3.56,-3.56,-3.5549,-3.5015,-3.4297,-3.3745,-3.3021,-3.2238,-3.1508,-3.1444,-3.1517,-3.1193,-3.1151,-3.119,-3.119,-3.119,-3.119,-3.119,-3.119,-3.119,-3.119,-3.119,-3.119,-3.119,-3.119,-3.119,-3.119,-3.119,-3.1112,-3.0841,-3.0621,-3.0178,-2.934,-2.903,-2.8675,-2.8077,-2.7699,-2.7217,-2.6535,-2.5931,-2.5805,-2.6387,-2.7042,-2.7072,-2.6418,-2.7411,-2.7411,-2.6349,-2.6749,-2.6934,-2.6934,-2.6934,-2.7288,-2.5491,-2.5966,-2.6726,-2.7017,-2.8005,-2.9049,-2.9633,-2.8111,-2.6677,-2.6991,-2.6662,-2.6617,-2.7645,-2.8181,-2.9358,-3.2006,-3.4671,-3.6316,-3.5954,-3.7116,-3.8013,-3.8084,-3.8662,-3.9077,-3.9077,-3.9077,-3.9121,-3.9299,-3.9299,-3.9299,-3.9299,-3.9299,-3.9299,-3.9299,-3.9481,-3.9564,-3.9564,-3.9564,-3.9481,-3.9299,-3.9405,-3.9432,-3.9475,-3.9563,-3.9599,-3.9582,-3.9562,-3.9126,-3.8405,-3.7795,-3.7125,-3.6382,-3.5791,-3.5577,-3.56,-3.56,-3.56,-3.56,-3.56,-3.5577,-3.5571,-3.5514,-3.4847,-3.3906,-3.3144,-3.2374,-3.1598,-3.085,-3.1308,-3.1871,-3.1157,-3.1052,-3.1131,-3.1151,-3.1151,-3.1151,-3.119,-3.119,-3.119,-3.119,-3.119,-3.119,-3.119,-3.119,-3.1171,-3.1055,-3.1035,-3.0858,-3.0393,-3.023,-2.9908,-2.9189,-2.8997,-2.8779,-2.842,-2.7796,-2.7388,-2.7337,-2.6202,-2.5949,-2.6826,-2.7349,-2.738,-2.6872,-2.7873,-2.7864,-2.6788,-2.7365,-2.7626,-2.7626,-2.7626,-2.7919,-2.5635,-2.5758,-2.5941,-2.6128,-2.6514,-2.7449,-2.9802,-2.8409,-2.6946,-2.8203,-2.8427,-2.8412,-2.8502,-2.9943,-3.1557,-3.2914,-3.3905,-3.4705,-3.5272,-3.6527,-3.7374,-3.7451,-3.7994,-3.8379,-3.8379,-3.8379,-3.8618,-3.9245,-3.9299,-3.9299,-3.9299,-3.9299,-3.9299,-3.9299,-3.9962,-4.0326,-4.0326,-4.0326,-3.9978,-3.9299,-3.9299,-3.9299,-3.9299,-3.9325,-3.9325,-3.9292,-3.8742,-3.8078,-3.7361,-3.6764,-3.6075,-3.5421,-3.5486,-3.5543,-3.56,-3.56,-3.56,-3.56,-3.56,-3.5549,-3.5514,-3.5492,-3.4365,-3.2984,-3.2912,-3.2309,-3.147,-3.0725,-3.1141,-3.1683,-3.1072,-3.0912,-3.0952,-3.0995,-3.1015,-3.1052,-3.1171,-3.119,-3.119,-3.119,-3.119,-3.119,-3.119,-3.119,-3.1055,-3.0621,-3.0539,-3.0393,-2.9903,-2.9483,-2.9166,-2.9097,-2.87,-2.8444,-2.8411,-2.7796,-2.7665,-2.8259,-2.6995,-2.6834,-2.8211,-2.8304,-2.8304,-2.8273,-2.835,-2.835,-2.8258,-2.8304,-2.8334,-2.8334,-2.8334,-2.835,-2.5149,-2.5338,-2.5851,-2.6835,-2.7005,-2.752,-2.9928,-2.9437,-2.8831,-3.012,-2.965,-2.9136,-2.947,-3.1476,-3.3045,-3.298,-3.4227,-3.5045,-3.4573,-3.5684,-3.6447,-3.6204,-3.7085,-3.7735,-3.7735,-3.808,-3.8407,-3.8645,-3.905,-3.9299,-3.9299,-3.9299,-3.9514,-3.9978,-4.026,-4.0409,-4.0409,-4.0409,-4.0028,-3.9299,-3.9299,-3.9299,-3.9299,-3.9299,-3.905,-3.8593,-3.845,-3.7719,-3.6603,-3.6473,-3.5968,-3.5314,-3.5446,-3.5543,-3.56,-3.56,-3.56,-3.56,-3.5549,-3.5537,-3.5469,-3.5314,-3.418,-3.2895,-3.2807,-3.1911,-3.0853,-3.0572,-3.0746,-3.0958,-3.0799,-3.0851,-3.0912,-3.0932,-3.0955,-3.1015,-3.1055,-3.1151,-3.119,-3.119,-3.119,-3.119,-3.119,-3.0975,-3.0699,-3.0539,-3.0246,-2.9903,-2.9438,-2.9212,-2.8997,-2.87,-2.8517,-2.8411,-2.8411,-2.7796,-2.7688,-2.8365,-2.7519,-2.7411,-2.8365,-2.8411,-2.8411,-2.8411,-2.8411,-2.8411,-2.8411,-2.8411,-2.8411,-2.8411,-2.8411,-2.8627,-2.5059,-2.5187,-2.5794,-2.7028,-2.7368,-2.7947,-2.9974,-2.9942,-2.9934,-3.1437,-3.0542,-2.9682,-3.0319,-3.2008,-3.3129,-3.2598,-3.3993,-3.4854,-3.4091,-3.4953,-3.5599,-3.5354,-3.6337,-3.7041,-3.7071,-3.7442,-3.7793,-3.7994,-3.8423,-3.8788,-3.8969,-3.898,-3.9308,-4.0044,-4.0464,-4.0713,-4.0713,-4.0945,-4.0608,-3.9647,-3.9647,-3.9531,-3.9299,-3.9299,-3.8891,-3.8195,-3.805,-3.7286,-3.6139,-3.5985,-3.5656,-3.5245,-3.5383,-3.5498,-3.5571,-3.56,-3.5577,-3.5571,-3.5514,-3.5446,-3.5337,-3.5175,-3.4066,-3.2829,-3.2741,-3.1669,-3.0506,-3.0506,-3.0506,-3.0526,-3.0609,-3.0692,-3.0773,-3.0831,-3.0895,-3.0975,-3.0995,-3.1112,-3.119,-3.119,-3.119,-3.1151,-3.1015,-3.072,-3.0414,-3.0102,-2.9777,-2.9393,-2.8943,-2.8873,-2.8771,-2.842,-2.8411,-2.8411,-2.8411,-2.798,-2.7919,-2.8381,-2.798,-2.7919,-2.8381,-2.8411,-2.8411,-2.8411,-2.8411,-2.8411,-2.8411,-2.8411,-2.8411,-2.8411,-2.8627,-2.8965,-2.5514,-2.5399,-2.5681,-2.6429,-2.7379,-2.8525,-2.9981,-2.9792,-2.9877,-3.1885,-3.1039,-3.0172,-3.0954,-3.1407,-3.1693,-3.1875,-3.29,-3.3751,-3.3876,-3.4382,-3.4874,-3.515,-3.5752,-3.6212,-3.6352,-3.6384,-3.6662,-3.7324,-3.7383,-3.7648,-3.825,-3.8306,-3.8618,-3.9255,-4.0647,-4.1375,-4.1375,-4.2075,-4.1773,-4.0376,-4.0376,-3.9995,-3.9282,-3.9282,-3.8901,-3.8136,-3.7417,-3.6671,-3.5926,-3.5197,-3.497,-3.5111,-3.5245,-3.5377,-3.5514,-3.5594,-3.5549,-3.5492,-3.5492,-3.5314,-3.5088,-3.5088,-3.4004,-3.2702,-3.2702,-3.1669,-3.0506,-3.0506,-3.0506,-3.0506,-3.0506,-3.0506,-3.0531,-3.0671,-3.081,-3.0912,-3.0975,-3.1095,-3.119,-3.119,-3.119,-3.1055,-3.058,-3.0497,-3.0166,-2.9234,-2.9113,-2.8943,-2.8468,-2.8411,-2.8411,-2.8411,-2.8411,-2.8411,-2.8411,-2.8411,-2.8411,-2.8411,-2.8411,-2.8411,-2.8411,-2.8411,-2.8411,-2.8411,-2.8411,-2.8411,-2.8411,-2.8411,-2.8411,-2.8427,-2.9104,-2.9387,-2.4611,-2.5244,-2.6286,-2.7558,-2.9235,-3.0863,-3.1942,-3.1023,-3.0151,-3.099,-3.1586,-3.1835,-3.1448,-3.2234,-3.2787,-3.2321,-3.2884,-3.325,-3.3005,-3.3183,-3.3215,-3.2982,-3.3675,-3.4191,-3.4207,-3.5141,-3.5767,-3.5978,-3.6878,-3.7441,-3.7526,-3.7538,-3.7829,-3.85,-3.8941,-3.9156,-3.9156,-3.9388,-3.9023,-3.8079,-3.8079,-3.8245,-3.8526,-3.8526,-3.8129,-3.74,-3.6655,-3.5909,-3.5214,-3.4982,-3.497,-3.5111,-3.5245,-3.5377,-3.5514,-3.5594,-3.5549,-3.5492,-3.54,-3.5245,-3.5005,-3.4379,-3.352,-3.2597,-3.2083,-3.125,-3.0506,-3.0506,-3.0506,-3.0506,-3.0506,-3.0506,-3.051,-3.0547,-3.0651,-3.0794,-3.0895,-3.1012,-3.1092,-3.1171,-3.0918,-3.0658,-3.0518,-2.9951,-2.9422,-2.9143,-2.8826,-2.8549,-2.842,-2.8411,-2.8411,-2.8411,-2.8411,-2.8411,-2.8411,-2.8411,-2.8411,-2.8411,-2.8411,-2.8411,-2.8411,-2.8411,-2.8411,-2.8411,-2.8411,-2.8411,-2.8411,-2.8411,-2.8411,-2.8427,-2.9104,-2.9648,-2.5798,-2.6494,-2.7412,-2.887,-3.0444,-3.1742,-3.2296,-3.182,-3.1285,-3.1415,-3.2048,-3.2422,-3.1931,-3.2654,-3.3195,-3.2783,-3.3188,-3.3482,-3.3286,-3.3064,-3.2867,-3.2661,-3.3115,-3.3497,-3.356,-3.463,-3.5321,-3.5321,-3.5907,-3.6327,-3.6486,-3.6229,-3.6477,-3.7377,-3.7682,-3.7969,-3.8186,-3.8493,-3.8112,-3.7102,-3.7417,-3.7466,-3.735,-3.7649,-3.7367,-3.6622,-3.5876,-3.5313,-3.4899,-3.4899,-3.4947,-3.5041,-3.5222,-3.5354,-3.5429,-3.5543,-3.5498,-3.535,-3.4933,-3.4701,-3.4452,-3.3613,-3.2862,-3.2183,-3.173,-3.1085,-3.0506,-3.0506,-3.0363,-3.022,-3.022,-3.0092,-3.0049,-3.0405,-3.0609,-3.0712,-3.081,-3.0932,-3.0975,-3.0858,-3.0658,-3.0393,-3.0016,-2.9467,-2.9044,-2.885,-2.8573,-2.8411,-2.8411,-2.8411,-2.8411,-2.8411,-2.8411,-2.8411,-2.8411,-2.8411,-2.8411,-2.8411,-2.8411,-2.8411,-2.8411,-2.8411,-2.8411,-2.8411,-2.8411,-2.8411,-2.8411,-2.8411,-2.8411,-2.8427,-2.9356,-3.0002,-2.8022,-2.841,-2.874,-3.0162,-3.1101,-3.172,-3.1853,-3.2346,-3.2723,-3.2509,-3.2364,-3.2321,-3.2451,-3.2859,-3.3183,-3.3208,-3.3697,-3.4108,-3.411,-3.3625,-3.3332,-3.3397,-3.3472,-3.3583,-3.3785,-3.4519,-3.5002,-3.5002,-3.4658,-3.4679,-3.5169,-3.4643,-3.4833,-3.5963,-3.6648,-3.7306,-3.7888,-3.8543,-3.8212,-3.692,-3.7582,-3.7201,-3.5926,-3.6671,-3.6605,-3.586,-3.5197,-3.4899,-3.4899,-3.4899,-3.4899,-3.4923,-3.5175,-3.5268,-3.5291,-3.5446,-3.54,-3.5168,-3.4284,-3.3904,-3.3657,-3.2845,-3.215,-3.1598,-3.1515,-3.1035,-3.0506,-3.0506,-3.0156,-2.9793,-2.9793,-2.9438,-2.9325,-3.0156,-3.0468,-3.0551,-3.0551,-3.0716,-3.072,-3.0293,-3.0293,-3.0081,-2.9234,-2.9067,-2.8897,-2.8468,-2.8411,-2.8411,-2.8411,-2.8411,-2.8411,-2.8411,-2.8411,-2.8411,-2.8411,-2.8411,-2.8411,-2.8411,-2.8411,-2.8411,-2.8411,-2.8411,-2.8411,-2.8411,-2.8411,-2.8411,-2.8411,-2.8411,-2.8411,-2.8442,-2.9771,-3.0402,-2.6652,-2.7664,-2.8802,-3.0162,-3.1504,-3.2706,-3.3655,-3.3161,-3.2297,-3.1643,-3.2251,-3.2937,-3.3009,-3.3508,-3.3731,-3.3271,-3.3697,-3.3931,-3.3483,-3.3313,-3.2901,-3.2043,-3.2047,-3.2169,-3.2261,-3.3002,-3.3448,-3.3448,-3.3964,-3.4071,-3.3628,-3.3618,-3.3912,-3.4529,-3.4725,-3.506,-3.5611,-3.576,-3.5678,-3.5379,-3.5528,-3.5446,-3.5164,-3.5909,-3.5827,-3.5131,-3.4965,-3.4899,-3.4899,-3.4899,-3.4899,-3.4923,-3.5065,-3.5152,-3.5175,-3.5291,-3.5268,-3.5035,-3.4278,-3.3904,-3.3574,-3.2266,-3.173,-3.1499,-3.0903,-3.0621,-3.0506,-3.0506,-3.0156,-2.9793,-2.9793,-2.9438,-2.9143,-2.9348,-2.9416,-2.9445,-2.9524,-2.9553,-2.9575,-2.9607,-2.94,-2.9189,-2.8974,-2.8708,-2.8517,-2.8411,-2.8411,-2.8411,-2.8411,-2.8411,-2.8411,-2.8411,-2.8411,-2.8411,-2.8411,-2.8411,-2.8411,-2.8411,-2.8411,-2.8411,-2.8411,-2.8411,-2.8411,-2.8411,-2.8411,-2.8411,-2.8411,-2.8411,-2.8411,-2.8442,-2.9771,-3.0402,-2.7004,-2.7983,-2.8921,-3.0593,-3.1598,-3.2337,-3.2932,-3.2446,-3.173,-3.1235,-3.22,-3.3104,-3.3152,-3.3682,-3.3984,-3.3672,-3.3892,-3.3984,-3.3672,-3.3381,-3.2879,-3.2048,-3.198,-3.1931,-3.1681,-3.2403,-3.2893,-3.2893,-3.3035,-3.3017,-3.2719,-3.2504,-3.2668,-3.3261,-3.3559,-3.3942,-3.4521,-3.4763,-3.4899,-3.4899,-3.4899,-3.4899,-3.4916,-3.5297,-3.5263,-3.4899,-3.4899,-3.4899,-3.4899,-3.4899,-3.4899,-3.4923,-3.5041,-3.5088,-3.5105,-3.5175,-3.5175,-3.4938,-3.3794,-3.3327,-3.3027,-3.1548,-3.1068,-3.1002,-3.0621,-3.0506,-3.0447,-3.0236,-2.9832,-2.9416,-2.915,-2.8732,-2.8367,-2.8367,-2.8748,-2.912,-2.9134,-2.9187,-2.9148,-2.8996,-2.8873,-2.8764,-2.859,-2.8477,-2.8411,-2.8411,-2.8411,-2.8411,-2.8411,-2.8411,-2.8411,-2.8411,-2.8411,-2.8411,-2.8411,-2.8411,-2.8411,-2.8411,-2.8411,-2.8411,-2.8411,-2.8411,-2.8411,-2.8411,-2.8411,-2.8411,-2.8411,-2.8411,-2.8565,-2.8904,-2.991,-3.0555,-2.7389,-2.8283,-2.9004,-3.1073,-3.1499,-3.1461,-3.1622,-3.1402,-3.1139,-3.1098,-3.2073,-3.2935,-3.3064,-3.3647,-3.4101,-3.4101,-3.4101,-3.4101,-3.4101,-3.3672,-3.3145,-3.2586,-3.2463,-3.2184,-3.1712,-3.2207,-3.2589,-3.2589,-3.2203,-3.2002,-3.2049,-3.156,-3.161,-3.2327,-3.2815,-3.3413,-3.4101,-3.4546,-3.4804,-3.4899,-3.4899,-3.4899,-3.4899,-3.4899,-3.4899,-3.4899,-3.4899,-3.4899,-3.4899,-3.4899,-3.4899,-3.4923,-3.5018,-3.5065,-3.5065,-3.5065,-3.4981,-3.4659,-3.3205,-3.2619,-3.2282,-3.0936,-3.0506,-3.0506,-3.0506,-3.0447,-3.03,-2.9919,-2.9393,-2.8865,-2.8424,-2.7953,-2.76,-2.76,-2.8238,-2.8842,-2.8842,-2.888,-2.8818,-2.8415,-2.8463,-2.8479,-2.8244,-2.8275,-2.8348,-2.8387,-2.8411,-2.8411,-2.8411,-2.8411,-2.8411,-2.8411,-2.8411,-2.8411,-2.8411,-2.8411,-2.8411,-2.8411,-2.8411,-2.8411,-2.8411,-2.8411,-2.8411,-2.8411,-2.8411,-2.8411,-2.8411,-2.8411,-2.8704,-2.9233,-3.0033,-3.0705,-2.5647,-2.7186,-2.9004,-3.1073,-3.1118,-3.0948,-3.2094,-3.1413,-3.064,-3.1022,-3.1644,-3.2336,-3.2967,-3.3647,-3.4101,-3.4101,-3.4101,-3.4101,-3.4101,-3.4034,-3.3764,-3.3172,-3.2691,-3.2385,-3.2288,-3.1923,-3.1687,-3.1687,-3.1769,-3.1568,-3.1012,-3.1191,-3.1552,-3.2102,-3.2382,-3.3033,-3.4101,-3.4176,-3.4448,-3.4899,-3.4899,-3.4899,-3.4899,-3.4899,-3.4899,-3.4899,-3.4899,-3.4899,-3.4899,-3.4899,-3.4899,-3.4899,-3.4923,-3.4923,-3.4923,-3.4923,-3.4508,-3.3846,-3.3,-3.2282,-3.1598,-3.077,-3.0506,-3.0506,-3.0506,-3.0215,-2.9875,-2.9815,-2.9127,-2.84,-2.8328,-2.7953,-2.76,-2.76,-2.771,-2.781,-2.781,-2.781,-2.7795,-2.7735,-2.7825,-2.7974,-2.8162,-2.8186,-2.821,-2.8372,-2.8411,-2.8411,-2.8411,-2.8411,-2.8411,-2.8411,-2.8411,-2.8411,-2.8411,-2.8411,-2.8411,-2.8411,-2.8411,-2.8411,-2.8411,-2.8411,-2.8411,-2.8411,-2.8411,-2.8411,-2.8411,-2.8411,-2.8458,-2.8565,-2.9817,-3.0448,-2.6118,-2.7534,-2.8904,-3.0559,-3.0737,-3.0654,-3.1236,-3.0884,-3.0458,-3.068,-3.1187,-3.1655,-3.1841,-3.2449,-3.3064,-3.3469,-3.3534,-3.3663,-3.4052,-3.4101,-3.3866,-3.3277,-3.2722,-3.2283,-3.1942,-3.1366,-3.0988,-3.0988,-3.108,-3.1024,-3.0806,-3.094,-3.1219,-3.1623,-3.2048,-3.268,-3.3594,-3.3933,-3.4374,-3.4899,-3.4899,-3.4899,-3.4899,-3.4899,-3.4899,-3.4899,-3.4899,-3.4899,-3.4899,-3.4899,-3.4899,-3.4899,-3.4899,-3.4899,-3.4899,-3.4899,-3.4684,-3.4237,-3.31,-3.2481,-3.2034,-3.087,-3.0506,-3.0506,-3.0506,-3.0156,-2.9766,-2.9483,-2.8873,-2.8231,-2.7978,-2.7745,-2.76,-2.76,-2.76,-2.76,-2.76,-2.76,-2.76,-2.76,-2.77,-2.784,-2.7974,-2.8048,-2.8186,-2.8372,-2.8411,-2.8411,-2.8411,-2.8411,-2.8411,-2.8411,-2.8411,-2.8411,-2.8411,-2.8411,-2.8411,-2.8411,-2.8411,-2.8411,-2.8411,-2.8411,-2.8411,-2.8411,-2.8411,-2.8411,-2.8411,-2.8411,-2.8796,-2.9525,-3.0125,-3.0786,-2.6034,-2.7167,-2.8058,-2.9606,-3.0112,-3.0257,-3.0456,-3.0464,-3.0422,-3.0401,-3.0761,-3.1008,-3.0764,-3.1443,-3.2214,-3.2724,-3.2805,-3.3048,-3.3744,-3.3841,-3.374,-3.3459,-3.2922,-3.2367,-3.1794,-3.1175,-3.0777,-3.0598,-3.0598,-3.0642,-3.0732,-3.0791,-3.094,-3.1234,-3.168,-3.2241,-3.2986,-3.3739,-3.43,-3.4691,-3.4828,-3.4899,-3.4899,-3.4899,-3.4899,-3.4899,-3.4899,-3.4899,-3.4899,-3.4899,-3.4899,-3.4899,-3.4899,-3.4899,-3.4899,-3.4899,-3.4651,-3.417,-3.3083,-3.2453,-3.1951,-3.0853,-3.0506,-3.0468,-3.0363,-3.0006,-2.9528,-2.9028,-2.8519,-2.8052,-2.7685,-2.76,-2.76,-2.76,-2.76,-2.76,-2.76,-2.76,-2.76,-2.76,-2.7675,-2.775,-2.7795,-2.7934,-2.8137,-2.8363,-2.8411,-2.8411,-2.8411,-2.8411,-2.8411,-2.8411,-2.8411,-2.8411,-2.8411,-2.8719,-2.8919,-2.8919,-2.8765,-2.8658,-2.8658,-2.8488,-2.8488,-2.8658,-2.8488,-2.8411,-2.8411,-2.8581,-2.9181,-3.014,-3.0494,-3.1197,-2.4083,-2.4961,-2.5965,-2.8094,-2.9028,-2.9628,-3.034,-3.0506,-3.0485,-3.0401,-3.0413,-3.0403,-3.0254,-3.1306,-3.2169,-3.2084,-3.206,-3.2319,-3.3032,-3.3145,-3.3388,-3.3995,-3.3527,-3.2949,-3.241,-3.1794,-3.1234,-3.0628,-3.0598,-3.0598,-3.0598,-3.0732,-3.0895,-3.1102,-3.1263,-3.1695,-3.2437,-3.3533,-3.4126,-3.4151,-3.4667,-3.4899,-3.4899,-3.4899,-3.4899,-3.4899,-3.4899,-3.4899,-3.4899,-3.4899,-3.4899,-3.4899,-3.4899,-3.4899,-3.4899,-3.4899,-3.4005,-3.2818,-3.2735,-3.1785,-3.0605,-3.0522,-3.0506,-3.0405,-2.9984,-2.9506,-2.9028,-2.8496,-2.8002,-2.7625,-2.7625,-2.76,-2.76,-2.76,-2.76,-2.76,-2.76,-2.76,-2.76,-2.76,-2.7625,-2.7635,-2.777,-2.79,-2.8094,-2.8363,-2.8411,-2.8411,-2.8411,-2.8411,-2.8411,-2.8411,-2.8411,-2.8411,-2.8411,-2.9556,-3.0294,-3.0294,-2.9694,-2.9341,-2.9341,-2.875,-2.8704,-2.9325,-2.8735,-2.8411,-2.8411,-2.9058,-2.9371,-2.9464,-3.0751,-3.1393,-2.3932,-2.4473,-2.5146,-2.7263,-2.8306,-2.8979,-2.9648,-3.0522,-3.1047,-3.0563,-3.0844,-3.1004,-3.0436,-3.0571,-3.0923,-3.1349,-3.1751,-3.2255,-3.3008,-3.3469,-3.3825,-3.4068,-3.3553,-3.2986,-3.2437,-3.1851,-3.1263,-3.0657,-3.0598,-3.0598,-3.0598,-3.0642,-3.0732,-3.0895,-3.1073,-3.1567,-3.2398,-3.3533,-3.4101,-3.4101,-3.4643,-3.4899,-3.4899,-3.4899,-3.4899,-3.4899,-3.4899,-3.4899,-3.4899,-3.4899,-3.4899,-3.4849,-3.4369,-3.4468,-3.4833,-3.4369,-3.3856,-3.3326,-3.2868,-3.1858,-3.0735,-3.057,-3.03,-3.0027,-2.9853,-2.9461,-2.8982,-2.8448,-2.7953,-2.76,-2.76,-2.76,-2.76,-2.76,-2.76,-2.76,-2.76,-2.76,-2.76,-2.76,-2.76,-2.7625,-2.766,-2.77,-2.849,-3.0652,-3.0966,-3.0966,-3.0966,-3.0966,-3.0966,-3.0966,-3.0966,-3.0274,-2.855,-2.992,-3.0597,-2.9997,-2.9612,-2.9587,-3.0017,-2.9387,-2.9356,-3.0017,-2.9802,-2.9679,-2.9679,-2.9479,-2.9843,-3.0689,-3.1193,-3.164,-2.3388,-2.3796,-2.4472,-2.6601,-2.7264,-2.7823,-2.946,-3.0199,-3.0506,-3.0506,-3.0886,-3.1064,-3.0525,-3.0274,-3.0266,-3.0668,-3.1238,-3.1898,-3.2627,-3.3323,-3.3841,-3.4068,-3.3764,-3.3293,-3.2722,-3.2145,-3.1537,-3.0955,-3.0717,-3.0598,-3.0598,-3.0598,-3.0702,-3.0895,-3.1073,-3.1467,-3.2092,-3.323,-3.3713,-3.3533,-3.4456,-3.4804,-3.4643,-3.4828,-3.4899,-3.4899,-3.4707,-3.4715,-3.4899,-3.4899,-3.4899,-3.4849,-3.4352,-3.4468,-3.4833,-3.4336,-3.3856,-3.3336,-3.2704,-3.1612,-3.0486,-3.0131,-2.9815,-2.9528,-2.9355,-2.9081,-2.8709,-2.8222,-2.7845,-2.76,-2.76,-2.76,-2.76,-2.76,-2.76,-2.766,-2.7899,-2.7944,-2.7869,-2.7645,-2.7839,-2.7944,-2.7645,-2.76,-2.8613,-3.164,-3.2259,-3.2398,-3.2398,-3.2398,-3.2398,-3.2398,-3.2398,-3.1674,-2.9889,-3.0843,-3.1274,-3.0643,-3.0274,-3.0274,-3.0735,-3.0079,-3.0033,-3.0735,-3.0509,-3.0617,-3.1089,-3.0412,-3.0535,-3.1424,-3.164,-3.1967,0.0,0.0,0.0,-2.5983,-2.5832,-2.6111,-2.9726,-2.9417,-2.8774,-3.0141,-3.0456,-3.0472,-3.0506,-3.0443,-3.0333,-3.0071,-3.0557,-3.1195,-3.1931,-3.2659,-3.3356,-3.402,-3.4101,-3.3866,-3.3251,-3.2722,-3.2132,-3.1537,-3.094,-3.0598,-3.0598,-3.0598,-3.0762,-3.1087,-3.1234,-3.1351,-3.1511,-3.2625,-3.2922,-3.2425,-3.4093,-3.4594,-3.4126,-3.4659,-3.4899,-3.4851,-3.4325,-3.4399,-3.4875,-3.4875,-3.4899,-3.4899,-3.4866,-3.4866,-3.4866,-3.4833,-3.3905,-3.258,-3.2141,-3.0992,-2.9683,-2.9234,-2.9097,-2.8982,-2.8472,-2.8288,-2.8207,-2.7735,-2.76,-2.76,-2.7615,-2.763,-2.763,-2.7645,-2.766,-2.7839,-2.8472,-2.8622,-2.8442,-2.7764,-2.8304,-2.8588,-2.775,-2.766,-2.8588,-3.1122,-3.1994,-3.2339,-3.229,-3.2321,-3.2336,-3.2351,-3.2351,-3.2367,-3.2367,-3.2382,-3.2382,-3.2367,-3.1751,-3.1409,-3.1409,-3.0782,-3.0751,-3.1393,-3.0797,-3.1078,-3.2367,-3.1732,-3.1424,-3.1455,-3.209,-3.2398,-2.2431,0.0,0.0,0.0,0.0,0.0,-2.6396,-2.7226,-2.7921,-2.879,-2.9367,-2.986,-3.0406,-3.0443,-3.054,-3.1019,-3.1508,-3.2087,-3.2763,-3.3405,-3.389,-3.4084,-3.4101,-3.3866,-3.3251,-3.2722,-3.2132,-3.1537,-3.094,-3.0598,-3.0598,-3.0598,-3.0762,-3.1087,-3.1146,-3.1278,-3.1511,-3.2244,-3.2547,-3.2425,-3.3713,-3.425,-3.4126,-3.4659,-3.4691,-3.4325,-3.4176,-3.4176,-3.4325,-3.4325,-3.4546,-3.4849,-3.4303,-3.4087,-3.4038,-3.3514,-3.2494,-3.1375,-3.1238,-3.0121,-2.8764,-2.9028,-2.8842,-2.8496,-2.8336,-2.8288,-2.8207,-2.7735,-2.76,-2.7705,-2.8188,-2.8308,-2.8442,-2.8933,-2.9052,-2.9007,-2.8858,-2.931,-2.9535,-2.8708,-2.8229,-2.7884,-2.7645,-2.916,-3.0658,-3.1391,-3.164,-3.1074,-2.9154,-3.0101,-3.1036,-3.1236,-3.1486,-3.1686,-3.1686,-3.2105,-3.2182,-3.1705,-3.1516,-3.1409,-3.1409,-3.1213,-3.1197,-3.1409,-3.169,-3.1782,-3.1686,-3.1501,-3.1643,-3.2121,-3.2305,-3.2398,-2.3325,-2.3528,-2.3917,-2.4177,0.0,0.0,-2.5865,-2.6381,-2.6842,-2.8168,-2.8743,-2.9201,-2.991,-3.0001,-3.0426,-3.1764,-3.2186,-3.255,-3.3183,-3.382,-3.4176,-3.4176,-3.4126,-3.3866,-3.3251,-3.2722,-3.2132,-3.1537,-3.094,-3.0598,-3.0598,-3.0598,-3.0732,-3.0984,-3.1043,-3.119,-3.1409,-3.2064,-3.2259,-3.2051,-3.3177,-3.3723,-3.3723,-3.4052,-3.4168,-3.4075,-3.3601,-3.3533,-3.3723,-3.3723,-3.4068,-3.4464,-3.3518,-3.3264,-3.3397,-3.2971,-3.2007,-3.0878,-3.0672,-2.9596,-2.8328,-2.8439,-2.8271,-2.8002,-2.8002,-2.8002,-2.8014,-2.8006,-2.8034,-2.8124,-2.8502,-2.8607,-2.8771,-2.9457,-2.9445,-2.9325,-2.9415,-2.9714,-2.9639,-2.8558,-2.8843,-2.922,-2.922,-3.0479,-3.1511,-3.1511,-3.1511,-3.0943,-2.9415,-2.9815,-3.0536,-3.1292,-3.1655,-3.184,-3.184,-3.1905,-3.184,-3.1439,-3.1136,-3.0982,-3.0982,-3.1243,-3.1409,-3.1409,-3.2044,-3.2198,-3.184,-3.184,-3.2013,-3.2398,-3.2398,-3.2398,-2.4508,-2.4558,-2.4745,-2.5236,-2.4395,0.0,-2.6522,-2.6,-2.5562,-2.7592,-2.7952,-2.8144,-2.892,-2.9118,-2.9847,-3.1906,-3.2309,-3.2675,-3.3423,-3.399,-3.4325,-3.43,-3.4201,-3.3866,-3.3251,-3.2722,-3.2132,-3.1537,-3.094,-3.0569,-3.0496,-3.0496,-3.0526,-3.0587,-3.0837,-3.1057,-3.1174,-3.1905,-3.2023,-3.1496,-3.2598,-3.3119,-3.3119,-3.3156,-3.3449,-3.3857,-3.2846,-3.2668,-3.3103,-3.2893,-3.3254,-3.3878,-3.2796,-3.2576,-3.2862,-3.2781,-3.1891,-3.0612,-3.0148,-2.92,-2.8158,-2.7735,-2.76,-2.76,-2.76,-2.76,-2.775,-2.8412,-2.8607,-2.8637,-2.8771,-2.8816,-2.8981,-2.9639,-2.9505,-2.9403,-3.018,-3.0073,-2.9472,-2.8259,-2.9684,-3.1152,-3.1451,-3.1511,-3.1511,-3.1511,-3.1511,-3.1511,-3.1511,-3.0754,-3.0681,-3.1931,-3.2192,-3.2321,-3.2382,-3.1782,-3.1409,-3.1409,-3.0782,-3.0402,-3.0402,-3.0966,-3.1305,-3.1409,-3.1982,-3.2275,-3.2275,-3.2351,-3.2398,-3.2398,-3.2398,-3.2398,-2.466,-2.4932,-2.5135,-2.4086,-2.4052,0.0,-2.3424,-2.3479,-2.3921,-2.478,-2.4946,-2.5328,-2.6584,-2.7296,-2.8044,-2.9072,-3.0671,-3.2408,-3.4189,-3.4447,-3.4423,-3.4325,-3.4275,-3.3968,-3.3277,-3.2722,-3.2132,-3.1537,-3.094,-3.035,-2.9813,-2.9813,-2.9624,-2.9284,-2.9825,-3.0263,-3.0505,-3.1154,-3.1509,-3.1511,-3.2231,-3.2547,-3.2559,-3.2986,-3.3029,-3.2711,-3.2508,-3.2465,-3.2427,-3.0933,-3.1531,-3.337,-3.3469,-3.2945,-3.2053,-3.151,-3.0521,-2.9372,-2.8864,-2.8256,-2.771,-2.7625,-2.76,-2.76,-2.76,-2.76,-2.775,-2.8412,-2.8607,-2.8846,-2.9864,-3.0133,-3.0313,-3.0957,-3.1062,-3.1047,-3.1212,-3.1182,-3.1047,-3.0778,-2.9445,-2.9026,-3.1137,-3.1511,-3.1511,-3.1511,-3.1511,-3.1511,-3.1511,-3.1556,-3.1475,-3.1113,-3.1394,-3.1797,-3.2336,-3.1782,-3.1409,-3.1409,-3.0782,-3.0402,-3.0402,-3.0525,-3.0859,-3.1393,-3.1547,-3.1609,-3.1609,-3.2136,-3.2398,-3.2398,-3.2398,-3.2398,-2.5709,-2.5862,-2.583,-2.4509,-2.4351,0.0,0.0,-2.3184,-2.3579,-2.4593,-2.4445,-2.458,-2.5993,-2.6557,-2.7153,-2.8227,-2.9897,-3.1411,-3.2475,-3.3762,-3.457,-3.4497,-3.4118,-3.3604,-3.2917,-3.2296,-3.1709,-3.1087,-3.0777,-3.0306,-2.9639,-2.9595,-2.9363,-2.8821,-2.9198,-2.9514,-2.9711,-3.0447,-3.0888,-3.1002,-3.1645,-3.2092,-3.2398,-3.2382,-3.2382,-3.2398,-3.2064,-3.1966,-3.189,-3.0888,-3.1033,-3.1844,-3.1639,-3.1182,-3.0591,-3.0489,-2.9713,-2.8662,-2.8384,-2.7978,-2.76,-2.76,-2.76,-2.76,-2.76,-2.7839,-2.8184,-2.8502,-2.8831,-2.931,-3.0253,-3.0507,-3.0672,-3.1346,-3.1167,-3.0972,-3.1406,-3.1511,-3.1511,-3.1511,-3.0434,-2.9968,-3.1271,-3.0404,-3.0013,-3.1301,-3.1511,-3.1511,-3.1511,-3.1655,-3.1673,-3.1482,-3.1665,-3.1946,-3.2367,-3.1474,-3.0905,-3.0905,-3.0263,-2.9894,-2.9894,-3.0551,-3.1213,-3.1874,-3.189,-3.189,-3.189,-3.2228,-3.2398,-3.2398,-3.2398,-3.2398,-2.6556,-2.6573,-2.6303,-2.5095,-2.4744,-2.4499,0.0,0.0,0.0,-2.4694,-2.4462,-2.4463,-2.556,-2.5774,-2.6203,-2.7547,-2.8953,-2.9926,-3.0075,-3.2293,-3.394,-3.4049,-3.3501,-3.2913,-3.2511,-3.1658,-3.0995,-3.0613,-3.038,-3.0016,-2.9479,-2.9421,-2.9087,-2.836,-2.8559,-2.8741,-2.8921,-2.9799,-3.0354,-3.0507,-3.1182,-3.1754,-3.2203,-3.171,-3.1783,-3.2203,-3.1726,-3.1436,-3.127,-3.1122,-3.0691,-3.0083,-2.9654,-2.94,-2.9335,-2.9592,-2.909,-2.8304,-2.8207,-2.7919,-2.76,-2.76,-2.76,-2.76,-2.76,-2.8079,-2.8607,-2.8607,-2.916,-2.9849,-3.0223,-3.0417,-3.0612,-3.1017,-3.0778,-3.0599,-3.1137,-3.1391,-3.1511,-3.1511,-3.1301,-3.1047,-3.0778,-2.9415,-2.9071,-3.1182,-3.1511,-3.1511,-3.1511,-3.1524,-3.1697,-3.2064,-3.2163,-3.2247,-3.2398,-3.1182,-3.0448,-3.0571,-2.9833,-2.951,-2.9781,-3.0951,-3.172,-3.2013,-3.2259,-3.2336,-3.2198,-3.2336,-3.2398,-3.2398,-3.2398,-3.2398,-2.607,-2.6175,-2.5825,-2.4381,-2.4761,-2.487,-2.2553,0.0,-2.402,-2.2818,0.0,-2.3835,-2.383,0.0,0.0,-2.529,-2.6718,-2.7895,-2.8558,-2.9976,-3.117,-3.172,-3.1911,-3.2071,-3.2295,-3.0788,-3.0015,-3.054,-2.9552,-2.8898,-2.8825,-2.8811,-2.8231,-2.7041,-2.7549,-2.7988,-2.8311,-2.9522,-3.0269,-3.0507,-3.1182,-3.1539,-3.1582,-3.1524,-3.1539,-3.1582,-3.1524,-3.1152,-3.0567,-3.0021,-2.942,-2.8892,-2.9759,-2.977,-2.9223,-2.8691,-2.8414,-2.8255,-2.782,-2.7635,-2.76,-2.76,-2.76,-2.76,-2.76,-2.8079,-2.8607,-2.8607,-2.9475,-3.0283,-2.9804,-3.0088,-3.0387,-2.9909,-3.0612,-3.1167,-3.0494,-3.0957,-3.1511,-3.1511,-3.0597,-2.9457,-2.8259,-2.9729,-3.1152,-3.1466,-3.1511,-3.1511,-3.1511,-3.1668,-3.1853,-3.2079,-3.2163,-3.2247,-3.2398,-3.1182,-3.0648,-3.1243,-3.0104,-2.9935,-3.1105,-3.189,-3.1767,-3.0648,-3.1797,-3.2105,-3.1516,-3.2105,-3.2398,-3.2398,-3.2398,-3.2398,-2.5707,-2.5762,-2.5462,-2.422,-2.4108,-2.3983,-2.2683,-2.2818,-2.3276,-2.3445,0.0,0.0,0.0,0.0,0.0,0.0,-2.5653,-2.6348,-2.6467,-2.7523,-2.8923,-3.0665,-3.0377,-3.0003,-2.9872,-2.9101,-2.8893,-2.955,-2.9113,-2.8779,-2.8709,-2.8779,-2.8371,-2.736,-2.7283,-2.7384,-2.7605,-2.8601,-2.9389,-2.9983,-3.0627,-3.0913,-3.0913,-3.1316,-3.1286,-3.0913,-3.0913,-3.0776,-3.0417,-2.943,-2.8846,-2.8614,-2.8686,-2.8543,-2.8313,-2.829,-2.8149,-2.787,-2.766,-2.76,-2.76,-2.76,-2.76,-2.7675,-2.8053,-2.8368,-2.8757,-2.949,-2.9834,-2.9998,-3.0088,-3.0313,-3.0342,-2.9729,-2.9998,-3.0387,-3.0387,-3.0387,-3.0627,-3.1361,-3.0658,-2.9819,-2.9355,-2.9894,-3.0657,-3.1391,-3.1511,-3.1511,-3.1511,-3.1582,-3.1697,-3.191,-3.1953,-3.2038,-3.2274,-3.1401,-3.1025,-3.1366,-3.0859,-3.0982,-3.1921,-3.2244,-3.2136,-3.1582,-3.2105,-3.2259,-3.1967,-3.2259,-3.2398,-3.2398,-3.2398,-3.2398,-2.5313,-2.5332,-2.5067,-2.3887,-2.3647,-2.347,-2.2695,-2.2716,-2.31,-2.393,-2.3919,0.0,0.0,0.0,-2.3592,-2.4572,0.0,-2.513,-2.5056,-2.5559,-2.6727,-2.8865,-2.881,-2.8363,-2.7846,-2.7547,-2.7768,-2.8624,-2.8345,-2.8347,-2.8792,-2.8687,-2.838,-2.7806,-2.726,-2.7067,-2.7207,-2.7988,-2.8725,-2.9325,-2.9953,-3.0253,-3.0268,-3.0776,-3.0703,-3.0253,-3.0432,-3.0417,-3.0193,-2.943,-2.8921,-2.8547,-2.8053,-2.7764,-2.7635,-2.7978,-2.7894,-2.76,-2.76,-2.76,-2.76,-2.76,-2.76,-2.769,-2.8173,-2.8442,-2.8757,-2.949,-2.9639,-2.9666,-2.9909,-3.0118,-3.0133,-2.9711,-2.9741,-2.9968,-3.0417,-3.0298,-3.0387,-3.1316,-3.0703,-3.0148,-3.0447,-2.9879,-2.9786,-3.0808,-3.1122,-3.1227,-3.1227,-3.1391,-3.1582,-3.1783,-3.1813,-3.1927,-3.2163,-3.1579,-3.1263,-3.1382,-3.1551,-3.1874,-3.2367,-3.2398,-3.2398,-3.2398,-3.2398,-3.2398,-3.2398,-3.2398,-3.2398,-3.2398,-3.2398,-3.2398,0.0,0.0,0.0,-2.3172,-2.3608,-2.3917,-2.2221,-2.3133,-2.4145,-2.3468,-2.4123,-2.4835,-2.4788,-2.4175,-2.3978,-2.4929,-2.4503,0.0,0.0,-2.4391,-2.4417,-2.5532,-2.7067,-2.7771,-2.7106,-2.6504,-2.6708,-2.8021,-2.6979,-2.7097,-2.8982,-2.8358,-2.7939,-2.7996,-2.734,-2.7067,-2.7207,-2.7988,-2.8476,-2.8637,-2.9295,-2.9636,-2.9636,-2.9666,-2.9651,-2.9666,-3.0238,-3.0163,-2.9681,-3.0223,-2.9714,-2.8607,-2.8577,-2.8184,-2.76,-2.7625,-2.761,-2.76,-2.76,-2.76,-2.76,-2.76,-2.76,-2.76,-2.763,-2.8094,-2.8472,-2.7869,-2.8618,-2.9472,-2.8816,-2.9131,-2.9636,-2.9606,-3.0043,-3.0477,-3.0507,-3.0987,-3.1451,-3.1496,-3.0492,-2.9804,-3.0402,-2.9609,-2.9097,-2.9592,-3.0163,-3.0537,-3.0537,-3.1092,-3.1568,-3.1784,-3.1799,-3.1927,-3.2163,-3.1579,-3.1263,-3.1382,-3.1997,-3.2367,-3.2398,-3.2398,-3.2398,-3.2398,-3.2398,-3.2398,-3.2398,-3.2398,-3.2398,-3.2398,-3.2398,-3.2398,0.0,0.0,-2.4275,-2.3375,0.0,0.0,0.0,-2.3257,-2.3745,-2.3932,-2.4591,-2.5175,-2.5133,-2.49,-2.4885,-2.546,-2.4869,-2.4159,0.0,-2.2744,-2.2599,-2.3892,-2.5564,-2.6277,-2.55,-2.5842,-2.6341,-2.6935,-2.7399,-2.8083,-2.9039,-2.9359,-2.9215,-2.8596,-2.8169,-2.7676,-2.7207,-2.7646,-2.8117,-2.8607,-2.8831,-2.8936,-2.8951,-2.9412,-2.934,-2.8966,-2.9609,-2.9774,-2.9621,-2.9804,-2.9639,-2.9232,-2.8771,-2.8457,-2.8203,-2.7764,-2.76,-2.76,-2.76,-2.76,-2.76,-2.76,-2.76,-2.7675,-2.8139,-2.8412,-2.8652,-2.8873,-2.8921,-2.8891,-2.8667,-2.9086,-2.9502,-2.9026,-2.9744,-3.0507,-3.0507,-3.0687,-3.0957,-3.1406,-3.0778,-3.0402,-3.1047,-3.0163,-2.9562,-3.0103,-3.0761,-3.1152,-3.1152,-3.1361,-3.1539,-3.1597,-3.1597,-3.1741,-3.2038,-3.2005,-3.2004,-3.2044,-3.2259,-3.2398,-3.2398,-3.2398,-3.2398,-3.2398,-3.2398,-3.2398,-3.2398,-3.2398,-3.2398,-3.2398,-3.2398,-3.2398,-2.4281,-2.4302,0.0,-2.3471,-2.3471,0.0,-2.3348,0.0,-2.3856,0.0,0.0,-2.5004,-2.525,-2.5069,-2.4958,-2.5181,-2.4725,-2.3983,0.0,-2.2421,-2.2315,-2.2995,-2.4081,-2.4785,-2.4835,-2.4879,-2.5334,-2.6391,-2.6837,-2.7694,0.0,-2.9483,-2.947,-2.9085,-2.8655,-2.8029,-2.7299,-2.7499,-2.7824,-2.8233,-2.8233,-2.8233,-2.8248,-2.8693,-2.8663,-2.8319,-2.9217,-2.9606,-2.9651,-3.0088,-3.0133,-2.9849,-2.9205,-2.8801,-2.8517,-2.7854,-2.76,-2.76,-2.76,-2.76,-2.76,-2.76,-2.76,-2.7675,-2.8124,-2.8233,-2.8323,-2.8783,-2.8588,-2.8338,-2.8831,-2.9292,-2.9594,-2.9639,-3.024,-3.0866,-3.0866,-3.0866,-3.0972,-3.1421,-3.0943,-3.0717,-3.1391,-3.0627,-3.0043,-3.0447,-3.0881,-3.1137,-3.1137,-3.1346,-3.1511,-3.1511,-3.1511,-3.1655,-3.1968,-3.2191,-3.2342,-3.2398,-3.2398,-3.2398,-3.2398,-3.2398,-3.2398,-3.2398,-3.2398,-3.2398,-3.2398,-3.2398,-3.2398,-3.2398,-3.2398,-3.2398]},{"header":{"parameterUnit":"m.s-1","parameterCategory":1,"la1":30.6,"la2":29.2853,"lo1":-89.7004,"lo2":-87.6739,"dy":0.0162,"dx":0.0183,"nx":112,"ny":82,"refTime":"2026-05-21T12:00:00:Z","depth":0,"parameterNumber":3,"parameterNumberName":"V-component_of_WINDS"},"data":[0.0,0.0,0.0,0.0,0.0,0.0,0.0,0.0,0.0,0.0,0.0,0.0,0.0,0.0,0.0,0.0,0.0,0.0,0.0,0.0,0.0,0.0,0.0,0.0,0.0,0.0,0.0,0.0,0.0,0.0,0.0,0.0,0.0,0.0,0.0,0.0,0.0,0.0,0.0,0.0,0.0,0.0,0.0,0.0,0.0,0.0,0.0,0.0,0.0,0.0,0.0,0.0,0.0,0.0,0.0,0.0,0.0,0.0,0.0,0.0,0.0,0.0,0.0,0.0,0.0,0.0,0.0,0.0,0.0,0.0,0.0,0.0,0.0,0.0,0.0,0.0,0.0,0.0,0.0,0.0,0.0,0.0,0.0,0.0,0.0,0.0,0.0,0.0,0.0,0.0,0.6741,0.699,0.6016,0.5352,0.5216,0.5193,0.5023,0.4538,0.0,0.0,0.0,0.0,0.0,0.0,0.0,0.0,0.0,0.0,0.0,0.0,0.0,0.0,0.0,0.0,0.0,0.0,0.0,0.0,0.0,0.0,0.0,0.0,0.0,0.0,0.0,0.0,0.0,0.0,0.0,0.0,0.0,0.0,0.0,0.0,0.0,0.0,0.0,0.0,0.0,0.0,0.0,0.0,0.0,0.0,0.0,0.0,0.0,0.0,0.0,0.0,0.0,0.0,0.0,0.0,0.0,0.0,0.0,0.0,0.0,0.0,0.0,0.0,0.0,0.0,0.0,0.0,0.0,0.0,0.0,0.0,0.0,0.0,0.0,0.0,0.0,0.0,0.0,0.0,0.0,0.0,0.0,0.0,0.0,0.0,0.0,0.0,0.0,0.0,0.0,0.0,0.0,0.0,0.0,0.0,0.0,0.0,0.0,0.0,0.0,0.0,0.0,0.0,0.7161,0.7958,0.7446,0.705,0.7031,0.6507,0.5974,0.5534,0.0,0.0,0.0,0.0,0.0,0.0,0.0,0.0,0.0,0.0,0.0,0.0,0.0,0.0,0.0,0.0,0.0,0.0,0.0,0.0,0.0,0.0,0.0,0.0,0.0,0.0,0.0,0.0,0.0,0.0,0.0,0.0,0.0,0.0,0.0,0.0,0.0,0.0,0.0,0.0,0.0,0.0,0.0,0.0,0.0,0.0,0.0,0.0,0.0,0.0,0.0,0.0,0.0,0.0,0.0,0.0,0.0,0.0,0.0,0.0,0.0,0.0,0.0,0.0,0.0,0.0,0.0,0.0,0.0,0.0,0.0,0.0,0.0,0.0,0.0,0.0,0.0,0.0,0.0,0.0,0.0,0.0,0.0,0.0,0.0,0.0,0.0,0.0,0.0,0.0,0.0,0.0,0.0,0.0,0.0,0.0,0.0,0.0,0.0,0.0,0.0,0.0,0.0,0.6797,0.7135,0.8004,0.7614,0.7287,0.7258,0.6822,0.6258,0.557,0.5069,0.0,0.0,0.0,0.0,0.0,0.0,0.0,0.0,0.0,0.0,0.0,0.0,0.0,0.0,0.0,0.0,0.0,0.0,0.0,0.0,0.0,0.0,0.0,0.0,0.0,0.0,0.0,0.0,0.0,0.0,0.0,0.0,0.0,0.0,0.0,0.0,0.0,0.0,0.0,0.0,0.0,0.0,0.0,0.0,0.0,0.0,0.0,0.0,0.0,0.0,0.0,0.0,0.0,0.0,0.0,0.0,0.0,0.0,0.0,0.0,0.0,0.0,0.0,0.0,0.0,0.0,0.0,0.0,0.0,0.0,0.0,0.0,0.0,0.0,0.0,0.0,0.0,0.0,0.0,0.0,0.0,0.0,0.0,0.0,0.0,0.0,0.0,0.0,0.0,0.0,0.0,0.0,0.0,0.0,0.0,0.0,0.0,0.0,0.0,0.0,0.0,0.0,0.7108,0.7235,0.7983,0.762,0.733,0.7286,0.6894,0.636,0.5527,0.5118,0.0,0.0,0.0,0.0,0.0,0.0,0.0,0.0,0.0,0.0,0.0,0.0,0.0,0.0,0.0,0.0,0.0,0.0,0.0,0.0,0.0,0.0,0.0,0.0,0.0,0.0,0.0,0.0,0.0,0.0,0.0,0.0,0.0,0.0,0.0,0.0,0.0,0.0,0.0,0.0,0.0,0.0,0.0,0.0,0.0,0.0,0.0,0.0,0.0,0.0,0.0,0.0,0.0,0.0,0.0,0.0,0.0,0.0,0.0,0.0,0.0,0.0,0.0,0.0,0.0,0.0,0.0,0.0,0.0,0.0,0.0,0.0,0.0,0.0,0.0,0.0,0.0,0.0,0.0,0.0,0.0,0.0,0.0,0.0,0.0,0.0,0.0,0.0,0.0,0.0,0.0,0.0,0.0,0.0,0.0,0.0,0.0,0.0,0.0,0.0,0.0,0.0,0.7385,0.7894,0.8414,0.802,0.7785,0.7849,0.7107,0.6349,0.5805,0.5051,0.0,0.0,0.0,0.0,0.0,0.0,0.0,0.0,0.0,0.0,0.0,0.0,0.0,0.0,0.0,0.0,0.0,0.0,0.0,0.0,0.0,0.0,0.0,0.0,0.0,0.0,0.0,0.0,0.0,0.0,0.0,0.0,0.0,0.0,0.0,0.0,0.0,0.0,0.0,0.0,0.0,0.0,0.0,0.0,0.0,0.0,0.0,0.0,0.0,0.0,0.0,0.0,0.0,0.0,0.0,0.0,0.0,0.0,0.0,0.0,0.0,0.0,0.0,0.0,0.0,0.0,0.0,0.0,0.0,0.0,0.0,0.0,0.0,0.0,0.0,0.0,0.0,0.0,0.0,0.0,0.0,0.0,0.0,0.0,0.0,0.0,0.0,0.0,0.0,0.0,0.0,0.0,0.0,0.0,0.0,0.0,0.0,0.0,0.0,0.0,0.0,0.0,0.7139,0.7638,0.8282,0.8109,0.7871,0.7724,0.7187,0.653,0.574,0.0,0.0,0.0,0.0,0.0,0.0,0.0,0.0,0.0,0.0,0.0,0.0,0.0,0.0,0.0,0.0,0.0,0.0,0.0,0.0,0.0,0.0,0.0,0.0,0.0,0.0,0.0,0.0,0.0,0.0,0.0,0.0,0.0,0.0,0.0,0.0,0.0,0.0,0.0,0.0,0.0,0.0,0.0,0.0,0.0,0.0,0.0,0.0,0.0,0.0,0.0,0.0,0.0,0.0,0.0,0.0,0.0,0.0,0.0,0.0,0.0,0.0,0.0,0.0,0.0,0.0,0.0,0.0,0.0,0.0,0.0,0.0,0.0,0.0,0.0,0.0,0.0,0.0,0.0,0.0,0.0,0.0,0.0,0.0,0.0,0.0,0.0,0.0,0.0,0.0,0.0,0.0,0.0,0.0,0.0,0.0,0.0,0.0,0.0,0.0,0.0,0.0,0.6597,0.7044,0.7519,0.8133,0.8058,0.7851,0.7612,0.7171,0.6541,0.5722,0.0,0.0,0.0,0.0,0.0,0.0,0.0,0.0,0.0,0.0,0.0,0.0,0.0,0.0,0.0,0.0,0.0,0.0,0.0,0.0,0.0,0.0,0.0,0.0,0.0,0.0,0.0,0.0,0.0,0.0,0.0,0.0,0.0,0.0,0.0,0.0,0.0,0.0,0.0,0.0,0.0,0.0,0.0,0.0,0.0,0.0,0.0,0.0,0.0,0.0,0.0,0.0,0.0,0.0,0.0,0.0,0.0,0.0,0.0,0.0,0.0,0.0,0.0,0.0,0.0,0.0,0.0,0.0,0.0,0.0,0.0,0.0,0.0,0.0,0.0,0.0,0.0,0.0,0.0,0.0,0.0,0.0,0.0,0.0,0.0,0.0,0.0,0.0,0.0,0.0,0.0,0.0,0.0,0.0,0.0,0.0,0.0,0.0,0.0,0.0,0.0,0.0,0.6617,0.7221,0.7702,0.7948,0.7892,0.7746,0.7604,0.7044,0.6465,0.0,0.0,0.0,0.0,0.0,0.0,0.0,0.0,0.0,0.0,0.0,0.0,0.0,0.0,0.0,0.0,0.0,0.0,0.0,0.0,0.0,0.0,0.0,0.0,0.0,0.0,0.0,0.0,0.0,0.0,0.0,0.0,0.0,0.0,0.0,0.0,0.0,0.0,0.0,0.0,0.0,0.0,0.0,0.0,0.0,0.0,0.0,0.0,0.0,0.0,0.0,0.0,0.0,0.0,0.0,0.0,0.0,0.0,0.0,0.0,0.0,0.0,0.0,0.0,0.0,0.0,0.0,0.0,0.0,0.0,0.0,0.0,0.0,0.0,0.0,0.0,0.0,0.0,0.0,0.0,0.0,0.0,0.0,0.0,0.0,0.0,0.0,0.0,0.0,0.0,0.0,0.0,0.0,0.0,0.0,0.0,0.0,0.0,0.0,0.0,0.0,0.0,0.0,0.6443,0.7319,0.7812,0.7387,0.7318,0.7233,0.7139,0.7366,0.7008,0.5723,0.0,0.0,0.0,0.0,0.0,0.0,0.0,0.0,0.0,0.0,0.0,0.0,0.0,0.0,0.0,0.0,0.0,0.0,0.0,0.0,0.0,0.0,0.0,0.0,0.0,0.0,0.0,0.0,0.0,0.0,0.0,0.0,0.0,0.0,0.0,0.0,0.0,0.0,0.0,0.0,0.0,0.0,0.0,0.0,0.0,0.0,0.0,0.0,0.0,0.0,0.0,0.0,0.0,0.0,0.0,0.0,0.0,0.0,0.0,0.0,0.0,0.0,0.0,0.0,0.0,0.0,0.0,0.0,0.0,0.0,0.0,0.0,0.0,0.0,0.0,0.0,0.0,0.0,0.0,0.0,0.0,0.0,0.0,0.0,0.0,0.0,0.0,0.0,0.0,0.0,0.0,0.0,0.0,0.0,0.0,0.0,0.0,0.0,0.0,0.0,0.0,0.0,0.7183,0.8028,0.8473,0.8126,0.8043,0.7935,0.7812,0.8086,0.7781,0.6556,0.0,0.0,0.0,0.0,0.0,0.0,0.0,0.0,0.0,0.0,0.0,0.0,0.0,0.0,0.0,0.0,0.0,0.0,0.0,0.0,0.0,0.0,0.0,0.0,0.0,0.0,0.0,0.0,0.0,0.0,0.0,0.0,0.0,0.0,0.0,0.0,0.0,0.0,0.0,0.0,0.0,0.0,0.0,0.0,0.0,0.0,0.0,0.0,0.0,0.0,0.0,0.0,0.0,0.0,0.0,0.0,0.0,0.0,0.0,0.0,0.0,0.0,0.0,0.0,0.0,0.0,0.0,0.0,0.0,0.0,0.0,0.0,0.0,0.0,0.0,0.0,0.0,0.0,0.0,0.0,0.0,0.0,0.0,0.0,0.0,0.0,0.0,0.0,0.0,0.0,0.0,0.0,0.0,0.0,0.0,0.0,0.0,0.0,0.0,0.0,0.0,0.0,0.8407,0.9051,0.9447,0.9495,0.94,0.9262,0.9072,0.9042,0.8661,0.7845,0.0,0.0,0.0,0.0,0.0,0.0,0.0,0.0,0.0,0.0,0.0,0.0,0.0,0.0,0.0,0.0,0.0,0.0,0.0,0.0,0.0,0.0,0.0,0.0,0.0,0.0,0.0,0.0,0.0,0.0,0.0,0.0,0.0,0.0,0.0,0.0,0.0,0.0,0.0,0.0,0.0,0.0,0.0,0.0,0.0,0.0,0.0,0.0,0.0,0.0,0.0,0.0,0.0,0.0,0.0,0.0,0.0,0.0,0.0,0.0,1.2358,1.1964,0.0,0.0,0.0,0.0,0.0,0.0,0.0,0.0,0.0,0.0,0.0,0.0,0.0,0.0,0.0,0.0,0.0,0.0,0.0,0.0,0.0,0.0,0.0,0.0,0.0,0.0,0.0,0.0,0.0,0.0,0.0,0.0,0.0,0.0,0.0,0.0,0.0,0.0,0.0,0.0,0.8222,0.914,0.9578,0.8959,0.8847,0.8844,0.8797,0.9331,0.9143,0.7869,0.8009,0.0,0.0,0.0,0.0,0.0,0.0,0.0,0.0,0.0,0.0,0.0,0.0,0.0,0.0,0.0,0.0,0.0,0.0,0.0,0.0,0.0,0.0,0.0,0.0,0.0,0.0,0.0,0.0,0.0,0.0,0.0,0.0,0.0,0.0,0.0,0.0,0.0,0.0,0.0,0.0,0.0,0.0,0.0,0.0,0.0,0.0,0.0,0.0,0.0,0.0,0.0,0.0,0.0,0.0,0.0,0.0,0.0,0.0,0.0,1.3186,1.2893,0.0,0.0,0.0,0.0,0.0,0.0,0.0,0.0,0.0,0.0,0.0,0.0,0.0,0.0,0.0,0.0,0.0,0.0,0.0,0.0,0.0,0.0,0.0,0.0,0.0,0.0,0.0,0.0,0.0,0.0,0.0,0.0,0.0,0.0,0.0,0.0,0.0,0.0,0.0,0.0,0.9147,0.9913,1.0325,0.9906,0.9868,0.9868,0.9868,1.025,1.0061,0.905,0.9079,0.0,0.0,0.0,0.0,0.0,0.0,0.0,0.0,0.0,0.0,0.0,0.0,0.0,0.0,0.0,0.0,0.0,0.0,0.0,0.0,0.0,0.0,0.0,0.0,0.0,0.0,0.0,0.0,0.0,0.0,0.0,0.0,0.0,0.0,0.0,0.0,0.0,0.0,0.0,0.0,0.0,0.0,0.0,0.0,0.0,0.0,0.0,0.0,0.0,0.0,0.0,0.0,0.0,1.675,1.7069,1.6758,1.7221,1.6783,1.5635,1.4622,1.4372,1.4584,1.377,0.0,0.0,0.0,0.0,0.0,0.0,0.0,0.0,0.0,0.0,0.0,0.0,0.0,0.0,0.0,0.0,0.0,0.0,0.0,0.0,0.0,0.0,1.2141,0.0,1.21,1.1855,1.1142,0.0,0.0,0.0,0.0,0.0,0.0,0.0,0.0,0.0,0.0,0.0,1.0329,1.0858,1.1186,1.1186,1.1186,1.1168,1.1082,1.1076,1.0858,1.0262,0.9985,0.9516,0.0,0.0,0.0,0.0,0.0,0.0,0.0,0.0,0.0,0.0,0.0,0.0,0.0,0.0,0.0,0.0,0.0,0.0,0.0,0.0,0.0,0.0,0.0,0.0,0.0,0.0,0.0,0.0,0.0,0.0,0.0,0.0,1.5224,1.4098,0.0,0.0,0.0,0.0,0.0,0.0,0.0,0.0,0.0,0.0,0.0,0.0,0.0,1.6766,1.6903,1.7228,1.6834,1.5802,1.7442,1.7923,1.744,1.8699,1.894,1.8392,1.822,0.0,1.5322,1.5734,0.0,0.0,0.0,0.0,0.0,0.0,0.0,0.0,0.0,0.0,0.0,0.0,0.0,0.0,0.0,0.0,0.0,0.0,0.0,0.0,0.0,0.0,1.3033,1.3033,1.2864,1.265,0.0,1.1648,1.0738,1.0255,0.9995,0.0,0.0,0.0,0.0,0.0,0.0,0.0,1.0741,1.1291,1.1632,1.1632,1.1632,1.1464,1.1045,1.1026,1.0727,0.9991,0.9709,0.9408,0.9059,0.8333,0.0,0.0,0.0,0.0,0.0,0.0,0.0,0.0,0.0,0.0,0.0,0.0,0.0,0.0,0.0,0.0,0.0,0.0,0.0,0.0,0.0,0.0,0.0,0.0,0.0,0.0,0.0,0.0,0.0,1.6439,1.6317,1.6053,1.5966,1.5574,0.0,0.0,0.0,0.0,0.0,0.0,0.0,0.0,0.0,1.8812,1.8743,1.898,1.9545,1.9631,1.9715,1.9811,2.0728,2.1032,2.0775,2.1387,2.099,1.9864,1.9864,1.9216,1.8122,1.7255,1.644,1.5653,0.0,0.0,0.0,0.0,1.5288,1.5,1.6039,1.6068,1.561,1.5455,0.0,0.0,0.0,0.0,0.0,0.0,0.0,1.3031,0.0,0.0,1.2991,1.2991,1.2757,1.2536,1.2536,1.2091,1.1555,0.0,1.0711,1.0289,0.9522,0.0,0.0,0.0,0.0,1.0161,1.056,1.0959,1.12,1.12,1.12,1.112,1.0895,1.0883,1.0679,1.0226,1.0056,0.9897,0.9618,0.9158,0.8742,0.0,0.0,0.0,0.0,0.0,0.0,0.0,0.0,0.0,0.0,0.0,0.0,0.0,0.0,0.0,0.0,0.0,0.0,0.0,0.0,0.0,0.0,0.0,0.0,0.0,0.0,0.0,0.0,1.7487,1.7699,1.7761,1.8071,1.7672,0.0,0.0,0.0,0.0,0.0,0.0,1.8151,1.874,1.9614,2.0793,2.0918,2.1297,2.1935,2.1838,2.2082,2.2721,2.3102,2.3285,2.3285,2.3493,2.277,2.1384,2.129,2.1092,2.0754,1.8989,1.8084,1.7813,1.7234,1.6702,1.6374,1.712,1.7012,1.6679,1.7529,1.751,1.7055,1.6909,1.6388,1.5729,1.5062,0.0,0.0,0.0,0.0,1.38,1.4132,1.3487,1.2784,1.2784,1.2556,1.2305,1.2305,1.2245,1.2064,0.0,1.1303,1.0875,1.0086,0.0,0.0,0.9658,0.9935,1.0245,1.0527,1.0803,1.0942,1.0942,1.0942,1.091,1.0772,1.0765,1.0651,1.0305,1.0286,1.0198,1.0021,0.9823,0.9503,0.9039,0.0,0.0,0.0,0.0,0.0,0.0,0.0,0.0,0.0,0.0,0.0,0.0,0.0,0.0,0.0,0.0,0.0,0.0,0.0,0.0,0.0,0.0,0.0,0.0,0.0,0.0,0.0,0.0,0.0,1.8632,2.0121,0.0,0.0,0.0,0.0,1.9131,2.0265,2.1168,2.1605,2.2042,2.2868,2.414,2.4178,2.4107,2.3974,2.3678,2.3091,2.2165,2.2926,2.3285,2.3326,2.3973,2.4003,2.3504,2.3063,2.2685,2.2217,2.1203,2.026,1.946,2.0045,1.9157,1.7814,1.9614,1.9576,1.8851,2.0443,2.017,1.9201,1.9567,1.8782,1.7488,1.6577,1.598,0.0,0.0,1.5069,1.4469,1.4484,1.3649,1.2784,1.2784,1.2556,1.2305,1.2305,1.2084,1.1919,0.0,1.161,1.1235,1.0718,0.0,1.0115,1.0254,1.0446,1.0668,1.0922,1.1209,1.1354,1.1354,1.1354,1.118,1.0737,1.0718,1.0496,1.0053,1.0008,0.9996,0.9983,0.9823,0.9695,0.9669,0.9446,0.0,0.0,0.0,0.0,0.0,0.0,0.0,0.0,0.0,0.0,0.0,0.0,0.0,0.0,0.0,0.0,0.0,0.0,0.0,0.0,0.0,0.0,0.0,0.0,0.0,0.0,0.0,0.0,2.0329,2.1604,0.0,2.0203,2.1029,2.145,2.1016,2.2148,2.2949,2.3105,2.3779,2.4365,2.4824,2.5117,2.5208,2.5118,2.502,2.4824,2.4412,2.4716,2.4722,2.4448,2.4698,2.4454,2.3777,2.3577,2.3268,2.2828,2.2501,2.1823,2.0992,2.095,2.0522,2.0026,2.0708,2.068,2.04,2.0693,2.05,2.0065,1.9638,1.9154,1.8638,1.7894,1.7565,1.7446,1.7583,1.7026,1.639,1.646,1.5196,1.3863,1.3663,1.2968,1.2305,1.2305,1.2218,1.2091,1.194,1.163,1.1295,1.0943,1.0783,1.0556,1.0221,1.0403,1.0626,1.0734,1.0841,1.0901,1.0901,1.0901,1.0828,1.0657,1.0446,1.0225,1.0065,0.9912,0.9813,0.9813,1.0064,1.014,0.9945,1.0233,1.0092,0.0,0.0,0.0,0.0,0.0,0.0,0.0,0.0,0.0,0.0,0.0,0.0,0.0,0.0,0.0,0.0,0.0,0.0,0.0,0.0,0.0,0.0,0.0,0.0,0.0,2.0791,2.1885,2.1885,2.3101,2.3403,2.197,2.2877,2.3301,2.2578,2.3584,2.416,2.4004,2.4678,2.5116,2.5116,2.5508,2.5693,2.5693,2.5693,2.5693,2.5693,2.5693,2.5508,2.5106,2.4959,2.4463,2.3779,2.3633,2.3408,2.3091,2.3091,2.2761,2.2222,2.1935,2.1853,2.1853,2.1853,2.1767,2.1575,2.101,2.0723,2.0502,1.9947,1.9736,1.9678,1.9278,1.908,1.9061,1.9104,1.8431,1.7682,1.7562,1.5998,1.4432,1.4101,1.3147,1.2305,1.2305,1.2305,1.2245,1.2051,1.1697,1.1295,1.1042,1.0909,1.0747,1.0327,1.0466,1.0593,1.0593,1.0593,1.0593,1.0593,1.0593,1.0593,1.0593,1.0287,1.0252,1.0561,1.0182,1.0126,1.0428,1.0638,1.0675,1.0514,1.0819,1.0819,1.0494,0.0,0.0,0.0,0.0,0.0,0.0,0.0,0.0,0.0,0.0,0.0,0.0,0.0,0.0,0.0,0.0,0.0,0.0,0.0,0.0,0.0,0.0,0.0,2.0644,2.2151,2.3247,2.3247,2.4687,2.5001,2.3325,2.468,2.5195,2.3926,2.4609,2.4902,2.4482,2.4863,2.5135,2.5135,2.5508,2.5693,2.5693,2.5693,2.5693,2.5693,2.5674,2.5478,2.5077,2.459,2.417,2.375,2.3276,2.3091,2.3091,2.3091,2.3091,2.3091,2.3091,2.3091,2.3091,2.3091,2.2818,2.2373,2.1502,2.0947,2.0605,2.0605,2.0605,2.0605,2.0605,2.045,2.0225,1.9981,1.9155,1.8196,1.7613,1.599,1.4449,1.4087,1.3177,1.2372,1.2372,1.2372,1.2372,1.2365,1.1859,1.137,1.1056,1.0787,1.0593,1.0593,1.0593,0.0,1.0624,1.0624,1.0624,1.0624,1.0624,1.0624,1.0624,1.0318,1.0533,1.1432,1.0887,1.0927,1.1839,1.1511,1.1338,1.1331,1.1201,1.1244,1.1489,0.0,0.0,0.0,0.0,0.0,0.0,0.0,0.0,0.0,0.0,0.0,0.0,0.0,0.0,0.0,0.0,0.0,0.0,0.0,0.0,0.0,2.0858,2.2091,2.1603,2.2988,2.4072,2.4072,2.4775,2.5059,2.458,2.4971,2.5107,2.4793,2.5234,2.5498,2.5333,2.544,2.5557,2.5557,2.5625,2.5693,2.5693,2.5693,2.5693,2.5684,2.541,2.5019,2.458,2.416,2.373,2.331,2.3149,2.3091,2.3091,2.3091,2.3091,2.3091,2.3091,2.3091,2.3091,2.3091,2.2676,2.2021,2.1787,2.1201,2.0605,2.0605,2.0605,2.0566,2.042,2.0342,2.0225,1.9981,1.9355,1.8786,1.8599,1.7218,1.5848,1.5741,1.4819,1.3954,1.3954,1.3954,1.3886,1.358,1.3229,1.2643,1.1485,1.0928,1.0593,1.0593,1.0593,1.0744,1.1209,1.124,1.124,1.124,1.124,1.124,1.124,1.0986,1.1004,1.147,1.1101,1.0981,1.1241,1.157,1.1925,1.2316,1.1994,1.1728,0.0,0.0,0.0,0.0,0.0,0.0,0.0,0.0,0.0,0.0,0.0,0.0,0.0,0.0,0.0,0.0,0.0,0.0,0.0,0.0,0.0,0.0,2.2259,2.3514,2.3315,2.4091,2.4766,2.4894,2.5195,2.5352,2.5352,2.5352,2.5352,2.5352,2.5596,2.5693,2.5693,2.5693,2.5693,2.5693,2.5693,2.5693,2.5693,2.5693,2.5693,2.5684,2.5283,2.4834,2.4404,2.3984,2.3555,2.3091,2.3091,2.3091,2.3091,2.3091,2.3091,2.3091,0.0,0.0,0.0,0.0,2.2461,2.1865,2.168,2.1152,2.0605,2.0605,2.0605,2.0566,2.045,2.042,2.0372,2.0147,1.981,1.942,1.8882,1.7784,1.6657,1.6265,1.5372,1.4601,1.4601,1.4601,1.4462,1.4087,1.3781,0.0,1.2254,1.1682,1.1382,1.1382,1.1382,1.1507,1.1872,1.1903,1.1903,1.1903,1.1903,1.1903,1.1903,1.1669,0.0,0.0,0.0,1.1589,1.1463,1.1974,0.0,0.0,0.0,0.0,0.0,0.0,0.0,0.0,1.1222,1.1094,0.0,0.0,0.0,0.0,0.0,0.0,0.0,0.0,0.0,0.0,0.0,0.0,0.0,0.0,0.0,0.0,2.342,2.4645,2.5048,2.5149,2.533,2.5684,2.5732,2.5752,2.5752,2.5801,2.583,2.583,2.5791,2.5762,2.5762,2.5713,0.0,0.0,0.0,2.5693,2.5693,2.5693,2.5693,2.5684,2.5234,2.4785,2.4394,2.3935,2.3506,2.3091,2.3091,2.3091,2.3091,2.3091,2.3091,2.3091,2.3091,2.3091,2.3042,2.2666,2.2246,2.1816,2.1346,0.0,0.0,2.0605,2.0605,2.0605,2.0605,2.0605,2.0566,2.0372,2.0274,1.9976,1.876,1.7906,1.7127,1.6183,1.5401,1.4859,1.4859,1.4859,1.4738,1.4281,1.3993,1.368,1.3244,1.2812,1.2512,1.2512,1.2512,1.2543,1.2604,1.2604,1.2604,1.2604,1.2604,0.0,1.2604,1.2384,1.2624,1.3485,1.2946,1.2485,1.2241,1.2533,1.2358,1.166,1.1945,1.2101,1.2101,1.2101,1.2101,1.2092,1.1742,1.1788,0.0,0.0,0.0,0.0,0.0,0.0,0.0,0.0,0.0,0.0,0.0,0.0,0.0,0.0,0.0,2.2483,2.3835,2.4713,2.4635,2.5227,2.5757,2.6003,2.6004,2.6103,2.623,2.6572,2.6768,2.6768,2.6455,2.626,2.626,2.5928,2.5693,2.5693,2.5693,2.5693,2.5693,2.5693,2.5693,2.5674,2.4922,0.0,2.4385,2.3569,2.3169,2.3091,2.3091,2.3091,2.3091,2.3091,2.3091,2.3091,2.3091,2.3091,2.3042,2.2666,2.2246,2.1816,2.1346,2.0937,2.0605,2.0605,2.0605,2.0605,2.0605,2.0605,0.0,2.0566,2.0178,1.9687,1.9065,1.8309,1.7576,1.7035,1.6682,1.6473,1.6473,1.6473,1.6224,1.551,1.5346,1.5069,1.4341,1.325,1.2512,1.2512,1.2512,1.2696,1.323,1.3321,1.3321,1.3321,1.3321,1.3321,1.3321,1.3253,1.3386,1.3809,1.3413,1.3104,1.3066,1.2836,1.2625,1.2468,1.2229,1.2101,1.2101,1.2101,1.2101,1.2101,1.2018,1.2252,0.0,0.0,0.0,0.0,0.0,0.0,0.0,0.0,0.0,0.0,0.0,2.1653,2.2503,0.0,2.3196,2.3576,2.4407,2.4958,2.487,2.5212,2.5604,2.5932,2.6257,2.6517,2.6755,2.6919,2.7063,2.7206,2.6722,2.6387,2.6387,2.5977,2.5693,2.5693,2.5693,2.5693,2.5693,2.5693,2.5693,2.5674,2.4844,2.4414,2.4385,2.3481,2.3091,2.3091,2.3091,2.3091,2.3091,2.3091,2.3091,2.3071,2.2867,2.2779,2.2803,2.2588,2.2109,2.1533,2.1268,2.0937,2.0605,2.0605,2.0605,2.0605,2.0605,2.0605,2.0605,2.0605,2.0372,1.9955,1.9205,1.8705,1.8201,1.7385,1.7132,1.7003,1.6908,1.6908,1.6725,1.612,1.5835,1.5505,1.4909,1.4073,1.3511,1.3511,1.3511,1.3631,1.395,1.401,1.401,1.401,1.401,1.401,1.401,1.401,1.396,1.391,1.3727,1.3314,1.2709,1.2698,1.2505,1.211,1.2101,1.2101,1.2101,1.2101,1.2126,1.2209,1.2404,1.2633,0.0,0.0,0.0,0.0,0.0,0.0,0.0,2.1788,2.2299,2.3086,2.3266,2.3378,2.3742,2.4102,2.4394,2.4487,2.4817,2.5055,2.5055,2.5127,2.5324,2.5629,2.641,2.7012,2.716,2.7269,2.741,2.7657,2.7017,2.6602,2.6514,2.6094,2.5771,2.5693,2.5693,2.5693,2.5693,2.5693,2.5693,2.5674,2.4844,2.4414,2.4385,2.3481,2.3091,2.3091,2.3091,2.3091,2.3091,2.3091,2.3091,2.3052,2.2676,2.2461,2.2383,2.2295,2.1785,2.1181,2.1093,2.0869,2.0605,2.0605,2.0605,2.0605,2.0605,2.0605,2.0605,2.0605,2.0605,2.0371,1.9337,1.9041,1.8711,1.7571,1.7235,1.7166,1.7003,1.6943,1.6789,1.6395,1.6046,1.5661,1.5184,1.4836,1.4607,1.4524,1.4515,1.4515,1.4515,1.4515,1.4515,1.4515,1.4515,1.4515,1.4515,1.4442,1.4249,1.3929,1.3792,1.3267,1.2307,1.2526,1.2351,1.1713,1.2018,1.2175,1.2175,1.2175,1.2224,1.2342,1.2795,1.303,1.9096,1.8958,1.9346,2.0765,2.1581,2.2435,0.0,2.5131,2.5707,2.4999,2.505,2.5187,2.4898,2.4353,2.4084,2.4435,2.4538,2.458,2.458,2.4931,2.522,2.5279,2.6523,2.7357,2.715,2.7968,2.8536,2.8526,2.7921,2.7353,2.6963,2.6543,2.6143,2.5703,2.5693,2.5693,2.5693,2.5693,2.5693,2.5674,2.4844,2.4414,2.4385,2.3481,2.3091,2.3091,2.3091,2.3091,2.3091,2.3091,2.3091,2.3052,2.2676,2.2285,2.1904,2.1483,2.1278,2.1142,2.0781,2.0644,2.0605,2.0605,2.0605,2.0605,2.0605,2.0605,2.0605,2.0605,2.0605,2.04,1.9512,1.9151,1.8757,1.7839,1.7407,1.7201,1.7166,1.7038,1.6789,1.6395,1.6251,1.6001,1.523,1.5065,1.4909,1.4561,1.4515,1.4515,1.4515,1.4515,1.4515,1.4515,1.4515,1.4515,1.4515,1.4167,1.3966,1.3882,1.3339,1.2954,1.2814,1.2642,1.2474,1.2389,1.2427,1.2455,1.2455,1.2455,1.2455,1.249,1.2998,1.3477,2.0426,2.069,2.1104,2.1794,2.2874,2.3923,2.4625,2.5246,2.5464,2.466,2.5126,2.5323,2.4147,2.4315,2.4633,2.4518,2.4724,2.4807,2.4538,2.5161,2.5409,2.4848,2.6352,2.7451,2.7551,2.8024,2.845,2.891,2.8163,2.7588,2.7402,2.6758,2.6309,2.6123,2.582,2.5693,2.5693,2.5693,2.5605,2.5342,2.4717,2.4287,2.4033,2.3374,2.3091,2.3091,2.3091,2.3091,2.3081,2.2838,2.273,2.2662,2.199,2.1619,2.1514,2.1592,2.1289,2.0859,2.0928,2.0781,2.0605,2.0605,2.0605,2.0605,2.0605,2.0605,2.0605,2.0605,2.0381,2.0049,1.9443,1.9029,1.8582,1.785,1.7545,1.7348,1.7235,1.7038,1.6862,1.6688,1.6276,1.5845,1.5505,1.5065,1.4708,1.4543,1.4515,1.4515,1.4515,1.4515,1.4515,1.4515,1.4515,1.4515,1.4515,1.435,1.4047,1.3571,1.3358,1.3029,1.2569,1.2516,1.2505,1.2505,1.2505,1.2505,1.2505,1.2505,1.2529,1.2637,1.3084,1.3574,2.1131,2.1782,2.2347,2.2468,2.3916,2.5234,2.5071,2.5512,2.5636,2.4658,2.5086,2.5229,2.3763,2.4314,2.4931,2.4724,2.5179,2.5399,2.4766,2.5388,2.5595,2.4786,2.5999,2.7154,2.7686,2.8046,2.8463,2.8878,2.8361,2.7898,2.7728,2.708,2.6631,2.6396,2.6084,2.581,2.5693,2.5693,2.5528,2.5244,2.4687,2.4258,2.3945,2.3344,2.3091,2.3091,2.3091,2.3091,2.3071,2.2812,2.2617,2.2441,2.1658,2.1298,2.122,2.1455,2.1153,2.0644,2.0937,2.084,2.0605,2.0605,2.0605,2.0605,2.0605,2.0605,2.0605,2.0605,2.0254,1.9814,1.9394,1.8965,1.8455,1.7924,1.7657,1.7495,1.7314,1.7107,1.6978,1.6908,1.6431,1.5955,1.5725,1.5212,1.4763,1.4543,1.4515,1.4515,1.4515,1.4515,1.4515,1.4515,1.4515,1.4515,1.4515,1.4405,1.4113,1.3553,1.344,1.3145,1.2595,1.2586,1.2603,1.2603,1.2603,1.2603,1.2603,1.2603,1.2709,1.2933,1.3323,1.3801,2.0566,2.1509,2.2406,2.2945,2.477,2.6298,2.5699,2.6832,2.7492,2.5623,2.5454,2.531,2.4428,2.4397,2.4662,2.5096,2.5947,2.6216,2.5292,2.5595,2.5709,2.522,2.5627,2.6279,2.7237,2.8275,2.8766,2.856,2.8585,2.837,2.7738,2.7689,2.7246,2.6416,2.6377,2.6162,2.5693,2.5693,2.5684,2.5664,2.4787,2.4414,2.4365,2.3481,2.3091,2.3091,2.3091,2.3091,2.3091,2.3081,2.2838,2.2471,2.2031,2.1611,2.1142,2.0762,2.0625,2.0605,2.0615,2.0615,2.0605,2.0605,2.0605,2.0605,2.0605,2.0605,2.0605,2.0605,2.0254,1.9814,1.9394,1.8965,1.849,1.8081,1.7828,1.7647,1.7529,1.7314,1.7132,1.6934,1.689,1.6624,1.5826,1.567,1.5395,1.4634,1.4515,1.4515,1.4515,1.4515,1.4515,1.4515,1.4515,1.4515,1.4515,1.413,1.3949,1.4072,1.347,1.3147,1.3282,1.3021,1.2881,1.2881,1.2881,1.2881,1.2881,1.2881,1.3086,1.3496,1.3899,1.4319,2.1081,2.2297,2.3565,2.4086,2.536,2.6449,2.6248,2.6637,2.6576,2.4849,2.4807,2.4675,2.3356,2.3627,2.425,2.4662,2.5782,2.6397,2.5751,2.6366,2.6563,2.5751,2.6061,2.6501,2.6812,2.7536,2.8207,2.8716,2.8421,2.8256,2.8351,2.7927,2.7402,2.6826,2.6533,2.6182,2.5693,2.5439,2.5146,2.4853,2.3939,2.352,2.351,2.3227,2.3091,2.3091,2.3091,2.3091,2.3052,2.2539,2.2217,2.2021,2.1339,2.0957,2.0771,2.0664,2.0605,2.0605,2.0605,2.0605,2.0605,2.0605,2.0605,2.0605,2.0605,2.0605,2.0546,2.0215,1.9824,1.9394,1.8965,1.85,1.8184,1.8047,1.7862,1.7647,1.7529,1.7348,1.7166,1.7107,1.6791,1.6465,1.6313,1.5748,1.512,1.4588,1.4515,1.4515,1.4515,1.4515,1.4515,1.4515,1.4515,1.4515,1.4515,1.4457,1.4341,1.41,1.3806,1.3528,1.3311,1.3031,1.2905,1.2905,1.2905,1.2905,1.2905,1.2905,1.3096,1.3516,1.3652,1.4102,2.182,2.3012,2.4167,2.4908,2.5787,2.6368,2.5915,2.5809,2.5371,2.3784,2.3548,2.3412,2.2631,2.2977,2.3639,2.4373,2.5678,2.6511,2.621,2.6967,2.7268,2.6511,2.6677,2.6864,2.6864,2.7356,2.7909,2.8615,2.859,2.8588,2.8717,2.8311,2.7721,2.7031,2.6758,2.625,2.5508,2.5215,2.4775,2.4189,2.3633,2.3247,2.3091,2.3091,2.3091,2.3091,2.3091,2.3091,2.3042,2.2393,2.2021,2.1816,2.1084,2.0742,2.0605,2.0605,2.0605,2.0605,2.0605,2.0605,2.0605,2.0605,2.0605,2.0605,2.0605,2.0498,2.0273,1.999,1.9502,1.8994,1.8676,1.8286,1.8008,1.8008,1.7896,1.775,1.7623,1.7476,1.7373,1.7314,1.6937,1.6612,1.6598,1.5762,1.4964,1.457,1.4515,1.4515,1.4515,1.4515,1.4515,1.4515,1.4515,1.4515,1.4515,1.4606,1.4538,1.4194,1.3993,1.3724,1.3397,1.3081,1.2905,1.2905,1.2905,1.2983,1.3105,1.3105,1.3398,1.3965,1.3965,1.4346,2.2681,2.3572,2.433,2.5347,2.6047,2.614,2.4935,2.4585,2.4115,2.2619,2.1914,2.1718,2.2262,2.2418,2.2904,2.4208,2.5668,2.6656,2.6677,2.7396,2.779,2.7392,2.732,2.7309,2.7309,2.7686,2.8004,2.8207,2.9033,2.9323,2.8791,2.8708,2.8206,2.7041,2.6992,2.6367,2.5125,2.5077,2.4636,2.375,2.375,2.3545,2.3091,2.3091,2.3091,2.3091,2.3091,2.3081,2.3033,2.2656,2.2236,2.1807,2.1327,2.0937,2.0605,2.0605,2.0605,2.0605,2.0605,2.0605,2.0605,2.0605,2.0605,2.0605,2.0605,2.0254,1.9912,1.9883,1.926,1.8627,1.8578,1.8286,1.8037,1.8018,1.8008,1.794,1.775,1.7706,1.7647,1.7529,1.7358,1.707,1.6669,1.578,1.5001,1.4607,1.4524,1.4515,1.4515,1.4515,1.4515,1.4515,1.4515,1.4515,1.4515,1.4636,1.4606,1.4336,1.4057,1.3806,1.3584,1.315,1.2915,1.2935,1.2935,1.3105,1.3506,1.3525,1.3975,1.4813,1.4813,1.501,2.2995,2.4111,2.5247,2.5523,2.5711,2.5741,2.5423,2.4642,2.3704,2.2731,2.1731,2.0951,2.0567,2.129,2.2325,2.336,2.5523,2.7247,2.7531,2.8079,2.8266,2.781,2.7458,2.7309,2.7309,2.7976,2.8433,2.8507,2.886,2.9165,2.9386,2.883,2.8191,2.7317,2.6991,2.63,2.5125,2.448,2.3848,2.3257,2.3257,2.3198,2.3091,2.3091,2.3091,2.3091,2.3091,2.2916,2.2637,2.2217,2.1797,2.1357,2.0908,2.0703,2.0605,2.0605,2.0605,2.0605,2.0605,2.0605,2.0605,2.0605,2.0605,2.0605,2.0605,2.0254,1.9853,1.9541,1.9287,1.8975,1.834,1.8286,1.8364,1.8086,1.8008,1.794,1.775,1.7706,1.7672,1.7647,1.752,1.726,1.6711,1.6011,1.5404,1.501,1.4698,1.4515,1.4515,1.4515,1.4515,1.4515,1.4515,1.4515,1.4515,1.4764,1.4894,1.4819,1.434,1.4175,1.4453,1.3473,1.3027,1.334,1.335,1.3398,1.3506,1.3792,1.4231,1.4813,1.4813,1.501,2.3985,2.4895,2.5598,2.5598,2.5398,2.4899,2.3924,2.3134,2.2264,2.1007,2.0292,1.9803,1.9544,2.041,2.1569,2.2697,2.485,2.6734,2.7779,2.8152,2.8286,2.8235,2.7831,2.7479,2.733,2.8079,2.8618,2.8618,2.9085,2.9465,2.9596,2.9215,2.861,2.7911,2.7371,2.633,2.4795,2.4121,2.3574,2.3091,2.3091,2.3091,2.3091,2.3091,2.3091,2.3091,2.3091,2.2857,2.248,2.206,2.1631,2.1151,2.0781,2.0605,2.0605,2.0605,2.0605,2.0605,2.0605,2.0605,2.0605,2.0605,2.0605,2.0605,2.0605,2.0137,1.9629,1.958,1.9297,1.8896,1.8373,1.8422,1.849,1.8115,1.8008,1.7974,1.7862,1.7828,1.7818,1.7706,1.7647,1.7396,1.6821,1.629,1.5774,1.5312,1.4874,1.4556,1.4506,1.4515,1.4515,1.4515,1.4515,1.4506,1.4586,1.4852,1.4953,1.4821,1.4374,1.4133,1.4219,1.3359,1.3013,1.3232,1.3232,1.3418,1.3753,1.3997,1.4426,1.5059,1.5059,1.5186,2.5109,2.5532,2.5553,2.5478,2.4887,2.38,2.1769,2.1078,2.0409,1.8786,1.8467,1.8589,1.8874,1.9686,2.0814,2.2263,2.4043,2.5819,2.7665,2.7924,2.8069,2.8473,2.811,2.7686,2.734,2.8028,2.8545,2.8607,2.9415,2.9817,2.9659,2.9608,2.9185,2.8327,2.7551,2.628,2.4434,2.4004,2.3574,2.3091,2.3091,2.3091,2.3091,2.3091,2.3091,2.3091,2.3033,2.2779,2.2402,2.1973,2.1543,2.1103,2.0752,2.0605,2.0605,2.0605,2.0605,2.0605,2.0605,2.0605,2.0605,2.0605,2.0605,2.0605,2.0605,2.0048,1.9443,1.9814,1.9299,1.8685,1.8685,1.8646,1.851,1.8149,1.8047,1.8008,1.8008,1.8008,1.794,1.7784,1.7706,1.7566,1.7097,1.6556,1.6037,1.5585,1.5044,1.4656,1.4536,1.4506,1.4515,1.4515,1.4506,1.4556,1.4686,1.4902,1.4926,1.4695,1.4381,1.4055,1.3769,1.3242,1.2988,1.3071,1.3023,1.332,1.4026,1.4143,1.4572,1.5332,1.5381,1.541,2.4838,2.513,2.5269,2.4854,2.3853,2.2657,2.1548,2.0457,1.9489,1.8781,1.8213,1.7864,1.7936,1.9013,2.0487,2.2211,2.4043,2.5819,2.7665,2.7924,2.7955,2.7989,2.7645,2.7392,2.732,2.7738,2.8204,2.8587,2.9114,2.9591,2.9921,2.958,2.8737,2.7471,2.6413,2.5372,2.4424,2.4004,2.3574,2.3091,2.3091,2.3091,2.3091,2.3091,2.3091,2.3081,2.273,2.2383,2.1963,2.1523,2.1084,2.0713,2.0635,2.0605,2.0605,2.0605,2.0605,2.0605,2.0605,2.0605,2.0605,2.0605,2.0605,2.0605,2.0605,2.0215,1.9824,1.9893,1.9561,1.918,1.918,1.887,1.8588,1.851,1.8227,1.8008,1.8008,1.8008,1.7974,1.794,1.7818,1.7687,1.7586,1.6792,1.6163,1.6097,1.5282,1.4686,1.4656,1.4556,1.4515,1.4515,1.4616,1.4656,1.4715,1.5,1.5147,1.5109,1.4827,1.4795,1.5068,1.3994,1.3539,1.389,1.3574,1.3467,1.3613,1.4326,1.4746,1.4902,1.5254,1.541,2.4937,2.5271,2.518,2.4685,2.3778,2.2627,2.1121,2.0053,1.9071,1.8127,1.7668,1.7349,1.7085,1.8362,1.9876,2.1197,2.276,2.4602,2.69,2.6817,2.6822,2.781,2.7531,2.7309,2.7309,2.7665,2.8061,2.8576,2.9042,2.9404,2.9622,2.9197,2.8335,2.7102,2.6358,2.5461,2.4274,2.3932,2.3574,2.3091,2.3091,2.3091,2.3091,2.3091,2.3091,2.3071,2.2652,2.2275,2.1846,2.1375,2.0967,2.0605,2.0605,2.0605,2.0605,2.0605,2.0605,2.0605,2.0605,2.0605,2.0605,2.0605,2.0605,2.0605,2.0605,2.0254,1.9961,2.0185,1.9941,1.9609,1.9609,1.9297,1.888,1.8656,1.8286,1.8008,1.8008,1.8008,1.8008,1.8008,1.794,1.7862,1.7862,1.7272,1.6715,1.6399,1.5742,1.5168,1.4901,1.4695,1.4586,1.4506,1.4606,1.4745,1.4843,1.5059,1.5148,1.5003,1.4632,1.4434,1.4424,1.3828,1.3578,1.3773,1.3802,1.3919,1.418,1.459,1.4902,1.5117,1.5322,1.541,2.4755,2.5117,2.4956,2.4616,2.3839,2.2662,2.0762,1.9687,1.8725,1.7468,1.7101,1.692,1.6584,1.7678,1.9023,2.0199,2.1424,2.3163,2.5896,2.5751,2.5968,2.7593,2.7469,2.7309,2.7309,2.7572,2.7976,2.8431,2.8804,2.9094,2.929,2.868,2.786,2.6921,2.6516,2.5568,2.4103,2.3959,2.3619,2.3091,2.3091,2.3091,2.3091,2.3091,2.3091,2.3071,2.2652,2.2275,2.1846,2.1375,2.0967,2.0605,2.0605,2.0605,2.0605,2.0605,2.0605,2.0605,2.0605,2.0605,2.0605,2.0605,2.0605,2.0605,2.0605,2.0322,2.0127,2.0507,2.0185,1.9805,1.9893,1.9463,1.8926,1.8549,1.8217,1.8008,1.8008,1.8008,1.8008,1.8008,1.8008,1.8008,1.8008,1.7666,1.7204,1.6638,1.611,1.5616,1.5116,1.4872,1.4725,1.4625,1.4695,1.4843,1.5029,1.5176,1.511,1.4814,1.4436,1.4104,1.3799,1.3691,1.3691,1.3779,1.3987,1.428,1.4648,1.4736,1.4951,1.5283,1.5371,1.541,2.3739,2.4093,2.4281,2.4535,2.349,2.2037,2.07,1.9406,1.8228,1.7394,1.6814,1.6584,1.6882,1.7089,1.7895,2.0044,2.0886,2.2211,2.4921,2.5627,2.6185,2.7247,2.733,2.7309,2.7309,2.734,2.751,2.7955,2.8028,2.8421,2.9259,2.8079,2.7259,2.69,2.6048,2.5128,2.4103,2.4093,2.3742,2.3091,2.3091,2.3091,2.3091,2.3091,2.3091,2.3071,2.2652,2.2275,2.1846,2.1375,2.0967,2.0605,2.0605,2.0605,2.0605,2.0605,2.0605,2.0605,2.0605,2.0605,2.0605,2.0605,2.0605,2.0605,2.0605,2.0576,2.0546,2.0595,2.0018,1.9434,1.9814,1.9023,1.8115,1.8076,1.8037,1.8008,1.8008,1.8008,1.8008,1.8008,1.8008,1.8008,1.8008,1.7666,1.7236,1.6765,1.6172,1.5656,1.5234,1.5068,1.497,1.495,1.498,1.5029,1.5186,1.5313,1.5206,1.4814,1.4746,1.4707,1.4668,1.426,1.4258,1.4658,1.4289,1.4124,1.4172,1.459,1.4833,1.4853,1.5234,1.541,2.2569,2.3186,2.3588,2.4165,2.3338,2.2241,2.1514,1.9871,1.8369,1.7835,1.7022,1.6464,1.6612,1.7058,1.7812,1.9003,1.981,2.0969,2.2894,2.3557,2.4395,2.5865,2.6268,2.6687,2.7258,2.705,2.6967,2.7096,2.7365,2.7562,2.7655,2.7185,2.6713,2.6306,2.5552,2.4743,2.3927,2.3795,2.353,2.3091,2.3091,2.3091,2.3091,2.3091,2.3091,2.3071,2.2652,2.2412,2.2207,2.1483,2.1093,2.0937,2.0713,2.0605,2.0605,2.0605,2.0605,2.0605,2.0605,2.0605,2.0605,2.0605,2.0605,2.0605,2.0605,2.0605,2.0605,2.0605,2.0137,1.9707,1.9873,1.9114,1.8286,1.8076,1.8008,1.8008,1.8008,1.8008,1.8008,1.8008,1.8008,1.8008,1.8008,1.7871,1.7617,1.7187,1.6694,1.6185,1.5779,1.5369,1.5147,1.5225,1.5176,1.5156,1.5215,1.5313,1.5234,1.4842,1.4813,1.4668,1.4377,1.4473,1.4609,1.4813,1.4863,1.4874,1.4874,1.5437,1.5527,1.5166,1.5697,1.594,2.1518,2.2479,2.3237,2.3758,2.3316,2.2557,2.1949,2.0392,1.8914,1.8251,1.7307,1.6591,1.6431,1.6901,1.7522,1.8102,1.887,1.9958,2.158,2.2201,2.3122,2.4786,2.542,2.5937,2.6599,2.6532,2.6407,2.6407,2.6718,2.675,2.6428,2.6248,2.602,2.5699,2.5088,2.4479,2.3927,2.3711,2.345,2.3232,2.3144,2.3091,2.3091,2.3091,2.3091,2.3081,2.2779,2.2627,2.2461,2.1824,2.1424,2.1161,2.0889,2.0684,2.0605,2.0605,2.0605,2.0605,2.0605,2.0605,2.0605,2.0605,2.0605,2.0605,2.0605,2.0605,2.0605,2.0605,2.0166,1.9668,1.9414,1.8861,1.8344,1.8076,1.8008,1.8008,1.8008,1.8008,1.8008,1.8008,1.8008,1.8008,1.8008,1.8008,1.7871,1.7451,1.7012,1.6541,1.6153,1.5604,1.5313,1.5381,1.5313,1.5264,1.5264,1.5362,1.5234,1.4842,1.4813,1.4648,1.4309,1.4619,1.4872,1.4971,1.5264,1.5497,1.5661,1.6083,1.6159,1.594,1.6358,1.6557,2.0574,2.1989,2.3292,2.3397,2.3351,2.2925,2.1618,2.0791,1.9881,1.8403,1.7617,1.7017,1.6506,1.6413,1.6684,1.7564,1.8112,1.9199,2.1487,2.2201,2.3008,2.4342,2.491,2.5199,2.521,2.5637,2.593,2.593,2.5885,2.5885,2.593,2.5482,2.5199,2.5199,2.4745,2.4411,2.4206,2.3937,2.3711,2.3503,2.3232,2.3091,2.3091,2.3091,2.3091,2.3091,2.3091,2.2847,2.251,2.25,2.196,2.119,2.119,2.0957,2.0605,2.0605,2.0605,2.0605,2.0605,2.0605,2.0605,2.0605,2.0605,2.0605,2.0605,2.0605,2.0605,2.0605,1.9989,1.9102,1.8252,1.8018,1.8018,1.8008,1.8008,1.8008,1.8008,1.8008,1.8008,1.8008,1.8008,1.8008,1.8008,1.8008,1.7871,1.7451,1.7012,1.6541,1.6153,1.5684,1.541,1.541,1.541,1.541,1.541,1.541,1.5234,1.4842,1.4813,1.4813,1.4775,1.4813,1.498,1.54,1.541,1.569,1.6283,1.6312,1.6613,1.7174,1.7202,1.7202,1.919,2.0194,2.1274,2.2215,2.2138,2.1775,2.151,2.0669,1.9599,1.8347,1.7617,1.7157,1.6972,1.6861,1.7249,1.8582,1.9111,1.9686,2.071,2.1807,2.278,2.3525,2.483,2.5554,2.521,2.5313,2.5306,2.4985,2.5254,2.5295,2.4985,2.5096,2.5189,2.5189,2.4735,2.4411,2.4206,2.3927,2.3711,2.3503,2.3232,2.3091,2.3091,2.3091,2.3091,2.3091,2.3091,2.3023,2.2877,2.2627,2.2187,2.165,2.1317,2.0957,2.0605,2.0605,2.0605,2.0605,2.0605,2.0605,2.0605,2.0605,2.0605,2.0605,2.0605,2.0605,2.0478,1.9891,1.9492,1.9092,1.8232,1.8008,1.8008,1.8008,1.8008,1.8008,1.8008,1.8008,1.8008,1.8008,1.8008,1.8008,1.8008,1.8008,1.7969,1.7832,1.7451,1.7129,1.7014,1.6349,1.5889,1.5889,1.5586,1.541,1.541,1.541,1.5352,1.5225,1.5215,1.5215,1.5215,1.5215,1.5465,1.5997,1.6026,1.6301,1.6922,1.7341,1.7617,1.782,1.782,1.782,1.8533,1.9477,2.0402,2.1626,2.1566,2.1199,2.1125,2.0613,1.9815,1.8669,1.8147,1.7809,1.7589,1.7445,1.765,1.862,1.9051,1.9492,2.0089,2.1217,2.2335,2.3329,2.4436,2.5088,2.4941,2.4931,2.4807,2.4518,2.4766,2.4797,2.4518,2.4776,2.4931,2.4931,2.4652,2.4454,2.4325,2.397,2.3754,2.3634,2.3276,2.3091,2.3091,2.3091,2.3091,2.3091,2.3091,2.3091,0.0,2.2808,2.25,2.208,2.165,2.1211,2.0801,2.0664,2.0605,2.0605,2.0605,2.0605,2.0605,2.0605,2.0605,2.0605,2.0605,2.0605,2.0429,1.9531,1.9287,1.9092,1.8232,1.8008,1.8008,1.8008,1.8008,1.8008,1.8008,1.8008,1.8008,1.8008,1.8008,1.8008,1.8008,1.8008,1.8008,1.8008,1.7656,1.7383,1.7383,1.6758,1.6281,1.6114,1.585,1.5586,1.543,1.541,1.541,1.541,1.541,1.5497,1.5719,1.5748,1.6026,1.6641,1.6641,1.695,1.7534,1.8147,1.8429,1.8429,1.8429,1.8429,0.0,1.9534,2.0373,2.142,2.1397,2.1032,2.0545,2.0591,0.0,1.9228,1.8987,1.8839,1.8313,1.8053,1.7966,1.8094,1.832,1.8839,1.9761,2.0669,2.1921,2.3712,2.3929,2.4084,2.4456,2.4497,2.4497,2.4497,2.4497,2.4497,2.4497,2.4497,2.4497,2.4497,2.4497,2.4497,2.4497,2.4057,2.3841,2.3841,2.3363,2.3144,2.3144,2.3101,2.3091,2.3091,2.3091,2.3091,2.3091,2.3091,2.2828,2.2432,2.2041,2.1602,2.1093,2.0723,2.0605,2.0605,2.0605,2.0605,2.0605,2.0605,2.0605,2.0605,2.0605,2.0586,2.039,1.9558,1.9268,1.9053,1.8223,1.8008,1.8008,1.8008,1.8008,1.8008,1.8008,1.8008,1.8008,1.8008,1.8008,1.8008,1.8008,1.8008,1.8008,1.8008,1.7676,1.7432,1.7432,1.7051,1.6602,1.6193,1.6114,1.5919,1.5449,1.541,1.541,1.5468,1.5468,1.5719,1.633,1.6358,1.6662,1.7312,1.7357,1.765,1.8186,1.8735,1.8987,1.8987,1.8987,1.9011,1.8116,0.0,1.8874,1.9982,2.0548,2.0672,0.0,2.0359,2.0368,1.9228,1.8987,1.9092,1.934,1.8572,1.8412,2.0011,1.9813,1.9793,2.0669,2.1901,2.3122,2.425,2.4342,2.4383,2.4487,2.4497,2.4497,2.4497,2.4497,2.4497,2.4497,2.4497,2.4497,2.4497,2.4497,2.4497,2.4497,2.4239,2.412,2.411,2.3634,2.3416,2.3406,2.3188,2.3091,2.3091,2.3091,2.3091,2.3091,2.3091,2.2705,2.2021,2.1924,2.1447,2.0752,2.0644,2.0605,2.0605,2.0605,2.0605,2.0605,2.0605,2.0605,2.0605,2.0605,2.0332,1.9961,1.9434,1.9043,1.8637,1.8144,1.8008,1.8008,1.8008,1.8008,1.8008,1.8008,1.8008,1.8008,1.8008,1.8008,1.8008,1.8008,1.8008,1.8008,1.8008,1.793,1.7861,1.7861,1.749,1.7061,1.6621,1.6269,1.5919,1.5449,1.541,1.5613,1.6054,1.6083,1.6358,1.695,1.6978,1.7461,1.8487,1.8958,1.9057,1.8789,1.8934,1.8987,1.8987,1.8987,1.923,1.7699,1.8475,1.9275,2.0915,2.1192,2.1056,2.0966,2.0589,2.0096,1.9483,1.937,1.9542,2.0121,1.9597,1.9433,2.0494,2.0435,2.0611,2.1597,2.2573,2.3525,2.4394,2.4497,2.4497,2.4497,2.4497,2.4497,2.4497,2.4497,2.4497,2.4497,2.4497,2.4497,2.4497,2.4497,2.4497,2.4497,2.4282,2.4206,2.4206,2.3721,2.3503,2.3503,2.3232,2.3091,2.3091,2.3091,2.3091,2.3081,2.2886,2.2578,2.2139,2.1738,2.1299,2.085,2.0683,2.0605,2.0605,2.0605,2.0605,2.0605,2.0605,2.0605,2.0566,2.0457,2.0094,1.9701,1.9392,1.8975,1.851,1.8081,1.8008,1.8008,1.8008,1.8008,1.8008,1.8008,1.8008,1.8008,1.8008,1.8008,1.8008,1.8008,1.8008,1.8008,1.8008,1.8008,1.8008,1.8008,1.7812,1.7632,1.7478,1.7292,1.7083,1.6984,1.6746,1.65,1.6322,1.6312,1.6698,1.7589,1.7617,1.8027,1.892,1.9762,1.978,1.8987,1.9266,1.9387,1.9387,1.9387,1.9664,1.7401,1.8868,2.0488,2.2278,2.2184,2.1694,2.1995,2.0966,1.9911,1.9823,1.9874,2.0137,2.0817,2.0738,2.0624,2.0815,2.0984,2.1471,2.2483,2.2998,2.3598,2.4394,2.4497,2.4497,2.4497,2.4497,2.4497,2.4497,2.4497,2.4497,2.4497,2.4497,2.4497,2.4497,2.4497,2.4497,2.4497,2.4325,2.4249,2.4249,2.3807,2.359,2.359,2.3319,2.3232,2.3232,2.3178,2.3149,2.3061,2.2656,2.2432,2.2246,2.1483,2.1151,2.1084,2.0742,2.0605,2.0605,2.0605,2.0605,2.0605,2.0605,2.0566,2.0487,2.0286,1.9945,1.9598,1.9354,1.8948,1.8457,1.8105,1.8008,1.8008,1.8008,1.8008,1.8008,1.8008,1.8008,1.8008,1.8008,1.8008,1.8008,1.8008,1.8008,1.8008,1.8008,1.8008,1.8008,1.8008,1.8076,1.8235,1.8391,1.851,1.8627,1.878,1.8372,1.7709,1.675,1.669,1.7231,1.8444,1.8552,1.8811,1.9239,2.0225,2.0237,1.9239,1.9684,1.9913,1.9913,1.9913,2.0217,1.7915,1.9732,2.1153,2.1092,2.1619,2.197,2.1131,2.0742,2.0427,1.9911,2.0214,2.0867,2.187,2.1416,2.1438,2.3001,2.2935,2.2757,2.3045,2.3484,2.3971,2.4435,2.4497,2.4497,2.4497,2.4497,2.4497,2.4497,2.4497,2.4497,2.4497,2.4497,2.4497,2.4497,2.4497,2.4497,2.4497,2.4454,2.4454,2.4454,2.4206,2.4067,2.4077,2.3797,2.3711,2.3667,2.3493,2.3252,2.2916,2.2624,2.208,2.1385,2.1249,2.0996,2.0693,2.0635,2.0605,2.0605,2.0605,2.0605,2.0605,2.0605,2.0447,2.0256,2.0197,2.0018,1.9771,1.9329,1.8785,1.8291,1.8061,1.8008,1.8008,1.8008,1.8008,1.8008,1.8008,1.8008,1.8008,1.8008,1.8008,1.8008,1.8008,1.8008,1.8008,1.8008,1.8008,1.8008,1.8008,1.8496,1.8746,1.8423,1.8903,1.9127,1.8841,1.872,1.8644,1.8504,1.8499,1.9016,2.0163,2.0645,2.0727,2.0341,2.0971,2.0983,2.0341,2.0454,2.049,2.049,2.049,2.0767,1.7616,1.9239,2.0609,2.0904,2.2315,2.354,2.3025,2.2209,2.1481,2.1217,2.1129,2.1443,2.2518,2.2408,2.2444,2.3367,2.329,2.3278,2.3812,2.3895,2.4242,2.5094,2.4786,2.4497,2.4497,2.4497,2.4497,2.4497,2.4497,2.4497,2.4497,2.4497,2.4497,2.4497,2.4497,2.4497,2.4497,2.4497,2.4497,2.4497,2.4292,2.4206,2.4206,2.3927,2.3797,2.3797,2.359,2.3256,2.2849,2.2392,2.1807,2.1171,2.0967,2.0752,2.0605,2.0605,2.0605,2.0605,2.0605,2.0605,2.0605,2.0731,2.0523,2.0202,2.0176,1.9939,1.9611,1.912,1.8847,1.8611,1.8237,1.8076,1.8008,1.8008,1.8008,1.8008,1.8008,1.8008,1.8008,1.8008,1.8008,1.8008,1.8008,1.8008,1.8008,1.8008,1.8008,1.8144,1.8486,1.8811,1.9225,1.979,2.0139,2.0407,2.0634,2.0356,1.9957,1.9368,1.9364,1.9757,2.0569,2.1127,2.1151,2.0593,2.1416,2.1416,2.0586,2.0899,2.1043,2.1043,2.1043,2.132,1.7113,1.8521,1.9866,2.0872,2.2678,2.4267,2.4482,2.3379,2.2385,2.2648,2.2372,2.2334,2.3145,2.3386,2.3457,2.3468,2.3552,2.3867,2.4653,2.4392,2.4627,2.5931,2.5348,2.4775,2.4775,2.4775,2.4743,2.4497,2.4497,2.4497,2.4497,2.4497,2.4497,2.4497,2.4611,2.4662,2.4662,2.4662,2.4611,2.4497,2.4325,2.4282,2.4249,2.4067,2.397,2.396,2.3654,2.3278,2.2848,2.2152,2.1596,2.1164,2.082,2.0644,2.0605,2.0605,2.0605,2.0605,2.0605,2.0644,2.0693,2.0867,2.0577,2.0172,2.0113,1.9839,1.9459,1.8998,1.8998,1.9009,1.849,1.8245,1.811,1.8076,1.8076,1.8076,1.8008,1.8008,1.8008,1.8008,1.8008,1.8008,1.8008,1.8008,1.8042,1.8202,1.8236,1.8496,1.9177,1.9398,1.989,2.0965,2.1262,2.1588,2.2154,2.1716,2.1063,2.0321,2.0106,2.0273,2.0959,2.1368,2.1392,2.0995,2.1777,2.1819,2.0976,2.138,2.1584,2.1584,2.1584,2.1813,1.6648,1.8036,1.9415,2.0552,2.1663,2.2678,2.3494,2.2954,2.2611,2.3665,2.3853,2.3841,2.3916,2.4194,2.4324,2.4078,2.4408,2.4869,2.5451,2.5163,2.5447,2.6837,2.6235,2.5704,2.5704,2.5704,2.5379,2.4583,2.4497,2.4497,2.4497,2.4497,2.4497,2.4497,2.491,2.5137,2.5137,2.5137,2.4921,2.4497,2.4497,2.4497,2.4497,2.4454,2.4454,2.4433,2.38,2.3277,2.2839,2.209,2.1569,2.1178,2.0955,2.078,2.0605,2.0605,2.0605,2.0605,2.0605,2.0731,2.0867,2.0906,2.0547,2.0114,2.0119,1.9944,1.9665,1.9199,1.927,1.932,1.867,1.8482,1.8414,1.8303,1.8269,1.8245,1.8042,1.8008,1.8008,1.8008,1.8008,1.8008,1.8008,1.8008,1.8202,1.8811,1.8944,1.9177,1.9933,2.0549,2.0996,2.1092,2.1726,2.2123,2.2197,2.1716,2.1566,2.198,2.1091,2.1012,2.2041,2.2113,2.2113,2.2089,2.2149,2.2149,2.2077,2.2113,2.2137,2.2137,2.2137,2.2149,1.6176,1.7131,1.8143,1.9186,1.9982,2.1308,2.4181,2.432,2.4192,2.533,2.51,2.483,2.5281,2.5093,2.4788,2.4515,2.4697,2.4997,2.535,2.5748,2.6359,2.7281,2.6944,2.6607,2.6607,2.611,2.5663,2.5337,2.4818,2.4497,2.4497,2.4497,2.4631,2.4921,2.5096,2.5189,2.5189,2.5189,2.4952,2.4497,2.4497,2.4497,2.4497,2.4497,2.4342,2.4115,2.3678,2.3114,2.2431,2.1969,2.1558,2.1167,2.0984,2.078,2.0605,2.0605,2.0605,2.0605,2.0731,2.0829,2.0945,2.1167,2.0741,2.0109,2.0252,1.9844,1.9326,1.915,1.9166,1.9157,1.8782,1.8583,1.8482,1.8448,1.8371,1.8269,1.8202,1.8076,1.8008,1.8008,1.8008,1.8008,1.8008,1.8337,1.8721,1.8944,1.9408,1.9933,2.0613,2.0933,2.1262,2.1726,2.203,2.2197,2.2197,2.1716,2.1632,2.2161,2.15,2.1416,2.2161,2.2197,2.2197,2.2197,2.2197,2.2197,2.2197,2.2197,2.2197,2.2197,2.2197,2.2366,1.5773,1.6513,1.7398,1.8188,1.9074,2.0679,2.4218,2.4628,2.473,2.6496,2.5799,2.5183,2.624,2.5176,2.4347,2.4957,2.4754,2.4861,2.5865,2.6279,2.6948,2.8248,2.7945,2.7597,2.7557,2.7017,2.6524,2.6235,2.5673,2.5189,2.4946,2.4893,2.4922,2.4962,2.5285,2.544,2.544,2.5585,2.5313,2.4714,2.4714,2.4642,2.4497,2.4497,2.4302,2.3867,2.3546,2.2961,2.2254,2.1944,2.1583,2.1282,2.1051,2.0858,2.0693,2.0605,2.0644,2.0693,2.0867,2.0984,2.1128,2.1397,2.0927,2.0216,2.0359,1.9789,1.9108,1.9108,1.9108,1.9075,1.8942,1.8808,1.8674,1.8617,1.8472,1.8337,1.8303,1.8144,1.8008,1.8008,1.8008,1.8076,1.8269,1.8687,1.9144,1.9595,2.0085,2.0677,2.1368,2.1463,2.1632,2.2154,2.2197,2.2197,2.2197,2.1861,2.1813,2.2173,2.1861,2.1813,2.2173,2.2197,2.2197,2.2197,2.2197,2.2197,2.2197,2.2197,2.2197,2.2197,2.2366,2.263,1.5406,1.622,1.7322,1.7784,1.9127,2.0915,2.3266,2.3381,2.3872,2.6933,2.5815,2.4872,2.6671,2.4263,2.2868,2.5469,2.4623,2.4522,2.7188,2.6801,2.7186,2.9757,2.9341,2.874,2.853,2.849,2.8131,2.718,2.7098,2.673,2.5861,2.5777,2.5379,2.4529,2.5399,2.5854,2.5854,2.6356,2.6103,2.5168,2.5168,2.4931,2.4487,2.4487,2.4249,2.3888,2.3381,2.2915,2.2449,2.1994,2.1693,2.1464,2.1282,2.1099,2.0867,2.0654,2.0731,2.0906,2.0906,2.1167,2.1502,2.1502,2.0991,2.0385,2.0385,1.9789,1.9108,1.9108,1.9108,1.9108,1.9108,1.9108,1.9031,1.8841,1.865,1.8482,1.8337,1.8134,1.8008,1.8008,1.8008,1.8202,1.8877,1.9011,1.9497,2.0901,2.1103,2.1368,2.2092,2.2197,2.2197,2.2197,2.2197,2.2197,2.2197,2.2197,2.2197,2.2197,2.2197,2.2197,2.2197,2.2197,2.2197,2.2197,2.2197,2.2197,2.2197,2.2197,2.2197,2.2209,2.2739,2.3011,1.4824,1.5698,1.6827,1.7557,1.885,2.0428,2.2314,2.3219,2.4091,2.566,2.5237,2.4985,2.633,2.479,2.3821,2.5252,2.4612,2.438,2.5613,2.6336,2.7198,2.8356,2.8508,2.85,2.845,2.8078,2.7756,2.7482,2.7226,2.6583,2.5431,2.5379,2.4979,2.4116,2.4333,2.4467,2.4467,2.4612,2.4385,2.3795,2.3795,2.3898,2.4074,2.4074,2.3826,2.337,2.2904,2.2439,2.2004,2.1859,2.1693,2.1464,2.1282,2.1099,2.0867,2.0654,2.0731,2.0906,2.1061,2.1282,2.1451,2.1275,2.0844,2.0369,2.0048,1.9575,1.9108,1.9108,1.9108,1.9108,1.9108,1.9108,1.9065,1.9042,1.8875,1.864,1.8472,1.8313,1.8178,1.8042,1.8395,1.8787,1.8977,1.9824,2.0602,2.1028,2.1526,2.1956,2.2154,2.2197,2.2197,2.2197,2.2197,2.2197,2.2197,2.2197,2.2197,2.2197,2.2197,2.2197,2.2197,2.2197,2.2197,2.2197,2.2197,2.2197,2.2197,2.2197,2.2197,2.2209,2.2739,2.3216,1.5578,1.6275,1.7129,1.804,1.9023,2.0222,2.1835,2.3225,2.4388,2.5044,2.4647,2.4543,2.5742,2.4495,2.3623,2.4648,2.4168,2.3993,2.4856,2.5949,2.6913,2.771,2.8471,2.8926,2.8853,2.8674,2.8602,2.8602,2.8117,2.7312,2.6206,2.5961,2.5305,2.4099,2.4238,2.4189,2.3919,2.4053,2.3815,2.3184,2.3381,2.3412,2.3339,2.3525,2.335,2.2884,2.2418,2.2066,2.1807,2.1807,2.1731,2.1578,2.132,2.1138,2.0974,2.078,2.0858,2.1031,2.1042,2.1161,2.1268,2.0953,2.0534,2.011,1.9876,1.9471,1.9108,1.9108,1.9297,1.9485,1.9485,1.9682,1.9748,1.9231,1.8942,1.8774,1.865,1.8448,1.8337,1.8496,1.8787,1.9177,1.9726,2.0537,2.1198,2.1494,2.1925,2.2197,2.2197,2.2197,2.2197,2.2197,2.2197,2.2197,2.2197,2.2197,2.2197,2.2197,2.2197,2.2197,2.2197,2.2197,2.2197,2.2197,2.2197,2.2197,2.2197,2.2197,2.2197,2.2209,2.2987,2.3493,1.6921,1.741,1.7915,1.8847,1.9482,2.0257,2.1688,2.3232,2.4435,2.472,2.4002,2.3699,2.4957,2.3655,2.2753,2.3906,2.3486,2.3442,2.4725,2.5511,2.6336,2.753,2.8715,2.9452,2.9369,2.9744,2.9961,2.9961,2.9341,2.8524,2.7539,2.7006,2.5952,2.4257,2.4603,2.4459,2.3732,2.4084,2.3877,2.307,2.3484,2.3246,2.2449,2.2915,2.2873,2.2408,2.1994,2.1807,2.1807,2.1807,2.1807,2.1769,2.1397,2.1244,2.1205,2.0984,2.1061,2.1183,2.0907,2.0929,2.1031,2.0524,2.0089,1.9793,1.9741,1.944,1.9108,1.9108,1.9584,2.0096,2.0096,2.0613,2.0773,1.9584,1.9131,1.8998,1.8998,1.8731,1.8687,1.9299,1.9299,1.9628,2.0901,2.1167,2.1431,2.2092,2.2197,2.2197,2.2197,2.2197,2.2197,2.2197,2.2197,2.2197,2.2197,2.2197,2.2197,2.2197,2.2197,2.2197,2.2197,2.2197,2.2197,2.2197,2.2197,2.2197,2.2197,2.2197,2.2197,2.2221,2.3312,2.3806,1.6014,1.687,1.778,1.8847,1.9686,2.0636,2.2013,2.2053,2.2042,2.2937,2.2793,2.2903,2.4148,2.3517,2.3128,2.3952,2.3486,2.332,2.416,2.4426,2.5075,2.6532,2.6832,2.7293,2.8293,2.8751,2.9012,2.9012,2.9072,2.84,2.6749,2.6383,2.5324,2.3345,2.3367,2.3041,2.2252,2.2346,2.2294,2.2108,2.2201,2.2149,2.1973,2.2439,2.2387,2.1952,2.1849,2.1807,2.1807,2.1807,2.1807,2.1769,2.154,2.1436,2.1397,2.1205,2.1244,2.1364,2.0954,2.0929,2.0979,2.0162,1.9876,1.973,1.9357,1.9181,1.9108,1.9108,1.9584,2.0096,2.0096,2.0613,2.1028,2.0741,2.0645,2.057,2.0386,2.0311,2.0279,2.0301,2.0634,2.0965,2.1293,2.1683,2.203,2.2197,2.2197,2.2197,2.2197,2.2197,2.2197,2.2197,2.2197,2.2197,2.2197,2.2197,2.2197,2.2197,2.2197,2.2197,2.2197,2.2197,2.2197,2.2197,2.2197,2.2197,2.2197,2.2197,2.2197,2.2221,2.3312,2.3806,1.6226,1.7022,1.781,1.9116,1.9793,2.0305,2.1081,2.097,2.0853,2.1518,2.1976,2.2487,2.3106,2.3095,2.3139,2.3522,2.3239,2.3139,2.3522,2.3866,2.4552,2.5721,2.6362,2.7091,2.8153,2.8605,2.8846,2.8846,2.8654,2.8075,2.7032,2.6616,2.5695,2.4166,2.3717,2.3165,2.2365,2.1987,2.1807,2.1807,2.1807,2.1807,2.1818,2.2056,2.2035,2.1807,2.1807,2.1807,2.1807,2.1807,2.1807,2.1769,2.1578,2.1502,2.1512,2.1397,2.1397,2.141,2.081,2.0674,2.0638,1.9761,1.9461,1.9419,1.9181,1.9108,1.9164,1.9495,2.0074,2.0645,2.0985,2.1553,2.2063,2.2063,2.1565,2.106,2.0974,2.0867,2.0887,2.1164,2.1365,2.1577,2.1839,2.2049,2.2197,2.2197,2.2197,2.2197,2.2197,2.2197,2.2197,2.2197,2.2197,2.2197,2.2197,2.2197,2.2197,2.2197,2.2197,2.2197,2.2197,2.2197,2.2197,2.2197,2.2197,2.2197,2.2197,2.2197,2.2318,2.2582,2.3421,2.3926,1.6457,1.7205,1.7861,1.9417,1.973,1.9754,2.0048,2.0102,2.0222,2.0534,2.1431,2.2215,2.2302,2.2695,2.3001,2.3001,2.3001,2.3001,2.3001,2.3522,2.4192,2.5004,2.6171,2.7306,2.8118,2.862,2.8896,2.8896,2.8241,2.7758,2.7554,2.7014,2.6289,2.537,2.4671,2.3888,2.3001,2.2327,2.1959,2.1807,2.1807,2.1807,2.1807,2.1807,2.1807,2.1807,2.1807,2.1807,2.1807,2.1807,2.1807,2.1769,2.1617,2.154,2.154,2.154,2.1489,2.1343,2.0648,2.0333,2.0172,1.9378,1.9108,1.9108,1.9108,1.9164,1.9396,1.9944,2.0677,2.1408,2.1959,2.2586,2.3108,2.3108,2.2261,2.1439,2.1439,2.1322,2.1373,2.2002,2.1939,2.1951,2.2316,2.234,2.2247,2.2228,2.2197,2.2197,2.2197,2.2197,2.2197,2.2197,2.2197,2.2197,2.2197,2.2197,2.2197,2.2197,2.2197,2.2197,2.2197,2.2197,2.2197,2.2197,2.2197,2.2197,2.2197,2.2197,2.2426,2.2891,2.3517,2.3989,1.5183,1.6416,1.7861,1.9417,1.9492,1.9432,2.0397,2.0012,1.9661,2.0436,2.1194,2.1811,2.2237,2.2695,2.3001,2.3001,2.3001,2.3001,2.3001,2.3065,2.3423,2.4156,2.5028,2.605,2.7334,2.8057,2.8469,2.8469,2.8231,2.7868,2.7377,2.6935,2.6358,2.5592,2.53,2.4443,2.3001,2.2889,2.2478,2.1807,2.1807,2.1807,2.1807,2.1807,2.1807,2.1807,2.1807,2.1807,2.1807,2.1807,2.1807,2.1807,2.1769,2.1769,2.1769,2.1769,2.1511,2.1098,2.0571,2.0172,1.9793,1.9274,1.9108,1.9108,1.9108,1.9528,2.0009,2.0063,2.1017,2.199,2.2082,2.2586,2.3108,2.3108,2.2944,2.2823,2.2823,2.2823,2.2811,2.2914,2.2836,2.2653,2.2451,2.242,2.2389,2.2216,2.2197,2.2197,2.2197,2.2197,2.2197,2.2197,2.2197,2.2197,2.2197,2.2197,2.2197,2.2197,2.2197,2.2197,2.2197,2.2197,2.2197,2.2197,2.2197,2.2197,2.2197,2.2197,2.2234,2.2318,2.3348,2.3842,1.5538,1.6708,1.7799,1.9096,1.9253,1.9202,1.9708,1.9534,1.9404,1.9781,2.0398,2.1002,2.1426,2.1887,2.2302,2.2575,2.2619,2.2706,2.2968,2.3001,2.3276,2.4011,2.4826,2.5679,2.6684,2.7447,2.7902,2.7902,2.7801,2.7629,2.7315,2.7134,2.6782,2.6242,2.5721,2.485,2.3632,2.3213,2.259,2.1807,2.1807,2.1807,2.1807,2.1807,2.1807,2.1807,2.1807,2.1807,2.1807,2.1807,2.1807,2.1807,2.1807,2.1807,2.1807,2.1807,2.1673,2.1393,2.0633,2.0296,2.0017,1.9336,1.9108,1.9108,1.9108,1.9584,2.0172,2.0549,2.1365,2.2206,2.2555,2.2871,2.3108,2.3108,2.3108,2.3108,2.3108,2.3108,2.3108,2.3108,2.2987,2.2848,2.2653,2.2561,2.242,2.2216,2.2197,2.2197,2.2197,2.2197,2.2197,2.2197,2.2197,2.2197,2.2197,2.2197,2.2197,2.2197,2.2197,2.2197,2.2197,2.2197,2.2197,2.2197,2.2197,2.2197,2.2197,2.2197,2.2498,2.3119,2.3589,2.4107,1.5565,1.6485,1.7236,1.841,1.8816,1.8953,1.9077,1.9175,1.9241,1.9274,1.9691,2.0137,2.0507,2.1109,2.1677,2.2073,2.2127,2.2291,2.2761,2.2826,2.308,2.3756,2.4528,2.5288,2.6035,2.6803,2.7289,2.749,2.749,2.7469,2.7369,2.7302,2.7134,2.6794,2.6173,2.5417,2.4409,2.346,2.2703,2.2101,2.1921,2.1807,2.1807,2.1807,2.1807,2.1807,2.1807,2.1807,2.1807,2.1807,2.1807,2.1807,2.1807,2.1807,2.1807,2.1807,2.1652,2.1352,2.0622,2.023,1.9965,1.9326,1.9108,1.9131,1.9297,1.9813,2.0484,2.1187,2.1834,2.2463,2.2975,2.3108,2.3108,2.3108,2.3108,2.3108,2.3108,2.3108,2.3108,2.3108,2.3017,2.2927,2.2811,2.2671,2.2482,2.2259,2.2197,2.2197,2.2197,2.2197,2.2197,2.2197,2.2197,2.2197,2.2197,2.2438,2.2594,2.2594,2.2474,2.239,2.239,2.2258,2.2258,2.239,2.2258,2.2197,2.2197,2.233,2.2799,2.3601,2.3878,2.4374,1.4221,1.4961,1.5756,1.7216,1.8007,1.8559,1.9005,1.9108,1.9142,1.9274,1.9328,1.9416,1.9647,2.0574,2.1393,2.159,2.1625,2.18,2.228,2.2357,2.2521,2.2984,2.3694,2.4492,2.5264,2.6035,2.6735,2.7456,2.749,2.749,2.749,2.7369,2.7214,2.6977,2.676,2.6186,2.5229,2.3754,2.2964,2.2927,2.2138,2.1807,2.1807,2.1807,2.1807,2.1807,2.1807,2.1807,2.1807,2.1807,2.1807,2.1807,2.1807,2.1807,2.1807,2.1807,2.1248,2.0457,2.0405,1.9862,1.917,1.9119,1.9108,1.9231,1.9846,2.0516,2.1187,2.1865,2.2525,2.3078,2.3078,2.3108,2.3108,2.3108,2.3108,2.3108,2.3108,2.3108,2.3108,2.3108,2.3078,2.3035,2.2841,2.2744,2.2598,2.2259,2.2197,2.2197,2.2197,2.2197,2.2197,2.2197,2.2197,2.2197,2.2197,2.3144,2.3722,2.3722,2.3252,2.2975,2.2975,2.2462,2.2426,2.2963,2.245,2.2197,2.2197,2.2702,2.2999,2.3071,2.4025,2.4472,1.4132,1.456,1.5109,1.6666,1.7431,1.7976,1.8526,1.9119,1.9495,1.9237,1.9414,1.9562,1.9437,1.9948,2.0516,2.0897,2.1315,2.1756,2.2212,2.2575,2.2815,2.2979,2.3658,2.4409,2.5229,2.5965,2.6701,2.7423,2.749,2.749,2.749,2.7469,2.7369,2.7214,2.7011,2.6371,2.5312,2.3754,2.3001,2.3001,2.2176,2.1807,2.1807,2.1807,2.1807,2.1807,2.1807,2.1807,2.1807,2.1807,2.1807,2.1776,2.1476,2.1538,2.1766,2.1476,2.1155,2.0824,2.0488,2.0296,2.0055,1.9335,1.9396,1.9781,2.0042,2.0581,2.125,2.1928,2.2586,2.3108,2.3108,2.3108,2.3108,2.3108,2.3108,2.3108,2.3108,2.3108,2.3108,2.3108,2.3108,2.3078,2.3005,2.2987,2.3226,2.4056,2.4194,2.4194,2.4194,2.4194,2.4194,2.4194,2.4194,2.3652,2.2306,2.3376,2.3905,2.3436,2.3135,2.3168,2.3505,2.3011,2.2987,2.3505,2.3336,2.324,2.324,2.3083,2.3316,2.3977,2.4316,2.4664,1.3708,1.4017,1.4523,1.6062,1.6626,1.7134,1.8275,1.8825,1.9108,1.9108,1.9347,1.9505,1.926,1.9473,1.9843,2.0299,2.0922,2.1516,2.2007,2.2477,2.2826,2.2979,2.3423,2.4022,2.4826,2.5569,2.6346,2.7087,2.7356,2.749,2.749,2.749,2.7403,2.7214,2.7011,2.6521,2.5699,2.4143,2.3497,2.3754,2.2429,2.1959,2.2176,2.1921,2.1807,2.1807,2.2111,2.2063,2.1807,2.1807,2.1807,2.1776,2.1466,2.1538,2.1766,2.1455,2.1155,2.0881,2.0785,2.0676,2.0466,1.9943,2.0063,2.0484,2.0698,2.108,2.1585,2.2249,2.275,2.3108,2.3108,2.3108,2.3108,2.3108,2.3108,2.3158,2.3358,2.3396,2.3333,2.3145,2.3308,2.3396,2.3145,2.3108,2.3692,2.545,2.5488,2.5312,2.5312,2.5312,2.5312,2.5312,2.5312,2.4747,2.3352,2.4097,2.4434,2.3941,2.3652,2.3652,2.4013,2.3553,2.3517,2.4013,2.389,2.3974,2.429,2.3761,2.3857,2.4496,2.4664,2.4975,0.0,0.0,0.0,1.5305,1.556,1.604,1.8216,1.8159,1.7936,1.888,1.9077,1.9088,1.9108,1.9208,1.9417,1.9856,2.0466,2.1091,2.1538,2.2029,2.2499,2.2947,2.3001,2.3276,2.4047,2.4826,2.5616,2.6346,2.7074,2.749,2.749,2.749,2.7335,2.7024,2.6794,2.6658,2.6499,2.4921,2.4528,2.5276,2.2942,2.2252,2.2964,2.2187,2.1807,2.1883,2.2665,2.2553,2.1845,2.1845,2.1807,2.1807,2.1787,2.1787,2.1787,2.1766,2.1186,2.0507,2.1223,2.0904,2.0258,2.0901,2.1092,2.125,2.1896,2.2101,2.2237,2.2914,2.3108,2.3108,2.312,2.3133,2.3133,2.3145,2.3158,2.3308,2.3891,2.4017,2.3866,2.3246,2.3697,2.3935,2.3233,2.3158,2.3935,2.6172,2.5851,2.5323,2.5228,2.5252,2.5264,2.5276,2.5276,2.5288,2.5288,2.53,2.53,2.5288,2.4807,2.4484,2.4484,2.4049,2.4025,2.4472,2.4061,2.4336,2.5288,2.4736,2.4496,2.452,2.5071,2.5312,1.2983,0.0,0.0,0.0,0.0,0.0,1.6136,1.6725,1.7236,1.7946,1.835,1.8704,1.9046,1.9208,1.9456,1.9904,2.0657,2.1339,2.184,2.2426,2.2859,2.299,2.3001,2.3276,2.4047,2.4826,2.5616,2.6346,2.7074,2.749,2.749,2.749,2.7335,2.7024,2.6956,2.6773,2.6499,2.5476,2.5087,2.5276,2.3497,2.2777,2.2964,2.2187,2.2101,2.2665,2.2889,2.2889,2.2665,2.2665,2.2327,2.1776,2.1435,2.13,2.1269,2.0891,2.0751,2.0717,2.0922,2.1238,2.1479,2.1187,2.1439,2.1865,2.2039,2.2101,2.2237,2.2914,2.3108,2.3195,2.3653,2.3753,2.3866,2.4224,2.4324,2.4286,2.4161,2.4594,2.4782,2.4036,2.3634,2.3346,2.3145,2.4469,2.5783,2.6399,2.6314,2.5558,2.3926,2.3997,2.4357,2.4735,2.4766,2.47,2.47,2.5083,2.5143,2.4771,2.4568,2.4484,2.4484,2.4386,2.4374,2.4484,2.4759,2.4831,2.47,2.4556,2.4723,2.5095,2.524,2.5312,1.3467,1.3584,1.3809,1.41,0.0,0.0,1.558,1.6048,1.653,1.7431,1.7874,1.8247,1.8735,1.8883,1.9198,2.0042,2.0653,2.124,2.1807,2.2438,2.2889,2.2889,2.2964,2.3276,2.4047,2.4826,2.5616,2.6346,2.7074,2.749,2.749,2.749,2.7369,2.7113,2.7045,2.6875,2.6589,2.5734,2.5488,2.5781,2.4215,2.3449,2.3449,2.2968,2.283,2.3038,2.3692,2.3754,2.3449,2.3449,2.2979,2.2274,2.208,2.1861,2.1585,2.1309,2.1035,2.0828,2.113,2.1601,2.2082,2.197,2.2187,2.2525,2.2525,2.2525,2.2635,2.3292,2.3471,2.3547,2.3916,2.4004,2.4142,2.4662,2.4707,2.4607,2.4682,2.4933,2.487,2.391,2.4148,2.4519,2.4519,2.5632,2.6499,2.6499,2.6499,2.6021,2.4682,2.4197,2.4235,2.4947,2.4898,2.482,2.482,2.4927,2.482,2.4508,2.4326,2.4206,2.4206,2.441,2.4484,2.4484,2.5035,2.5155,2.482,2.482,2.5011,2.5312,2.5312,2.5312,1.4114,1.4143,1.425,1.457,1.4191,0.0,1.5623,1.5622,1.5665,1.695,1.7297,1.7544,1.8071,1.8195,1.8651,1.9889,2.0386,2.0866,2.1653,2.2285,2.2665,2.2703,2.2852,2.3276,2.4047,2.4826,2.5616,2.6346,2.7074,2.7464,2.7398,2.7398,2.7306,2.7121,2.6984,2.682,2.6625,2.5836,2.5816,2.6487,2.4957,2.4228,2.4228,2.4145,2.3804,2.3324,2.4695,2.4898,2.4217,2.4173,2.3775,2.3121,2.3071,2.2704,2.2218,2.2163,2.1561,2.0941,2.1604,2.2004,2.2298,2.2914,2.3108,2.3108,2.3108,2.3108,2.3233,2.3841,2.4004,2.4029,2.4142,2.418,2.4318,2.487,2.4757,2.4727,2.538,2.5234,2.4675,2.3659,2.4908,2.6197,2.6449,2.6499,2.6499,2.6499,2.6499,2.6499,2.6499,2.5239,2.4679,2.5399,2.5321,2.5252,2.53,2.4831,2.4484,2.4484,2.4049,2.3806,2.3806,2.4194,2.4458,2.4484,2.4987,2.5216,2.5216,2.5276,2.5312,2.5312,2.5312,2.5312,1.4202,1.4394,1.4512,1.3906,1.3887,0.0,1.3763,1.3899,1.4302,1.5148,1.5362,1.5673,1.6612,1.7057,1.7482,1.8122,1.9212,2.0448,2.1834,2.2264,2.2515,2.2665,2.274,2.3128,2.4011,2.4826,2.5616,2.6346,2.7074,2.7327,2.6902,2.6844,2.6557,2.5852,2.6271,2.6365,2.6054,2.6316,2.644,2.6499,2.5523,2.5087,2.504,2.4409,2.4384,2.4874,2.517,2.5194,2.5051,2.4771,2.4359,2.3747,2.2153,2.16,2.1671,2.1254,2.1075,2.1145,2.18,2.2426,2.2944,2.3078,2.3108,2.3108,2.3108,2.3108,2.3233,2.3841,2.4004,2.4205,2.5059,2.5285,2.5435,2.6034,2.6122,2.6109,2.6248,2.6223,2.6109,2.5883,2.4707,2.4356,2.6185,2.6499,2.6499,2.6499,2.6499,2.6499,2.6499,2.5955,2.5375,2.4859,2.4693,2.4843,2.5264,2.4831,2.4484,2.4484,2.4049,2.3806,2.3806,2.3902,2.4109,2.4472,2.4592,2.464,2.464,2.5107,2.5312,2.5312,2.5312,2.5312,1.4806,1.4932,1.5026,1.469,1.4344,0.0,0.0,1.3861,1.3924,1.474,1.4797,1.5026,1.6046,1.6434,1.6844,1.7595,1.8682,1.9723,2.049,2.156,2.2289,2.2402,2.2905,2.3585,2.4469,2.5346,2.6139,2.6905,2.7289,2.7288,2.6745,2.6706,2.638,2.5667,2.5832,2.5826,2.56,2.6062,2.6207,2.6072,2.597,2.5699,2.5312,2.53,2.53,2.5312,2.5734,2.5886,2.5824,2.5013,2.474,2.4656,2.2777,2.2139,2.2226,2.1597,2.144,2.1647,2.1978,2.2555,2.3108,2.3108,2.3108,2.3108,2.3108,2.3308,2.3597,2.3916,2.4192,2.4594,2.5385,2.5598,2.5737,2.6361,2.621,2.6047,2.6411,2.6499,2.6499,2.6499,2.5594,2.5146,2.6298,2.5569,2.5184,2.6323,2.6499,2.6499,2.6499,2.6327,2.5936,2.521,2.5075,2.5128,2.5288,2.459,2.4145,2.4145,2.3697,2.3408,2.3408,2.3869,2.4386,2.4903,2.4915,2.4915,2.4915,2.518,2.5312,2.5312,2.5312,2.5312,1.5604,1.5575,1.5571,1.5567,1.4905,1.4323,0.0,0.0,0.0,1.4874,1.4881,1.4991,1.5855,1.6066,1.6374,1.7172,1.8092,1.8745,1.8839,2.0375,2.157,2.1691,2.2703,2.3748,2.4555,2.5522,2.6473,2.7443,2.7294,2.6968,2.6543,2.6549,2.619,2.548,2.5434,2.5316,2.514,2.5677,2.581,2.5598,2.6223,2.6176,2.5558,2.6198,2.6141,2.5558,2.6211,2.6436,2.6239,2.5034,2.4853,2.5131,2.343,2.2867,2.2919,2.2198,2.202,2.2113,2.2237,2.2659,2.3108,2.3108,2.3108,2.3108,2.3108,2.3509,2.4004,2.4004,2.4469,2.5046,2.536,2.5523,2.5686,2.6084,2.5883,2.5732,2.6185,2.6399,2.6499,2.6499,2.6323,2.6109,2.5883,2.4682,2.4393,2.6223,2.6499,2.6499,2.6499,2.6452,2.6245,2.5734,2.5641,2.5535,2.5312,2.4362,2.3842,2.3938,2.336,2.3107,2.3268,2.4181,2.4783,2.5011,2.5204,2.5264,2.5155,2.5264,2.5312,2.5312,2.5312,2.5312,1.633,1.6197,1.602,1.5272,1.4915,1.454,1.3922,0.0,1.429,1.5103,0.0,1.5258,1.5661,0.0,0.0,1.5918,1.6655,1.7389,1.7802,1.8776,1.9667,2.0257,2.1322,2.2404,2.3302,2.4326,2.5635,2.7378,2.655,2.5963,2.5897,2.5884,2.5419,2.4347,2.4805,2.487,2.4502,2.555,2.5909,2.5598,2.6223,2.6465,2.6383,2.6452,2.6465,2.6383,2.6452,2.6197,2.5649,2.5023,2.4523,2.4029,2.2527,2.2383,2.2935,2.2315,2.2099,2.2175,2.2781,2.3035,2.3108,2.3108,2.3108,2.3108,2.3108,2.3509,2.4004,2.4004,2.4732,2.541,2.5008,2.5247,2.5498,2.5096,2.5686,2.621,2.5644,2.6034,2.6499,2.6499,2.5674,2.4662,2.3659,2.4946,2.6197,2.6461,2.6499,2.6499,2.6499,2.628,2.6025,2.5746,2.5641,2.5535,2.5312,2.4362,2.3998,2.441,2.352,2.3388,2.4302,2.4915,2.4819,2.3998,2.4843,2.5083,2.4568,2.5083,2.5312,2.5312,2.5312,2.5312,1.6894,1.681,1.6734,1.6414,1.5843,1.5389,1.5408,1.5031,1.4936,1.5851,0.0,0.0,0.0,0.0,0.0,0.0,1.662,1.6948,1.6578,1.7576,1.8649,1.9442,2.0732,2.2201,2.3815,2.4418,2.5172,2.6317,2.5927,2.5686,2.5793,2.5686,2.5322,2.4635,2.4458,2.4227,2.3944,2.4644,2.5045,2.5159,2.5699,2.5996,2.5996,2.6336,2.6311,2.5996,2.5996,2.5824,2.5523,2.4695,2.4205,2.3904,2.2921,2.2755,2.2979,2.2352,2.2341,2.272,2.3005,2.3108,2.3108,2.3108,2.3108,2.317,2.354,2.3803,2.413,2.4745,2.5034,2.5172,2.5247,2.5435,2.546,2.4946,2.5172,2.5498,2.5498,2.5498,2.5699,2.6373,2.5783,2.5021,2.4632,2.5084,2.5724,2.6399,2.6499,2.6499,2.6499,2.6383,2.6245,2.5955,2.5933,2.5828,2.55,2.481,2.4403,2.4506,2.4109,2.4206,2.4939,2.5192,2.5107,2.4675,2.5083,2.5204,2.4975,2.5204,2.5312,2.5312,2.5312,2.5312,1.7479,1.7451,1.7389,1.7197,1.6558,1.6093,1.6413,1.598,1.5802,1.6834,1.6748,0.0,0.0,0.0,1.6635,1.673,0.0,1.695,1.6427,1.7118,1.7901,1.8522,2.008,2.1813,2.3573,2.3683,2.4085,2.5213,2.4968,2.5024,2.5641,2.5436,2.5164,2.4927,2.4278,2.3789,2.3599,2.4009,2.4318,2.4607,2.5134,2.5385,2.5398,2.5824,2.582,2.5385,2.5536,2.5523,2.5335,2.4695,2.4268,2.3954,2.354,2.3246,2.3035,2.2555,2.2689,2.3108,2.3108,2.3108,2.3108,2.3108,2.3108,2.3183,2.364,2.3866,2.413,2.4745,2.487,2.4838,2.5096,2.5272,2.5285,2.4876,2.4901,2.5146,2.5523,2.5423,2.5498,2.6336,2.582,2.5297,2.5548,2.5071,2.4938,2.5908,2.6172,2.626,2.626,2.6399,2.6383,2.6141,2.6166,2.6027,2.5641,2.5119,2.4701,2.4518,2.465,2.4903,2.5288,2.5312,2.5312,2.5312,2.5312,2.5312,2.5312,2.5312,2.5312,2.5312,2.5312,2.5312,0.0,0.0,0.0,1.6952,1.6646,1.6476,1.6034,1.6235,1.6867,1.7926,1.8096,1.8085,1.8217,1.7929,1.7702,1.7823,1.7478,0.0,0.0,1.76,1.7296,1.7262,1.9129,2.0785,2.1707,2.1272,2.1919,2.4359,2.3504,2.3607,2.5249,2.4924,2.4719,2.4714,2.4188,2.3789,2.3599,2.4009,2.416,2.4029,2.4582,2.4813,2.4813,2.4838,2.4825,2.4838,2.5372,2.531,2.485,2.536,2.4933,2.4004,2.3979,2.3597,2.3108,2.3078,2.3065,2.3108,2.3108,2.3108,2.3108,2.3108,2.3108,2.3108,2.3133,2.3521,2.3891,2.3333,2.396,2.4675,2.418,2.4443,2.4813,2.4788,2.5209,2.5573,2.5598,2.6059,2.6449,2.6487,2.5586,2.5008,2.5511,2.4845,2.4362,2.4775,2.531,2.5624,2.5624,2.6147,2.643,2.6201,2.6213,2.6027,2.5641,2.5119,2.4701,2.4518,2.4999,2.5288,2.5312,2.5312,2.5312,2.5312,2.5312,2.5312,2.5312,2.5312,2.5312,2.5312,2.5312,2.5312,0.0,0.0,1.8543,1.7855,0.0,0.0,0.0,1.7525,1.7852,1.8572,1.8997,1.923,1.9285,1.9236,1.9095,1.8753,1.8402,1.7917,0.0,1.6907,1.7068,1.772,1.8744,1.9846,2.0927,2.0879,2.1473,2.3107,2.3556,2.4198,2.5243,2.5409,2.5397,2.5244,2.4487,2.3952,2.3599,2.3508,2.3646,2.4004,2.4192,2.428,2.4293,2.4625,2.4619,2.4305,2.4845,2.4983,2.48,2.5008,2.487,2.4474,2.4142,2.3879,2.3665,2.3246,2.3108,2.3108,2.3108,2.3108,2.3108,2.3108,2.3108,2.317,2.3559,2.3841,2.4042,2.4173,2.4268,2.4243,2.4054,2.4406,2.47,2.4356,2.4958,2.5598,2.5598,2.5749,2.6034,2.6411,2.5883,2.5511,2.6109,2.531,2.475,2.5259,2.5812,2.6197,2.6197,2.6373,2.6465,2.6396,2.6396,2.6223,2.5828,2.5401,2.5117,2.5035,2.5204,2.5312,2.5312,2.5312,2.5312,2.5312,2.5312,2.5312,2.5312,2.5312,2.5312,2.5312,2.5312,2.5312,1.9013,1.8987,0.0,1.8338,1.8338,0.0,1.8241,0.0,1.8638,0.0,0.0,1.9579,1.9772,1.9718,1.9543,1.9191,1.9015,1.857,0.0,1.7556,1.791,1.8373,1.873,1.9321,2.0291,2.0237,2.0791,2.2391,2.277,2.3601,0.0,2.5236,2.5281,2.5339,2.4582,2.3992,2.3522,2.3228,2.3296,2.369,2.369,2.369,2.3703,2.4023,2.3998,2.371,2.4462,2.4788,2.4825,2.5247,2.5285,2.5046,2.4506,2.4167,2.3929,2.3321,2.3108,2.3108,2.3108,2.3108,2.3108,2.3108,2.3108,2.317,2.3547,2.369,2.3766,2.4098,2.3935,2.3778,2.4192,2.4525,2.4833,2.487,2.5431,2.59,2.59,2.59,2.6047,2.6424,2.6021,2.5774,2.6399,2.5699,2.5209,2.5548,2.5912,2.6185,2.6185,2.6361,2.6499,2.6499,2.6499,2.6327,2.5945,2.5606,2.5382,2.5312,2.5312,2.5312,2.5312,2.5312,2.5312,2.5312,2.5312,2.5312,2.5312,2.5312,2.5312,2.5312,2.5312,2.5312]}]]